GFSGBSN_700_spd_000.txt.gz
Wind_Speed
21 21 20 20 20 20 20 18 18 18 18 18 18 17 17 17 17 17 18 18 19 18 16 16 18 18 17 15 7 17 18 25 28 36 38 34 29 26 21 18 16 19 19 18 14 12 15
22 21 22 21 21 21 20 21 20 19 18 18 19 18 17 17 18 18 17 19 19 18 19 17 17 19 18 14 12 16 14 24 28 32 39 35 34 29 19 16 15 19 21 13 15 16 17
20 20 20 21 21 21 21 21 22 22 21 20 18 19 20 19 19 18 17 18 20 19 19 21 19 19 18 8 16 13 18 22 28 32 39 39 34 27 25 14 11 12 11 15 20 20 22
19 20 20 20 20 20 21 21 22 23 23 24 23 20 20 20 20 20 19 19 19 20 20 22 23 21 21 12 15 12 19 21 29 33 41 33 29 26 25 19 11 14 13 20 24 23 22
22 20 19 19 20 21 21 21 21 22 23 24 25 25 23 21 20 19 20 21 21 20 20 21 24 24 17 11 13 17 21 21 29 34 37 31 32 28 28 18 12 23 21 27 30 28 26
24 23 21 19 19 20 20 21 22 22 22 23 24 25 25 25 22 20 20 21 22 22 21 22 23 19 11 13 12 18 24 25 26 32 34 32 34 34 30 25 19 25 26 33 34 33 31
27 26 25 24 21 20 19 20 20 22 22 22 23 23 23 24 23 22 21 23 23 25 24 20 25 28 22 15 18 20 24 25 27 29 33 35 38 42 36 26 17 26 31 39 36 25 33
28 28 27 26 25 24 22 21 21 20 21 22 23 23 22 23 21 21 23 24 24 29 31 23 25 31 26 22 27 23 25 26 26 30 31 36 44 40 32 26 20 22 33 40 32 28 26
30 29 28 27 27 26 25 24 23 23 21 21 23 23 21 21 21 20 22 23 22 26 32 27 14 9 11 23 33 29 29 31 27 26 33 37 40 38 31 28 22 23 37 34 33 33 22
31 30 30 29 27 27 27 27 25 24 23 22 22 23 21 19 20 19 20 20 20 18 21 19 9 9 15 14 32 31 31 31 30 25 27 31 35 35 34 30 27 24 31 33 18 18 28
30 30 31 32 31 29 27 27 27 26 24 23 23 24 20 20 18 18 19 17 14 10 6 9 5 14 16 12 14 32 32 30 33 29 28 25 36 32 31 36 31 27 28 28 20 17 17
32 32 33 34 34 32 31 28 26 26 25 24 22 25 21 21 18 16 16 17 11 6 9 5 9 8 14 8 17 8 33 32 30 28 27 26 16 36 35 35 33 32 19 15 11 11 9
35 34 35 37 37 37 36 33 29 27 26 25 22 23 22 20 17 14 15 15 10 11 6 4 4 1 12 15 8 15 23 34 30 25 33 26 29 26 25 34 31 33 26 3 1 4 6
37 36 36 37 37 37 37 35 33 30 26 26 22 23 22 21 21 16 19 19 17 10 23 14 10 9 19 13 7 23 16 31 32 29 20 26 21 35 27 29 35 39 36 15 6 5 6
40 40 40 38 37 37 36 35 34 32 28 27 23 22 22 24 24 20 23 29 19 27 16 15 20 19 10 6 7 25 28 22 30 33 30 22 25 25 37 33 32 32 31 27 26 14 4
38 38 36 36 34 33 33 33 34 32 28 29 26 20 24 24 25 24 29 38 25 25 21 20 12 8 6 10 10 6 6 21 30 29 34 32 11 31 27 36 38 34 32 19 14 5 5
36 34 33 33 32 31 31 32 32 31 27 28 27 21 22 21 25 28 36 35 33 30 25 24 26 18 17 17 15 14 9 13 16 19 31 42 37 23 24 41 46 41 32 28 16 14 7
37 35 34 33 32 31 31 32 31 31 27 26 26 20 19 21 22 29 34 33 32 32 25 31 25 23 25 24 19 15 20 16 14 12 14 24 39 40 37 19 42 43 39 37 29 15 10
37 35 35 33 32 32 31 31 30 30 29 26 25 21 25 25 26 26 28 29 33 31 29 27 28 24 20 16 13 17 23 21 19 14 16 23 29 34 36 41 38 32 40 38 37 33 30
34 34 35 35 34 33 32 32 30 28 27 25 24 15 15 19 23 24 28 32 30 24 22 21 25 24 24 26 23 17 20 19 20 14 17 22 33 34 35 39 32 33 34 26 24 26 25
37 38 39 38 38 39 34 31 31 27 26 23 21 20 19 14 17 25 25 24 26 27 27 25 27 27 22 25 25 27 30 27 25 16 9 11 34 41 47 45 37 25 35 33 33 31 28
40 42 44 43 40 36 33 32 30 29 25 23 23 22 23 24 24 23 19 18 24 24 28 25 25 22 23 29 27 25 24 32 30 16 9 16 25 37 45 45 47 37 25 28 30 25 24
44 43 40 39 38 36 34 30 29 28 23 23 21 22 24 25 23 24 21 20 16 17 21 18 18 24 26 24 25 24 26 32 30 25 18 22 16 35 35 43 43 39 46 44 37 33 34
40 38 37 35 33 34 31 31 28 26 26 23 22 22 24 29 23 23 23 18 16 20 20 16 18 19 19 22 26 24 26 23 35 29 22 22 21 24 38 24 7 37 45 39 36 34 29
32 31 31 29 26 25 26 25 26 24 26 25 22 22 23 29 25 21 20 21 16 21 22 20 20 18 16 18 17 23 25 25 25 43 20 20 15 18 15 24 13 24 26 32 35 29 29
26 24 23 22 23 22 21 20 20 21 20 24 22 24 22 27 25 17 18 18 15 17 19 23 22 18 18 20 15 19 18 22 13 34 46 28 15 16 14 8 8 19 27 27 28 22 21
23 23 23 22 23 19 20 17 18 16 15 19 19 23 24 28 23 22 16 12 12 10 13 21 19 18 19 24 17 16 21 18 22 24 26 18 10 13 12 7 9 21 29 32 21 14 19
24 23 20 20 19 18 19 20 19 19 13 18 17 22 23 27 19 17 13 18 16 14 10 10 10 13 16 17 15 10 8 9 16 27 36 39 13 4 1 2 3 19 27 25 26 29 10
22 21 20 18 18 16 14 10 12 13 13 16 15 20 21 24 11 8 20 17 13 11 14 10 9 7 3 7 6 11 7 9 9 16 23 29 22 9 1 6 8 11 20 34 28 26 24

GFSGBSN_700_spd_003.txt.gz
Wind_Speed
17 17 17 17 17 18 19 18 16 16 15 15 16 16 16 16 16 15 15 15 16 16 16 14 15 16 14 13 7 18 15 23 28 30 31 33 31 26 20 19 16 17 16 15 19 11 11
19 19 18 18 17 17 18 19 19 18 17 16 15 16 17 18 18 17 17 17 16 15 16 18 16 16 17 11 12 15 19 19 26 30 32 34 32 26 22 19 17 15 14 17 9 10 13
18 18 18 17 17 18 18 18 19 20 20 19 18 17 17 18 19 20 20 19 18 17 15 17 19 18 18 8 13 12 17 20 25 29 32 34 32 27 26 19 14 16 15 16 9 14 16
20 19 20 20 20 18 18 17 18 19 21 22 23 22 19 19 19 20 21 21 19 19 17 16 18 20 19 14 13 13 16 20 22 28 31 31 32 27 23 20 15 15 14 11 10 19 19
22 22 21 20 20 20 20 20 20 19 19 20 22 23 23 22 21 18 21 21 21 20 19 18 19 21 14 8 8 14 16 19 19 24 30 35 32 30 26 23 20 17 12 15 18 24 23
24 23 21 20 20 20 19 20 21 22 21 20 20 21 21 25 24 21 21 21 21 22 22 21 22 14 9 6 13 11 17 20 21 19 24 31 34 35 31 28 25 19 17 21 23 26 27
28 28 26 25 22 21 19 19 19 20 22 22 22 20 18 23 23 24 23 22 24 25 23 22 22 24 22 20 17 15 17 25 24 23 24 30 34 40 36 32 23 22 25 22 24 24 26
30 28 28 27 26 25 24 22 21 21 21 22 23 21 18 20 20 22 24 22 24 28 30 23 25 24 21 21 24 23 22 25 29 29 26 27 34 37 34 30 28 23 24 23 19 22 19
31 31 30 29 28 27 25 24 23 23 22 22 23 21 18 19 19 20 22 22 22 26 28 21 14 6 4 6 12 22 30 31 31 30 30 27 23 32 32 34 31 28 24 22 24 25 29
30 30 31 30 30 30 30 29 28 24 22 23 24 23 18 16 17 19 19 19 20 19 16 14 5 4 6 10 9 15 34 32 32 28 26 24 32 26 33 31 34 30 26 23 26 17 23
33 33 33 33 33 32 33 32 30 29 25 22 22 25 20 17 16 18 17 17 16 14 6 3 6 3 8 6 9 4 32 33 27 26 28 19 28 27 33 34 32 25 26 23 26 23 18
36 36 35 35 35 35 35 34 33 31 27 24 22 24 20 20 17 17 14 16 14 5 9 5 9 5 5 8 4 6 29 31 27 25 26 21 18 25 30 34 32 26 23 22 27 19 16
38 37 38 38 38 38 38 38 36 34 30 24 22 23 23 20 18 16 14 14 9 10 7 7 11 14 8 10 6 17 21 36 28 26 27 24 27 22 22 26 35 32 22 10 10 9 10
44 43 42 40 39 39 38 38 37 35 32 28 21 22 23 23 21 18 19 19 17 10 25 12 12 13 11 11 11 19 20 29 34 28 22 26 24 34 25 32 29 38 34 23 15 10 15
48 45 41 38 37 36 36 36 34 34 33 31 25 21 22 24 22 22 24 30 20 26 11 18 18 20 18 11 10 14 23 23 28 37 25 20 28 27 29 28 30 31 37 35 28 14 9
42 41 39 37 35 34 35 35 35 34 31 33 30 23 23 23 23 24 30 42 27 26 17 24 17 11 9 13 6 11 19 19 22 28 29 24 11 30 24 32 29 28 28 25 24 19 19
42 41 38 37 35 35 34 34 34 33 31 30 29 25 22 21 20 26 38 41 35 29 25 28 22 18 17 18 16 12 9 15 14 21 24 27 26 16 22 34 40 30 26 22 22 24 14
40 38 36 35 34 34 34 33 32 32 30 26 27 24 18 21 21 26 35 36 31 23 29 34 24 19 21 23 23 15 13 15 14 17 23 29 21 26 30 13 36 37 34 36 31 20 18
34 33 32 32 32 33 33 32 31 30 31 26 26 25 23 24 28 29 29 28 30 29 29 23 26 27 24 26 20 22 21 19 17 10 14 17 14 21 25 30 34 27 38 40 36 33 33
36 38 39 37 38 36 36 35 32 28 27 24 23 16 12 17 23 25 28 29 29 23 32 31 23 23 24 26 25 14 11 14 12 11 7 14 17 20 26 31 31 27 23 34 38 36 31
45 46 47 44 42 41 37 36 33 28 24 24 20 18 16 12 14 18 23 19 20 24 21 19 26 31 28 23 26 29 28 25 18 13 10 10 18 28 36 34 34 35 30 29 31 48 34
42 42 41 41 38 36 33 28 29 30 28 26 25 25 24 24 22 22 22 18 16 21 25 24 22 22 26 28 27 20 18 25 26 18 20 11 2 12 22 33 34 37 37 30 31 33 36
38 37 37 35 33 29 25 21 21 23 25 21 22 21 22 25 21 21 19 18 16 15 18 20 21 26 29 23 26 29 27 26 25 16 25 18 4 11 13 18 24 34 37 33 33 32 36
31 29 28 26 24 22 23 22 21 19 20 21 20 20 22 26 22 21 21 21 18 19 23 16 23 25 21 21 24 26 30 24 24 24 26 15 13 9 12 8 9 26 30 37 39 41 34
25 24 25 23 21 19 19 21 20 19 19 21 18 18 20 25 23 19 17 21 20 20 23 21 24 21 21 17 16 18 22 26 26 23 22 22 10 6 9 10 15 15 27 26 36 38 40
26 25 24 24 22 19 19 21 20 18 18 20 20 20 20 23 20 15 18 16 17 17 19 21 23 23 22 18 11 12 16 19 13 15 27 24 16 0 11 12 8 12 22 26 29 30 34
23 22 22 22 19 18 18 18 17 16 14 18 16 18 20 24 19 19 20 15 13 17 13 15 21 16 21 19 15 16 16 18 16 20 14 23 25 5 17 16 16 21 22 23 21 21 30
22 22 21 20 20 18 17 16 17 19 18 17 16 19 19 26 18 18 15 18 18 18 14 8 8 13 16 15 15 13 12 17 16 20 24 22 21 19 11 8 11 10 15 18 22 19 27
22 22 19 17 18 17 16 16 15 11 12 14 16 16 17 21 11 6 12 20 18 12 19 11 9 7 8 10 12 16 11 10 14 15 23 22 26 34 10 17 23 15 15 19 22 24 23

GFSGBSN_700_spd_006.txt.gz
Wind_Speed
15 14 14 15 15 15 15 16 16 16 17 16 15 15 15 15 14 14 14 14 14 14 11 11 12 12 11 11 7 17 14 17 23 26 28 30 29 23 20 14 14 15 10 11 8 9 8
15 16 15 15 16 16 16 17 17 17 17 18 18 18 17 16 16 16 16 16 15 14 14 13 12 14 14 13 8 13 16 17 21 26 28 31 31 25 17 18 15 10 10 11 9 9 11
16 16 16 15 15 16 17 17 18 19 19 18 19 19 20 20 20 19 19 17 16 15 14 14 14 15 14 7 10 12 16 18 19 23 27 31 30 26 24 17 18 15 10 10 9 14 12
17 16 16 16 16 15 15 16 16 17 18 20 20 20 21 21 23 22 23 21 18 17 16 14 15 18 15 16 14 15 15 17 19 21 27 31 33 28 21 17 14 15 13 13 9 15 12
19 19 18 17 16 17 17 16 16 16 17 18 19 20 22 23 23 22 23 22 21 19 18 16 17 19 19 7 4 7 12 16 17 20 26 30 32 28 22 23 21 19 19 15 11 15 14
23 23 23 23 20 18 18 18 18 18 18 18 19 18 19 22 22 24 24 22 22 21 20 19 19 18 13 9 10 9 10 15 17 18 23 28 32 26 26 30 30 24 21 15 17 19 16
25 24 23 23 24 23 22 21 20 19 18 19 19 20 19 21 20 22 23 22 22 24 22 20 16 20 21 23 22 16 13 15 19 17 21 26 32 37 33 31 28 22 19 17 20 14 18
27 27 26 25 24 24 24 24 23 22 21 20 20 18 19 21 20 20 20 19 22 24 27 23 23 25 21 24 27 25 22 17 22 24 23 24 37 32 30 29 30 24 23 22 19 17 17
31 30 29 28 27 26 26 26 26 25 25 23 22 19 19 19 21 21 19 19 20 21 24 23 18 19 18 17 13 15 30 25 24 27 29 30 28 29 30 32 32 31 27 24 22 17 17
34 34 34 33 32 31 30 29 29 29 28 26 24 22 19 19 20 20 17 17 17 16 14 13 11 12 15 12 14 12 26 29 25 30 29 28 31 31 30 33 33 34 29 24 22 20 21
38 36 35 36 35 34 34 33 32 31 29 29 28 25 19 19 20 20 18 17 13 10 6 7 11 15 12 12 11 12 18 30 28 24 32 33 34 31 34 36 34 37 28 27 23 23 25
40 38 38 39 38 37 35 35 34 33 32 31 29 28 22 21 20 20 17 15 11 6 10 7 13 15 9 6 6 12 17 28 23 24 29 31 26 31 31 32 32 30 28 25 25 25 27
48 43 42 40 40 40 38 35 34 33 32 32 30 27 25 20 21 19 17 15 8 17 6 12 13 17 13 9 7 10 19 30 30 31 32 27 32 27 28 31 33 32 28 20 20 21 16
50 43 42 39 37 37 36 35 34 33 32 30 29 28 25 21 23 21 21 20 20 10 24 10 12 16 17 13 10 13 16 27 31 27 26 29 30 37 25 41 40 41 41 29 24 15 17
47 44 38 36 35 35 35 34 33 33 33 31 29 27 26 24 23 24 26 31 21 24 18 22 19 18 19 18 14 13 21 25 30 32 32 30 36 26 37 29 42 41 46 42 37 30 26
41 41 38 36 34 34 34 34 34 34 33 33 31 30 28 25 25 27 33 46 27 22 16 20 24 18 19 23 19 18 21 21 26 30 29 25 21 32 24 29 36 45 42 41 44 26 24
34 34 34 33 33 32 31 32 31 31 30 30 30 28 28 22 25 33 40 39 33 31 24 23 26 28 21 21 19 18 15 19 20 25 27 30 21 19 30 41 42 39 43 44 43 44 20
35 35 34 34 33 33 33 34 33 31 27 26 25 22 21 21 25 27 35 30 34 28 32 32 29 29 29 23 21 21 19 15 17 22 28 29 26 27 24 36 37 40 43 41 40 39 43
38 39 40 40 41 41 39 39 37 35 31 28 26 25 23 24 23 26 26 27 29 29 30 30 39 32 27 27 28 28 26 21 15 16 22 28 33 23 26 26 26 43 49 45 46 40 43
37 38 37 38 38 38 37 34 33 32 27 23 21 15 13 14 20 20 21 24 26 23 29 31 30 29 31 32 29 17 21 21 18 21 19 19 29 35 28 33 35 35 42 49 49 48 43
35 35 34 33 33 33 32 30 26 26 25 21 17 17 22 12 13 16 16 17 15 20 23 24 33 28 31 31 30 30 23 18 16 18 17 19 25 26 30 29 27 35 40 40 49 54 50
34 34 33 32 29 27 25 20 20 19 19 19 19 15 21 31 27 26 21 16 15 17 19 19 24 28 31 31 30 26 28 26 24 22 22 20 19 22 30 31 33 35 36 40 39 42 50
34 32 28 24 22 22 21 19 20 20 20 21 20 22 23 21 25 22 16 16 13 10 16 18 14 14 12 22 23 23 22 21 19 24 22 23 22 17 25 22 27 35 40 38 44 40 39
29 27 24 22 22 20 18 15 17 21 22 22 19 21 22 20 15 17 20 16 17 19 23 17 16 15 13 22 22 24 24 26 25 26 20 17 22 21 22 7 14 26 28 34 36 43 37
28 25 24 23 25 22 20 16 18 21 22 22 16 20 22 23 16 18 19 15 18 20 24 27 23 18 20 21 18 20 22 23 31 31 29 26 23 21 22 23 13 14 11 25 32 38 40
24 24 22 20 22 20 15 16 16 18 20 20 20 19 21 25 18 12 18 19 15 15 16 20 29 25 21 17 17 21 27 25 29 26 29 27 28 27 17 20 17 13 12 23 28 28 38
22 22 20 19 21 19 17 16 15 17 17 18 18 17 17 23 22 20 21 12 11 8 9 11 24 20 17 15 20 23 28 26 24 30 29 29 29 33 24 18 20 19 19 21 11 19 30
21 22 20 18 18 15 16 14 15 16 17 21 19 18 18 25 28 24 21 22 19 15 10 13 6 12 15 15 20 21 20 25 28 27 29 32 31 25 17 19 20 20 19 16 16 23 20
20 19 16 16 15 15 15 14 15 15 15 15 15 15 17 23 22 16 14 19 22 17 18 15 8 10 12 11 9 13 15 11 24 25 18 27 32 26 23 24 23 20 20 20 16 14 16

GFSGBSN_700_spd_009.txt.gz
Wind_Speed
12 12 12 12 12 12 13 13 13 15 16 17 18 18 18 17 18 17 16 14 13 12 11 10 11 12 9 9 10 20 13 12 17 21 25 26 26 23 22 14 13 12 9 7 6 6 7
12 13 13 14 13 13 13 13 14 13 13 15 17 19 20 21 20 20 19 18 16 14 14 11 12 12 12 12 9 16 14 14 14 20 23 27 26 23 20 18 16 12 11 11 9 9 10
13 13 13 13 14 14 15 15 15 15 16 16 15 16 18 21 23 24 23 21 19 18 16 15 14 15 14 9 8 13 14 13 14 18 22 26 26 21 22 19 18 16 14 12 10 10 13
16 16 16 16 15 15 16 16 17 18 18 18 19 18 19 19 20 22 25 25 23 21 18 18 18 19 18 13 15 17 17 14 15 18 21 18 25 25 23 19 19 21 17 18 14 14 14
20 21 21 20 19 18 18 17 17 18 19 19 19 19 20 21 19 18 21 23 24 23 21 19 19 21 19 16 9 7 12 13 15 16 20 21 22 29 22 23 22 21 24 21 14 18 14
22 22 22 22 22 21 20 20 20 19 20 20 20 20 21 22 20 21 19 19 20 22 23 22 21 20 16 13 9 8 7 13 16 15 18 24 22 28 32 30 30 26 25 25 23 21 18
25 24 23 23 23 22 22 22 21 20 20 21 21 20 20 22 21 20 19 18 17 17 24 22 13 16 3 6 14 12 11 12 16 18 21 23 28 38 36 33 29 26 25 21 20 20 23
27 26 25 24 23 23 23 24 23 22 22 23 23 21 19 22 22 21 19 18 20 21 28 25 25 31 27 20 20 17 14 16 21 24 22 22 36 33 32 32 30 29 28 24 17 20 26
34 32 31 31 29 27 26 25 26 25 25 24 25 24 21 21 23 21 19 19 18 20 27 24 22 25 24 28 31 25 24 22 23 25 28 32 29 31 33 34 34 33 31 25 22 24 24
42 38 36 36 37 36 33 31 29 27 27 26 26 26 24 20 22 20 22 17 15 15 16 21 17 21 23 22 26 23 25 30 28 27 28 30 26 29 37 38 36 35 30 26 25 21 20
48 45 42 40 39 38 37 36 34 33 31 29 28 28 23 24 22 21 22 17 12 8 7 4 12 10 17 23 8 18 20 30 32 27 28 34 32 32 38 41 38 36 30 29 27 27 26
50 46 44 43 42 39 35 35 36 36 35 32 30 30 27 25 21 21 20 16 10 7 16 12 14 16 20 24 17 14 19 27 26 27 27 31 28 33 33 37 36 33 31 32 32 31 26
47 45 44 41 38 36 34 32 32 32 33 32 31 30 29 25 20 20 18 15 9 20 9 16 18 19 23 20 20 20 20 31 34 35 33 29 36 31 33 34 37 38 36 28 26 25 20
42 40 41 38 34 33 32 32 32 30 29 30 29 30 27 24 23 22 21 19 24 16 30 7 18 22 27 23 22 21 20 29 34 30 27 32 29 39 33 40 39 44 44 36 24 18 19
36 35 35 35 34 33 31 31 32 31 31 32 30 30 26 25 25 26 26 35 33 31 20 24 18 24 30 30 24 25 27 28 32 36 34 29 33 23 39 35 38 42 51 44 39 35 30
38 36 35 34 33 32 32 31 32 31 31 33 31 30 27 26 26 30 33 54 30 29 16 22 33 27 29 31 30 26 27 28 30 33 34 28 25 29 30 34 34 48 44 46 47 28 26
39 39 39 38 37 37 35 35 35 35 31 32 29 26 21 25 22 32 44 44 38 34 28 33 28 33 37 32 36 35 31 32 25 32 33 34 28 24 28 43 45 38 50 42 47 46 21
39 39 39 40 39 39 39 38 37 37 33 30 28 18 14 17 21 26 39 38 35 36 31 36 35 33 36 33 33 28 30 31 26 29 36 34 30 28 29 34 32 42 42 50 41 42 43
39 39 39 38 37 36 34 34 34 32 30 28 26 24 23 18 28 31 32 35 36 38 38 39 40 41 34 35 35 35 30 27 24 26 30 32 35 30 31 29 32 42 47 48 56 43 43
38 37 36 35 33 32 30 29 28 26 24 20 20 17 13 20 20 26 30 34 33 33 38 37 41 35 41 41 39 36 36 31 30 24 28 26 34 39 30 34 32 34 43 45 47 49 43
38 37 35 32 29 29 26 21 20 21 21 18 13 15 16 16 20 19 20 23 30 27 25 29 32 38 38 44 40 39 35 31 37 33 32 28 32 35 36 33 24 32 36 39 48 50 48
39 37 35 31 27 23 21 17 17 19 20 18 20 14 19 24 24 29 25 23 21 27 24 25 21 29 35 38 38 38 37 35 30 35 33 34 32 29 32 31 31 32 30 40 39 46 52
37 34 30 26 25 23 21 20 17 20 22 22 22 20 20 20 19 22 24 27 24 23 25 26 19 18 14 23 29 28 31 37 35 31 33 34 34 30 32 30 28 34 38 36 36 41 42
34 32 28 26 24 25 22 21 19 19 21 22 22 23 28 20 19 20 20 21 22 17 16 25 18 16 14 12 17 19 24 23 24 37 34 34 36 32 33 25 21 33 31 36 39 39 39
30 27 23 23 22 22 22 19 18 19 22 21 22 25 25 19 17 19 19 17 18 21 22 22 33 29 25 17 12 14 20 20 26 26 28 29 31 37 32 30 19 26 14 13 10 30 38
30 26 22 22 20 18 18 18 17 19 21 19 19 22 19 25 17 20 13 14 16 14 15 20 21 33 25 20 14 15 23 25 33 32 33 31 28 28 26 32 24 22 7 10 12 21 22
29 25 21 21 20 19 17 17 16 18 18 17 16 20 19 24 19 16 18 18 12 18 11 8 17 25 23 16 18 25 26 31 34 41 34 42 40 40 35 26 28 15 10 17 15 18 19
24 21 21 20 17 15 13 14 16 15 16 17 16 19 21 32 25 23 26 27 19 14 17 6 4 14 17 16 22 26 28 37 35 35 41 43 43 41 37 36 31 14 10 18 17 15 18
23 20 18 15 14 11 12 14 15 13 17 15 14 14 16 18 26 25 27 22 19 21 23 15 6 7 9 15 20 21 17 20 36 35 39 46 46 42 34 41 28 22 21 16 24 31 25

GFSGBSN_700_spd_012.txt.gz
Wind_Speed
16 16 16 15 15 15 15 15 14 14 15 15 16 17 18 20 20 19 17 17 17 17 16 14 14 14 14 14 11 15 17 11 15 21 26 30 26 22 21 16 14 15 17 11 7 5 7
16 17 18 18 18 17 17 16 16 17 17 16 17 17 17 18 20 21 21 19 18 18 18 17 17 17 18 16 7 15 16 11 13 19 23 26 26 22 20 19 20 15 13 13 11 9 11
18 19 19 19 19 18 18 18 18 18 19 19 18 18 18 18 18 20 21 22 21 21 21 20 20 21 22 8 9 10 13 9 12 15 21 24 24 21 22 21 19 18 18 14 15 12 12
19 19 19 19 20 19 19 18 18 19 18 18 20 20 21 20 18 19 19 20 20 21 22 22 23 25 26 12 14 17 15 14 13 13 17 17 21 23 22 20 21 22 20 21 18 16 14
22 22 22 22 22 21 21 21 21 20 20 19 19 19 21 23 22 20 19 19 18 20 21 22 24 27 26 18 16 13 18 19 15 16 18 18 18 24 23 23 25 26 27 25 20 16 17
28 28 26 25 24 24 23 23 23 24 24 23 20 19 20 21 21 21 20 19 18 20 21 22 24 24 13 14 9 11 9 17 16 16 16 20 22 25 29 29 28 26 27 25 23 22 22
31 30 30 30 29 28 27 27 26 25 25 26 25 22 21 22 22 21 18 18 18 19 24 21 7 17 3 5 13 14 11 15 16 19 22 23 27 35 33 33 27 24 23 25 20 14 21
39 38 36 34 33 32 31 30 29 29 28 27 27 25 23 23 24 22 21 18 19 21 31 28 23 32 23 13 14 19 15 18 20 24 22 23 35 29 28 31 32 30 30 30 21 20 23
44 42 42 41 37 35 37 36 34 32 31 30 28 27 24 21 24 22 21 21 21 22 32 31 24 26 23 34 29 24 19 22 22 24 26 30 27 26 30 33 35 33 33 30 24 21 23
46 44 44 42 41 39 36 36 36 36 36 34 32 30 26 21 23 20 17 19 14 17 21 36 22 21 27 29 38 32 30 27 24 27 27 30 26 26 33 36 36 38 31 31 28 23 20
45 43 42 40 39 39 39 37 35 32 32 34 35 33 28 29 21 20 24 20 12 8 7 5 13 9 15 35 9 27 36 33 34 29 26 31 31 32 33 39 37 39 31 31 30 22 25
41 36 35 34 35 35 36 36 34 34 32 30 31 34 33 31 23 20 19 17 9 7 12 10 16 13 19 28 23 11 30 33 31 32 30 29 26 31 34 29 35 34 32 31 31 33 26
37 36 35 35 35 34 36 37 37 35 33 32 30 30 31 29 20 26 20 16 9 20 8 17 21 15 23 24 32 19 24 34 35 38 38 33 33 31 31 34 31 37 36 28 24 23 17
37 37 38 38 37 37 35 35 36 37 36 33 32 31 27 28 23 22 18 17 23 17 30 8 13 21 25 26 30 31 27 32 33 35 30 34 31 34 33 38 36 39 42 31 21 17 21
38 38 39 39 39 39 39 38 38 37 38 39 33 30 26 25 24 24 26 31 26 29 19 19 24 23 29 30 30 31 38 33 34 40 38 34 34 23 37 33 36 39 45 43 40 35 27
39 40 41 41 42 42 42 41 42 40 38 40 38 36 20 18 19 22 32 54 28 27 21 21 27 28 36 35 35 38 37 35 32 35 39 33 27 29 28 33 38 43 39 40 46 25 25
42 42 43 43 44 44 43 42 42 41 38 37 35 32 17 12 14 23 42 44 39 37 30 32 33 33 37 36 39 41 41 35 33 32 35 36 35 28 31 40 42 35 42 43 39 44 17
42 43 43 43 43 42 40 38 37 38 35 30 30 21 6 14 20 26 36 36 35 39 35 37 35 39 38 35 39 39 42 42 32 27 38 35 32 37 35 33 34 43 43 44 38 31 41
43 44 43 42 40 38 35 33 32 31 29 27 28 29 20 24 31 32 33 37 36 36 38 41 39 37 36 42 42 41 42 41 38 37 38 34 40 31 36 35 33 43 43 40 40 43 40
44 44 43 41 38 34 31 29 27 26 24 22 22 14 14 17 25 28 31 37 37 33 35 36 40 41 42 44 47 44 37 34 33 33 35 36 35 47 31 36 33 36 43 40 43 38 40
41 41 40 38 34 31 28 24 20 21 22 20 16 15 13 20 24 23 26 19 25 28 30 29 27 29 28 38 44 46 40 37 33 37 32 31 30 34 43 39 33 37 37 40 41 45 41
39 39 37 35 31 29 26 22 19 19 21 22 23 17 15 20 21 30 29 29 26 30 26 29 25 28 27 20 21 28 33 44 41 38 29 38 34 29 33 36 37 37 36 39 39 42 46
36 35 33 30 27 26 25 24 21 20 18 19 20 18 22 25 16 19 26 29 30 22 29 18 19 30 32 24 28 26 28 37 35 44 41 35 39 33 33 34 34 37 42 33 33 35 39
34 32 31 28 27 25 23 22 21 19 21 22 20 20 24 30 20 25 22 23 28 22 26 21 19 24 27 35 32 29 22 26 30 39 40 41 41 39 35 30 25 40 33 35 34 31 31
31 30 28 28 26 23 21 20 17 19 20 21 19 21 23 30 25 26 17 23 21 21 23 31 22 20 21 19 24 21 23 21 30 31 39 36 39 36 30 35 28 31 28 19 31 33 30
28 26 25 24 22 22 21 22 18 18 19 20 18 18 24 27 24 16 20 20 23 21 20 19 18 16 22 17 19 4 7 19 30 32 25 35 33 35 31 26 25 36 28 19 14 11 13
26 25 25 23 23 19 19 18 14 14 17 17 15 17 20 27 22 16 23 21 19 21 20 15 14 12 10 10 18 12 10 22 22 29 26 25 21 27 30 28 32 23 24 28 22 19 16
24 23 22 20 18 16 13 12 13 15 17 16 16 16 21 25 28 24 25 28 24 22 26 20 15 9 10 13 11 18 15 12 17 29 28 26 22 26 25 22 13 13 22 25 17 17 17
21 22 22 19 16 15 15 13 14 14 12 14 15 16 17 24 23 22 23 23 19 19 21 21 19 9 6 9 12 11 24 13 13 17 25 26 30 30 23 28 33 12 18 20 20 13 19

GFSGBSN_700_spd_015.txt.gz
Wind_Speed
19 18 18 18 18 18 18 18 17 16 15 16 16 16 17 18 19 20 20 20 19 19 18 19 18 19 20 19 6 17 13 6 12 21 27 33 33 27 19 15 14 17 23 15 16 13 17
19 19 20 21 21 20 20 19 19 19 19 17 16 17 18 18 18 18 19 21 22 21 21 21 22 22 23 18 11 12 16 8 12 20 24 28 34 29 20 18 19 15 20 21 11 19 19
22 21 21 22 22 22 22 22 21 21 21 21 20 19 19 19 19 19 19 19 20 23 24 24 24 26 28 0 10 16 8 5 11 15 21 24 27 24 19 20 19 21 23 16 17 15 16
28 27 26 25 25 25 24 22 21 21 21 20 20 21 21 22 21 19 19 19 19 20 23 26 27 29 24 6 15 19 13 7 9 12 17 21 24 25 23 20 21 21 20 24 14 15 18
30 29 30 29 29 28 28 27 25 23 22 22 20 19 20 21 21 21 20 20 19 20 21 22 26 29 19 14 20 12 18 16 12 12 11 14 15 21 26 22 22 22 25 21 18 18 19
33 33 32 31 31 32 33 32 31 30 29 26 25 24 21 21 22 21 20 21 21 22 21 21 25 23 14 5 8 12 16 14 19 13 16 21 19 24 24 27 29 24 24 26 27 23 29
37 36 35 34 33 35 34 34 34 34 33 32 30 27 25 24 25 24 18 21 23 22 27 23 22 22 15 3 7 8 10 13 23 19 22 21 26 36 31 31 29 25 26 29 23 22 29
38 38 37 38 38 37 38 38 37 35 35 36 36 34 28 23 25 24 22 20 23 26 34 27 24 29 16 15 19 19 16 18 19 24 24 23 36 31 26 27 30 31 33 34 32 21 26
38 38 38 39 38 36 35 35 35 36 36 35 36 37 33 26 26 23 23 22 20 24 36 35 27 29 22 27 24 24 28 24 24 27 29 31 18 28 29 28 33 36 37 36 28 17 14
39 38 36 34 34 34 35 34 34 34 34 32 31 33 34 30 26 24 24 23 17 17 22 39 23 24 28 35 40 32 33 25 29 28 27 30 27 28 26 34 34 39 39 34 32 30 22
32 33 32 32 32 33 33 33 33 33 33 33 30 27 27 34 24 24 26 20 16 15 6 8 7 8 11 40 18 37 39 33 33 30 28 37 30 29 35 33 34 42 33 35 32 34 18
31 31 32 33 33 34 35 34 34 34 34 33 32 29 26 26 24 28 24 20 19 7 10 7 16 15 14 19 32 10 24 42 34 32 30 34 29 31 33 29 31 31 34 36 38 39 21
35 37 38 38 38 38 38 38 38 37 35 33 32 31 26 22 15 25 18 18 12 13 5 10 17 19 18 20 23 27 22 41 47 40 44 36 37 33 31 31 31 31 34 27 18 19 9
40 41 42 43 44 44 44 44 43 42 41 41 36 36 28 23 16 21 20 21 20 12 27 8 4 13 25 21 25 30 28 41 46 40 25 34 34 38 32 40 37 39 39 28 12 12 11
42 43 44 44 45 46 46 47 47 47 45 47 43 39 33 25 17 21 26 31 17 21 15 12 27 23 26 27 27 27 37 36 45 47 41 30 37 24 35 34 37 36 47 43 30 28 18
42 43 43 44 44 45 46 47 48 48 44 44 48 42 29 22 12 18 32 48 28 26 20 16 21 10 15 15 19 35 36 42 36 35 39 38 26 32 28 33 36 42 37 37 44 14 17
42 43 44 44 45 45 45 46 46 46 43 39 40 40 26 9 11 26 45 38 37 33 28 29 27 38 38 39 35 32 31 42 40 39 39 39 40 35 28 39 40 42 43 43 30 38 12
42 42 42 43 44 45 44 43 42 41 40 34 34 33 13 18 23 29 36 34 29 31 30 38 34 35 40 39 44 41 41 33 31 44 44 45 38 42 49 35 39 37 37 42 32 19 28
39 39 40 41 42 41 38 35 33 33 32 30 29 30 14 25 26 25 26 32 31 32 33 31 37 35 37 44 46 45 45 42 35 24 50 42 48 32 36 43 40 45 42 43 44 36 34
40 41 39 39 39 39 34 30 28 28 24 24 21 19 11 13 11 24 27 33 29 31 28 22 26 32 31 34 35 46 47 43 36 33 24 22 46 55 32 37 36 30 47 42 42 42 42
39 38 37 37 37 33 29 27 25 26 22 20 18 19 12 21 19 17 18 22 21 24 32 22 26 25 27 32 30 33 33 44 44 37 31 24 40 45 47 43 31 45 29 47 49 45 39
38 36 34 34 32 30 29 28 22 24 22 21 20 19 17 23 24 23 18 16 18 23 19 24 22 26 20 27 23 35 30 21 31 35 26 32 26 47 40 29 48 43 35 38 45 47 48
34 34 33 31 29 29 27 24 22 21 20 21 20 20 20 23 24 22 16 24 20 19 16 22 16 23 25 19 33 40 32 31 33 31 26 28 17 29 31 33 25 31 53 42 32 41 43
34 33 30 27 28 27 24 20 19 19 19 19 19 20 22 27 25 24 24 21 17 18 22 26 18 24 24 25 34 38 44 38 35 35 20 30 26 24 24 22 10 24 24 37 35 30 33
33 30 28 28 28 25 22 20 19 20 20 18 17 16 20 25 26 21 17 19 24 18 23 19 19 23 23 18 23 26 39 39 43 36 26 27 25 22 20 28 19 31 24 25 28 35 31
30 28 25 26 25 22 18 17 18 17 15 18 15 16 19 24 25 20 23 21 24 26 27 19 22 23 26 17 16 4 9 17 18 21 30 29 26 27 21 16 20 30 25 27 23 17 29
29 25 25 26 22 19 17 16 14 14 15 17 15 16 19 24 21 18 16 18 17 23 28 25 21 14 17 19 14 9 6 14 14 15 14 25 23 17 27 27 22 3 31 26 20 13 17
29 26 24 22 21 20 18 17 15 14 16 16 12 16 20 24 25 22 15 20 23 21 21 24 27 10 14 9 6 6 7 10 17 19 14 6 5 12 12 20 6 31 28 20 24 26 21
28 24 23 22 22 21 20 19 18 18 18 19 17 18 17 23 29 22 19 18 19 15 19 21 23 20 9 3 9 5 8 8 11 13 11 11 9 7 6 7 4 12 27 26 23 29 27

GFSGBSN_700_spd_018.txt.gz
Wind_Speed
20 20 21 21 21 21 20 20 20 20 19 19 18 18 17 17 17 18 20 22 24 24 24 23 21 22 21 16 2 10 9 6 15 24 29 34 34 30 29 23 18 22 17 21 26 6 18
22 21 21 21 21 22 22 22 21 21 20 20 19 20 20 19 18 17 17 19 20 22 25 26 26 25 25 12 11 12 12 14 14 25 29 33 36 32 29 27 25 16 11 18 18 26 19
24 24 24 24 23 23 23 24 24 23 23 22 21 21 21 21 20 19 19 19 19 19 21 26 28 30 27 5 9 13 13 14 16 20 26 31 31 31 32 30 26 22 23 20 18 18 27
26 26 26 26 26 26 26 26 25 25 24 24 23 22 22 23 22 21 20 21 20 21 22 21 24 29 15 7 19 23 12 12 16 19 17 23 27 28 31 31 30 21 20 21 16 10 35
29 28 28 28 27 27 27 28 29 29 28 28 27 26 24 23 25 23 21 23 23 22 23 23 23 24 19 16 17 16 15 11 14 17 17 18 23 28 27 28 30 24 24 18 16 4 39
32 31 30 30 29 29 29 29 29 30 30 29 28 28 28 27 28 27 22 24 26 26 25 24 26 22 15 14 13 12 18 14 14 18 19 19 19 27 32 26 29 28 25 21 20 11 13
34 33 31 31 31 31 30 30 30 30 30 31 30 30 28 27 29 31 26 26 27 29 31 27 25 24 11 11 12 12 15 17 18 17 24 24 26 33 33 33 31 30 25 24 25 18 19
32 30 29 29 29 29 30 30 30 30 31 32 32 30 29 28 28 28 29 28 30 32 36 29 27 28 19 21 22 19 14 23 29 30 24 24 36 32 28 29 30 32 30 31 30 21 22
27 26 26 26 26 26 27 27 28 28 28 29 31 32 29 24 26 28 27 25 27 30 36 38 27 29 26 32 28 24 27 22 24 29 31 33 20 29 30 31 27 32 35 37 33 20 23
26 26 26 27 27 28 29 30 30 29 28 28 28 29 30 23 19 24 23 24 24 26 26 38 15 15 21 34 39 25 32 29 27 26 26 30 28 17 29 34 31 34 39 40 34 29 23
29 31 32 33 34 34 35 36 36 35 34 32 31 30 26 28 16 20 22 22 21 19 6 12 3 11 11 27 26 34 34 36 34 31 29 28 29 31 32 33 36 39 32 37 35 34 32
34 36 38 39 40 40 41 42 42 41 40 38 35 34 30 25 24 19 20 22 18 9 9 6 9 12 15 13 33 15 40 38 36 30 34 33 25 21 30 27 27 28 31 31 32 34 21
39 41 42 43 43 44 45 46 46 45 44 44 40 37 34 28 22 24 15 18 12 12 7 8 10 13 18 13 25 19 40 47 43 35 38 34 35 30 27 30 30 31 34 19 13 15 12
41 42 42 42 43 43 44 45 46 46 45 46 43 40 30 29 26 24 17 19 19 7 26 14 16 13 16 16 18 30 30 51 47 38 18 35 29 41 34 42 37 36 39 25 10 4 7
42 40 40 40 40 40 42 44 47 48 47 49 46 39 28 28 24 24 22 32 16 24 11 18 27 16 17 19 15 27 39 42 42 53 38 17 35 35 41 37 36 40 40 33 38 31 12
40 39 39 38 40 41 42 44 45 46 43 43 45 41 20 19 23 21 27 38 26 21 15 12 12 4 5 7 7 7 21 26 42 35 42 43 17 21 30 35 39 38 32 29 29 12 15
40 39 39 40 40 39 40 41 42 42 39 36 35 35 8 20 29 26 36 34 39 32 25 16 15 21 25 26 21 25 16 21 12 32 35 41 44 39 23 35 40 43 45 35 34 33 10
40 37 38 39 39 39 38 38 39 39 37 33 29 30 7 22 24 17 20 33 28 26 31 30 27 27 29 32 35 28 23 26 9 11 17 45 34 45 42 38 31 41 44 42 31 25 33
38 38 39 39 38 37 37 35 34 34 34 32 28 24 4 6 7 20 21 20 13 14 23 25 23 22 26 23 20 14 19 26 27 25 7 11 32 32 36 43 43 43 33 51 50 36 40
38 38 38 37 36 34 31 30 28 28 27 26 25 22 19 10 5 7 13 15 18 13 15 19 24 26 26 29 23 20 26 22 20 18 20 28 32 32 34 46 42 35 49 35 51 42 38
38 38 36 36 35 28 27 28 25 25 23 22 20 20 16 23 20 22 21 13 11 13 10 11 18 18 23 23 29 32 36 41 37 31 22 22 30 30 39 38 49 45 39 46 45 54 49
37 36 35 33 30 26 28 27 22 21 20 21 18 19 19 21 19 19 17 11 11 12 12 8 12 14 16 20 19 25 28 33 37 25 12 17 17 17 30 31 49 50 45 46 37 45 55
37 37 36 34 31 29 28 25 19 18 19 19 17 15 18 25 23 23 15 14 14 12 5 7 12 16 18 23 25 31 31 31 34 34 26 20 10 19 13 25 42 37 60 46 46 43 43
36 35 34 30 27 28 24 22 17 16 18 19 15 15 21 27 22 23 20 14 11 12 18 17 12 13 19 25 27 29 36 38 37 31 30 24 19 17 17 12 20 37 42 51 40 34 29
35 33 31 28 27 24 21 19 16 17 16 16 13 15 20 25 24 21 20 15 14 13 18 18 17 19 26 23 23 25 31 37 38 36 27 31 19 15 9 14 17 33 21 43 41 44 40
33 32 29 26 24 23 22 19 18 17 15 14 12 15 19 23 25 22 22 18 16 13 14 15 15 16 24 28 20 11 8 17 13 14 13 30 27 31 23 6 9 24 19 29 21 17 33
32 31 28 27 26 24 23 21 19 18 17 17 14 17 20 24 24 20 21 21 21 20 23 22 19 16 16 22 19 19 16 18 13 18 27 11 31 32 34 17 12 16 28 24 21 19 19
30 30 30 28 27 25 23 21 19 17 18 19 14 16 17 25 28 20 7 18 17 13 19 16 19 14 12 15 12 13 15 13 17 14 27 14 12 13 16 15 8 10 25 31 29 15 16
30 30 29 27 26 25 23 20 20 18 16 16 13 14 16 23 26 25 25 22 20 16 21 20 22 24 15 10 4 11 15 12 16 13 20 23 17 24 17 6 11 4 17 22 27 27 25

GFSGBSN_700_spd_021.txt.gz
Wind_Speed
19 19 19 20 21 21 22 22 22 22 22 21 21 20 20 20 20 19 19 19 20 21 22 24 24 25 22 18 2 12 9 8 13 26 33 38 34 29 28 24 22 24 17 16 12 11 14
20 20 21 21 21 21 21 21 22 22 23 23 23 22 22 21 21 20 20 20 20 21 21 22 23 26 26 15 12 17 11 13 10 21 28 33 33 31 29 28 27 24 18 15 17 19 21
25 23 23 22 22 22 22 22 22 22 22 23 23 23 23 23 22 20 20 21 22 20 21 21 22 23 22 6 12 14 15 17 20 18 27 33 32 33 34 31 29 28 27 27 24 17 17
28 26 26 25 25 24 23 23 24 24 24 24 24 24 25 25 25 23 22 24 24 22 22 21 22 23 18 10 17 20 17 18 19 23 26 28 28 34 36 34 29 26 28 28 22 14 13
30 29 28 27 26 25 25 25 25 25 26 26 26 26 27 26 28 27 25 26 26 25 25 24 23 23 19 13 17 21 21 18 16 19 25 26 27 31 36 35 31 31 29 28 25 14 15
30 30 28 27 27 26 25 24 25 26 26 26 25 25 27 28 29 28 28 28 29 28 28 27 27 22 15 15 14 19 19 20 22 24 24 27 26 30 37 36 32 31 28 31 27 9 14
25 24 24 23 23 24 23 23 22 23 25 26 26 25 25 26 26 28 29 30 30 31 32 27 28 26 17 15 16 18 19 25 25 29 32 31 30 40 40 38 37 35 23 33 25 13 4
22 22 22 23 24 25 25 25 25 25 24 25 25 24 24 25 24 24 27 29 31 31 35 29 28 30 20 20 21 20 24 34 35 36 35 30 42 37 31 34 33 34 32 34 31 23 17
25 26 27 28 29 30 31 31 32 32 31 30 29 28 24 22 22 22 21 24 27 27 35 38 29 28 27 34 32 28 29 35 37 35 38 42 24 34 33 34 32 36 36 39 34 16 14
30 31 32 34 35 36 37 37 37 38 37 36 35 34 30 23 22 21 20 21 21 22 23 34 22 13 20 31 42 33 34 31 36 37 34 35 35 22 37 38 36 37 41 38 34 24 14
35 37 38 40 42 43 44 43 43 43 43 41 40 38 35 32 27 22 19 20 16 14 7 8 10 14 11 13 22 35 40 37 37 34 38 29 35 35 30 46 39 41 38 36 31 24 25
39 40 41 42 42 42 43 44 43 43 44 43 41 38 38 35 29 30 17 16 15 8 10 5 8 10 13 11 16 14 45 42 38 32 29 31 19 26 35 26 31 36 31 32 31 28 18
40 41 41 41 40 40 39 40 41 42 44 46 42 39 34 35 33 30 18 15 10 12 6 8 11 15 16 13 20 20 43 52 45 40 42 35 35 24 19 34 25 27 30 11 8 10 11
39 39 39 38 37 36 38 41 43 42 42 44 44 40 29 38 32 25 18 18 18 8 22 13 13 9 10 15 18 25 36 54 49 41 26 34 20 40 33 33 32 40 37 14 7 4 8
39 38 37 36 35 36 39 41 42 41 41 43 42 36 23 31 26 20 21 30 16 21 15 17 22 17 15 15 14 19 25 49 49 50 31 24 32 21 41 37 37 31 42 41 28 20 5
38 37 36 35 36 38 40 40 41 39 39 40 40 35 16 18 20 18 25 36 26 15 15 14 11 8 10 15 7 9 18 10 37 37 51 32 15 23 27 33 39 40 36 26 28 11 12
37 38 37 37 38 37 37 37 37 36 36 35 35 30 14 17 17 17 21 28 32 18 14 13 14 13 12 14 7 8 11 6 13 29 35 51 39 32 24 38 43 50 43 31 35 31 10
38 37 36 35 35 35 36 35 33 34 32 30 29 23 18 16 10 8 10 16 19 27 28 22 23 24 21 21 17 9 10 8 14 9 14 24 22 42 40 28 29 42 51 43 24 25 36
38 38 37 37 37 37 35 32 30 32 32 29 25 17 17 15 10 10 8 9 7 4 18 15 11 15 19 13 9 8 14 22 21 10 3 8 13 16 19 40 37 30 43 50 54 41 43
38 38 37 36 35 34 32 29 30 31 27 23 22 18 17 10 7 20 22 12 14 14 9 8 9 12 15 14 11 10 11 12 9 9 10 13 13 14 15 20 17 33 41 48 54 40 41
37 38 39 39 36 33 29 28 26 26 21 20 20 20 14 16 15 15 16 16 14 11 5 6 5 6 10 11 15 17 17 25 32 29 24 21 19 21 28 29 37 35 28 49 52 53 42
36 37 37 35 34 31 29 26 23 24 20 18 18 20 19 18 15 18 15 7 9 13 11 6 9 8 3 12 12 16 18 22 25 22 19 22 18 22 31 24 28 36 45 44 49 55 53
35 35 33 32 31 27 26 25 23 22 20 20 17 16 17 20 21 20 15 14 13 9 8 8 5 7 9 12 16 20 18 19 25 29 27 22 22 22 17 16 20 31 64 51 42 48 46
32 31 31 29 29 27 26 24 21 20 20 19 18 16 19 23 21 21 20 17 14 13 18 16 13 9 14 19 20 20 26 28 23 26 30 29 24 21 14 13 8 40 40 46 50 43 45
31 32 32 30 28 27 25 24 21 20 20 17 15 14 19 26 23 22 17 19 15 16 19 19 12 16 17 19 22 20 23 30 28 25 28 30 24 21 6 9 25 32 19 30 42 49 42
32 32 32 31 29 28 26 25 22 20 19 17 14 16 19 24 28 22 22 17 18 17 12 12 13 12 20 20 17 8 8 8 12 9 19 30 31 29 14 6 6 8 19 29 30 45 46
33 34 34 32 31 30 29 27 25 22 18 18 16 18 19 25 28 22 22 27 25 18 20 19 16 14 15 15 14 17 19 18 11 18 12 34 39 34 31 12 19 18 14 16 25 43 34
33 33 33 34 33 31 30 28 27 24 21 17 13 17 18 25 27 17 11 16 18 22 23 19 21 10 9 11 11 15 16 17 21 29 25 26 28 26 28 19 16 12 14 12 13 17 33
32 33 32 32 32 31 32 32 27 25 22 20 15 17 19 25 26 25 25 18 21 19 21 23 22 20 14 9 8 11 14 10 16 24 23 36 35 30 26 32 25 14 9 9 22 23 28

GFSGBSN_700_spd_024.txt.gz
Wind_Speed
23 23 22 22 22 21 20 20 20 21 21 20 20 20 20 21 21 21 20 20 19 18 17 16 15 18 18 17 3 14 12 11 16 23 28 34 34 30 26 25 20 18 12 10 10 11 11
26 25 25 24 24 24 22 22 21 21 21 21 22 22 23 23 22 21 21 21 21 20 19 18 17 18 17 12 12 23 14 14 15 21 28 34 33 29 27 28 24 23 18 17 14 11 12
27 27 26 26 25 25 25 25 25 25 24 24 24 24 23 24 24 25 22 22 22 21 20 20 20 19 17 2 13 19 18 14 12 13 23 29 30 31 31 27 27 26 26 24 20 17 20
27 26 25 25 25 26 25 25 26 27 27 27 27 26 26 26 26 25 25 25 23 22 22 21 22 22 19 13 14 20 19 21 22 18 17 17 23 29 31 29 29 20 23 26 25 21 19
24 24 24 24 24 24 24 24 23 24 25 26 26 27 27 29 28 28 27 26 25 25 25 23 23 23 20 13 16 21 22 18 19 23 22 25 27 31 34 32 28 28 27 25 27 23 20
23 23 23 23 23 23 24 25 25 25 25 25 26 25 25 28 29 29 28 27 27 27 26 25 24 21 15 17 12 24 25 24 23 23 26 33 34 36 40 38 35 30 28 33 30 23 16
25 25 26 27 27 27 28 28 28 29 29 29 30 28 25 27 28 29 25 27 26 28 28 25 23 20 17 14 11 15 28 30 31 28 34 38 39 50 46 43 39 36 24 30 28 18 21
28 29 30 31 32 32 33 34 33 33 33 33 33 33 30 30 30 31 28 25 26 27 29 24 25 25 22 23 22 25 24 38 42 42 38 36 51 44 40 36 38 37 34 33 26 19 20
31 33 35 36 37 38 39 39 39 39 38 37 37 39 34 32 31 32 29 27 25 27 32 32 27 28 27 32 31 28 30 37 43 43 45 46 27 40 36 35 36 40 39 38 30 8 19
35 36 37 38 40 41 42 42 42 43 41 40 39 41 39 34 32 29 27 27 24 22 24 24 23 19 26 28 37 34 33 35 42 46 42 41 37 11 40 40 37 40 42 33 25 18 16
38 39 40 41 42 42 42 41 41 43 42 41 39 40 39 39 35 32 24 23 18 14 7 6 9 11 10 11 20 38 39 39 46 42 44 37 39 40 32 44 39 38 26 37 29 20 18
38 39 39 40 41 41 41 40 40 41 42 40 37 37 41 37 31 30 20 17 12 7 10 6 8 10 14 13 14 17 50 40 39 39 39 40 25 27 42 32 39 37 18 21 29 24 14
38 39 39 39 39 40 40 39 40 42 43 41 38 36 39 38 32 23 18 14 10 11 4 6 10 11 12 13 18 20 40 51 43 35 41 36 41 27 23 41 26 34 32 7 6 7 10
38 38 38 39 39 40 41 42 42 42 42 40 35 33 33 35 33 21 13 18 16 5 16 10 9 11 9 15 17 19 14 57 47 42 30 32 19 40 27 33 40 34 35 14 8 5 8
36 36 37 38 39 40 41 41 40 39 38 36 34 31 28 29 29 21 15 24 7 8 13 17 22 16 11 14 13 24 13 43 45 39 25 27 31 11 40 31 26 32 41 39 9 5 3
35 36 37 38 39 40 41 42 40 37 35 34 33 30 26 23 23 21 17 25 16 8 9 7 8 8 7 11 10 13 17 17 37 39 36 23 13 35 23 39 36 32 35 25 30 6 6
38 38 39 40 39 39 40 40 40 37 34 33 33 27 24 22 21 12 15 16 22 20 17 5 7 7 5 6 8 10 6 11 20 31 34 37 19 10 34 36 44 43 40 25 25 24 6
38 38 38 38 37 35 35 36 36 34 34 32 29 22 18 19 15 5 6 14 21 25 24 17 14 14 12 14 8 4 7 4 6 11 16 23 22 29 24 31 31 42 47 43 21 24 31
36 35 36 36 36 36 36 35 35 33 30 28 22 19 17 17 9 12 9 14 15 9 12 12 9 9 6 5 5 8 13 12 10 7 2 7 9 4 19 38 28 29 47 46 47 39 40
34 35 37 39 39 38 37 36 35 31 28 24 23 18 18 9 11 15 14 11 10 13 13 4 4 8 9 7 6 6 11 6 7 8 5 2 4 4 5 12 16 34 38 38 51 40 43
35 35 35 35 34 33 32 31 30 28 25 23 22 20 19 15 12 12 13 12 9 9 7 11 5 7 4 8 11 13 19 20 17 16 13 9 7 11 12 18 21 25 32 40 37 51 41
34 34 34 33 32 32 32 30 30 28 26 23 22 21 21 19 16 16 15 7 11 12 13 10 11 7 5 6 8 11 13 17 20 21 19 17 8 16 24 19 23 32 34 35 35 33 33
34 34 34 34 34 33 32 32 31 28 26 24 22 19 20 20 20 19 15 14 15 15 7 9 12 9 6 8 11 13 15 16 17 18 19 21 19 17 11 12 19 31 35 39 41 38 36
34 34 35 34 32 32 31 29 29 28 26 23 21 21 19 23 20 23 20 15 10 11 19 13 18 16 13 15 16 16 17 19 19 17 15 17 16 14 14 13 8 11 22 18 30 48 47
34 34 34 34 34 33 32 31 29 27 26 23 22 20 21 26 25 24 18 16 17 15 16 20 14 16 20 19 17 16 16 19 24 24 19 18 16 15 9 18 30 28 14 17 24 31 40
35 33 33 33 32 34 33 34 33 28 25 23 21 20 22 27 28 24 25 22 20 21 23 15 10 11 14 17 15 6 5 5 7 5 16 22 29 26 13 9 8 3 21 31 26 33 19
36 36 36 36 35 31 30 25 28 29 27 24 21 20 21 25 24 23 26 24 20 19 17 13 11 10 14 14 11 15 18 17 10 13 8 19 27 40 36 17 15 25 21 16 20 28 26
35 36 37 38 37 36 34 33 27 26 23 23 20 21 21 28 24 10 22 26 23 22 22 23 20 10 7 9 9 12 15 13 17 26 27 19 15 24 32 17 22 11 31 26 24 26 30
34 36 38 39 39 39 37 31 29 27 26 22 19 19 25 29 27 24 15 16 20 19 20 21 19 16 11 9 9 7 13 23 21 24 23 32 33 22 24 32 8 18 21 22 28 22 26

GFSGBSN_700_spd_027.txt.gz
Wind_Speed
22 21 20 20 20 20 21 21 22 22 22 22 22 22 22 21 20 19 17 16 15 14 12 12 13 13 13 15 8 14 13 11 16 21 26 29 32 30 27 24 20 15 14 13 8 6 3
23 23 22 21 21 21 21 21 22 22 23 24 24 24 24 24 24 23 21 19 17 15 14 14 13 14 14 10 15 20 16 14 13 19 23 27 28 29 27 27 23 21 18 16 13 6 7
24 23 23 23 22 22 22 22 22 22 23 23 23 24 25 26 25 25 25 23 20 18 18 17 15 15 14 2 11 20 17 11 12 12 20 22 26 29 30 26 28 23 23 21 17 13 12
22 23 23 23 24 24 24 24 24 24 24 24 24 24 25 27 27 27 26 24 24 21 22 22 20 19 16 12 13 16 19 19 19 12 16 18 26 27 30 28 23 19 22 22 23 18 15
24 24 24 24 25 25 26 26 26 27 28 28 27 25 26 26 28 26 26 26 24 23 24 23 22 22 20 16 18 20 21 21 22 21 18 20 27 32 33 31 26 22 18 22 25 20 14
27 27 27 27 28 28 29 29 30 30 31 31 31 29 30 30 31 29 28 27 25 24 25 25 24 21 19 17 13 23 26 25 27 27 26 29 32 34 37 31 30 19 19 21 23 15 15
28 29 30 31 31 32 33 33 33 33 33 35 34 32 31 34 34 33 30 29 27 26 23 25 22 12 14 12 13 17 29 31 31 34 38 35 38 49 42 40 31 24 22 18 15 19 20
32 32 33 34 34 35 36 37 37 36 35 37 37 35 33 34 35 36 33 29 28 27 27 24 24 26 26 20 18 21 30 39 40 41 39 38 51 40 40 39 38 34 29 26 24 23 20
34 35 36 36 37 38 38 39 39 38 37 37 41 40 37 33 33 33 30 29 27 28 31 29 28 32 29 32 28 27 28 40 41 43 45 43 24 39 41 40 39 37 34 30 25 13 19
34 35 36 37 37 37 38 39 39 39 38 38 41 41 41 35 30 28 27 25 24 23 22 22 24 22 26 39 43 33 35 36 45 48 44 39 34 13 38 41 37 35 34 25 26 17 25
35 36 36 36 37 38 38 39 39 39 38 38 40 42 40 36 32 27 24 19 15 12 6 6 10 11 17 24 27 42 41 41 41 40 48 39 38 40 26 42 37 31 19 30 23 21 18
35 35 37 39 41 42 41 41 41 41 40 40 40 40 38 37 31 24 20 14 10 6 10 6 8 11 14 16 20 21 47 43 42 32 36 35 31 30 40 23 37 25 14 15 17 19 21
36 38 40 42 43 43 43 43 43 43 42 38 36 37 36 34 30 23 16 12 9 10 4 4 10 12 13 15 23 19 35 55 38 32 33 33 31 28 30 30 25 29 23 12 12 14 16
39 40 41 42 42 42 42 41 41 41 41 38 35 33 31 29 27 19 12 14 12 3 10 11 10 14 11 14 17 23 19 42 37 28 26 32 25 38 30 33 31 34 34 16 13 13 13
39 39 38 37 38 38 38 40 40 39 39 37 34 30 30 25 22 18 11 15 3 4 10 13 12 9 10 14 10 19 23 35 34 30 22 29 29 11 41 35 30 28 43 36 11 3 5
36 35 35 37 38 38 39 39 38 37 36 36 32 28 24 22 18 15 8 13 8 7 8 4 5 3 4 8 11 14 18 23 34 38 35 21 10 27 20 33 30 29 32 21 25 12 12
35 33 34 36 36 37 37 38 39 38 35 32 29 26 21 20 19 15 7 9 17 17 15 7 8 9 5 4 3 7 10 10 29 32 37 32 22 11 27 35 35 31 34 25 23 15 7
33 34 36 37 37 36 37 38 37 38 36 31 27 23 19 20 13 13 10 12 15 17 15 14 12 12 9 9 4 1 7 9 14 18 24 28 23 24 22 22 35 36 32 34 24 16 27
34 35 36 36 35 35 36 36 35 36 36 34 28 20 20 20 11 15 10 8 10 10 11 7 9 8 5 6 4 6 4 5 5 6 13 20 19 19 21 18 27 33 38 34 35 23 23
34 36 37 36 36 37 36 36 35 34 32 31 28 22 21 12 20 15 14 10 10 9 6 6 8 9 10 9 9 6 3 1 5 5 5 12 11 24 22 24 22 23 25 34 38 35 36
33 37 37 36 35 35 36 36 34 33 32 29 27 24 21 19 16 15 13 11 10 11 7 8 5 6 8 7 10 15 18 14 10 6 4 3 2 11 14 19 17 21 27 26 27 39 39
33 33 34 34 34 34 35 35 34 33 31 28 23 24 23 18 17 17 13 12 12 12 16 13 9 10 7 2 6 8 10 12 15 16 13 12 4 9 12 15 12 19 30 34 34 35 29
34 33 33 34 34 32 32 34 36 33 29 27 26 24 21 22 19 18 14 17 16 15 5 9 14 14 12 7 9 9 10 12 12 12 12 12 8 8 10 10 18 25 39 30 30 31 36
33 34 35 36 36 34 32 31 31 34 30 24 22 22 20 24 22 22 21 17 13 13 17 14 13 17 15 16 11 13 13 12 13 12 13 12 9 8 11 7 10 21 22 27 26 26 36
34 34 34 35 36 35 35 34 30 30 30 25 19 19 20 26 26 23 18 18 17 18 15 15 16 15 14 13 13 10 7 12 15 14 15 12 13 7 10 21 24 27 19 17 20 25 22
34 33 34 35 36 37 37 36 36 29 25 26 22 19 18 23 25 23 21 21 20 17 17 15 8 7 10 8 6 5 4 3 4 4 17 24 24 15 10 11 12 13 26 25 26 28 30
33 34 35 36 38 40 41 40 39 28 26 24 23 21 21 23 22 23 15 12 18 17 16 11 5 7 10 10 9 9 9 7 7 8 6 14 20 29 27 19 17 22 15 12 18 12 14
33 35 36 37 38 40 41 41 39 33 26 21 24 20 23 25 15 17 21 24 22 21 19 16 18 8 6 7 6 7 8 9 12 14 12 15 13 18 24 21 27 21 31 28 15 14 12
34 35 37 37 39 39 40 43 41 33 30 22 24 20 21 26 24 13 14 17 17 13 15 19 17 10 7 7 8 7 9 10 11 13 13 24 30 20 21 25 13 17 32 28 35 40 31

GFSGBSN_700_spd_030.txt.gz
Wind_Speed
18 17 17 18 18 18 18 18 19 19 20 20 21 22 22 22 20 19 17 17 17 16 14 13 12 12 13 13 11 14 13 12 17 22 25 30 33 29 23 20 17 18 10 14 11 6 5
20 20 20 20 20 20 20 21 21 21 21 21 22 22 22 22 23 22 21 20 18 19 19 15 14 14 13 11 15 23 19 16 11 17 22 26 30 26 21 18 20 12 16 13 12 10 9
22 22 22 22 22 22 22 22 23 23 22 22 23 24 24 24 23 22 22 22 20 20 20 20 18 17 15 5 11 20 18 14 13 13 17 21 23 30 20 19 22 19 14 14 16 12 8
24 24 24 24 25 24 25 25 25 26 26 26 25 25 26 26 26 25 24 23 22 21 21 21 21 22 19 14 17 17 20 21 19 17 17 19 26 27 19 16 18 21 18 20 18 18 14
24 24 25 26 26 26 26 26 27 29 29 29 28 28 30 28 28 26 26 25 24 22 21 21 22 22 23 18 20 20 21 22 22 21 24 24 26 25 25 22 19 20 22 24 18 16 14
26 27 27 28 28 29 29 30 31 32 32 31 31 30 30 33 32 29 28 27 26 25 22 22 23 20 22 17 17 24 25 28 30 27 25 30 30 26 30 30 33 25 25 23 23 17 20
27 28 29 30 30 31 31 31 32 33 34 34 34 33 31 33 33 31 30 29 27 28 25 20 19 14 21 17 22 22 30 31 32 33 31 29 31 42 36 32 29 25 26 26 24 22 16
27 28 28 29 30 31 32 33 33 34 36 36 35 33 32 33 33 32 30 27 27 28 31 23 23 25 29 21 22 26 32 40 40 41 31 27 40 30 29 29 30 30 26 27 25 18 15
29 29 31 32 34 35 35 35 34 35 36 38 39 37 34 33 31 28 27 27 24 27 31 31 29 30 28 33 28 30 33 37 40 38 41 37 17 30 29 30 31 34 34 30 25 19 20
30 32 32 33 34 35 35 35 35 36 38 40 42 41 39 35 33 28 24 22 19 20 18 19 27 25 28 35 39 33 31 37 32 39 36 36 30 22 32 34 32 34 32 28 26 24 24
32 33 34 35 36 37 38 38 38 40 40 41 43 42 40 38 31 28 23 17 11 7 7 4 13 15 21 35 21 42 34 38 31 30 39 36 35 32 34 33 31 31 25 25 29 26 26
32 33 34 34 36 36 35 36 37 36 36 38 41 43 42 36 30 24 21 15 7 5 10 5 6 7 10 26 16 18 39 35 32 30 32 35 20 32 28 24 25 24 21 21 22 27 28
33 33 34 34 34 34 34 35 37 37 36 36 37 38 38 36 28 20 16 10 7 13 1 2 5 6 10 14 25 20 35 45 39 36 44 34 40 26 26 27 23 28 24 14 13 20 20
33 33 33 33 34 33 33 34 36 37 36 34 34 34 32 31 26 17 15 6 15 2 6 12 9 12 11 14 17 26 22 41 45 35 26 35 30 42 33 37 30 36 34 18 16 14 17
30 32 32 32 33 33 34 36 38 38 38 35 32 30 30 26 22 16 13 12 14 6 11 16 16 9 13 9 10 17 26 30 46 40 35 33 38 32 27 35 35 35 44 38 5 6 11
30 32 35 35 35 35 36 38 38 38 37 38 35 30 25 23 18 14 6 9 6 11 16 9 10 4 5 6 6 11 20 19 30 40 32 26 29 26 36 30 32 28 33 34 29 15 18
28 31 35 37 37 37 37 39 39 39 37 35 34 23 24 21 17 8 5 8 12 12 15 9 9 11 9 8 4 7 8 8 24 28 32 22 21 30 27 42 38 40 29 39 30 27 11
29 29 32 36 37 37 38 39 41 39 38 35 31 17 23 18 9 9 9 12 13 11 12 11 16 14 12 9 6 6 7 4 9 9 23 27 21 18 34 34 34 38 35 40 30 31 34
28 29 30 33 35 37 36 36 40 40 37 35 31 24 23 13 8 11 11 9 11 11 12 9 8 12 14 10 5 4 3 2 7 5 19 20 26 26 21 27 30 42 42 38 36 26 30
29 30 31 32 34 37 37 37 36 40 38 33 29 14 14 12 16 12 14 9 11 12 9 13 12 11 9 16 15 6 3 3 5 3 13 26 21 36 30 29 29 38 41 39 40 39 31
30 31 33 33 34 35 37 38 38 37 36 33 26 12 19 12 12 12 12 11 11 11 9 10 9 12 10 7 12 13 8 7 4 5 3 6 22 17 23 12 10 24 41 42 44 41 40
31 32 32 33 34 35 37 37 36 38 33 30 23 20 19 14 14 11 11 9 10 11 13 9 10 13 13 10 6 10 7 7 7 5 3 2 11 12 19 15 11 16 22 27 36 39 40
32 32 32 32 34 34 36 37 40 43 30 28 25 20 18 17 14 11 10 11 15 14 7 6 14 16 13 14 10 12 13 13 15 13 8 6 9 9 21 18 17 23 31 30 30 33 30
32 32 31 32 34 36 37 38 38 39 31 23 21 17 20 19 15 14 16 15 15 12 16 16 14 13 10 15 14 11 15 15 14 15 14 9 10 12 11 14 15 22 22 27 35 33 31
32 32 32 33 36 37 39 39 37 39 38 22 20 16 19 23 19 14 11 15 15 16 16 17 13 12 12 11 9 10 11 10 14 15 15 15 13 13 20 22 11 12 13 11 17 26 30
33 33 33 34 36 38 39 40 38 37 43 23 20 16 19 25 19 18 16 15 14 12 11 9 10 9 8 6 7 9 9 7 6 8 16 17 17 18 13 21 17 12 25 15 8 17 15
33 34 34 34 35 37 39 41 40 38 41 25 20 18 19 28 21 18 11 14 17 16 15 11 7 5 7 6 8 9 13 10 11 14 12 22 22 25 25 23 18 20 5 9 19 4 10
33 33 34 34 34 37 39 41 39 39 38 25 19 17 20 24 22 17 19 17 12 14 13 10 10 6 8 9 7 8 11 11 17 18 16 17 22 26 28 29 30 19 19 17 11 8 9
32 33 33 33 34 37 39 40 37 40 36 26 19 15 17 23 20 15 10 14 13 9 10 15 12 9 8 6 7 7 8 8 13 17 18 27 26 24 24 31 21 15 27 26 27 25 21

GFSGBSN_700_spd_033.txt.gz
Wind_Speed
17 17 17 17 17 17 17 18 18 18 18 19 19 19 19 19 18 18 18 18 18 18 17 16 14 17 17 16 17 18 11 17 21 22 26 29 30 28 26 20 16 20 9 12 8 6 6
17 18 18 18 19 19 20 20 21 21 21 21 22 22 21 21 21 19 19 18 18 19 19 18 17 19 18 18 17 24 21 15 15 21 23 29 30 28 23 19 23 15 18 13 14 11 9
19 19 19 19 20 20 21 22 22 23 23 23 24 25 24 24 24 23 21 20 19 19 19 20 19 22 21 11 17 20 21 18 16 14 24 27 25 29 23 23 20 21 14 20 20 15 12
20 20 20 21 22 23 24 24 25 25 25 25 25 27 28 28 27 25 24 23 22 20 19 19 20 23 25 17 20 18 20 23 20 17 21 22 25 25 27 16 17 24 22 23 22 19 17
22 22 23 23 23 24 25 26 26 26 27 27 27 27 29 29 29 28 27 25 25 23 21 20 20 21 24 24 24 21 21 23 22 20 22 21 25 26 31 25 22 25 27 28 23 24 20
23 23 23 24 24 25 27 28 29 29 28 28 28 29 30 30 30 30 29 28 27 27 24 22 22 19 22 15 21 26 25 25 25 23 23 26 29 27 33 36 36 30 31 28 27 25 25
23 23 24 25 26 28 29 31 32 32 33 33 33 33 33 32 31 31 28 28 28 30 25 20 17 17 15 17 23 22 29 29 28 27 29 31 34 44 40 40 33 28 27 28 28 24 23
23 25 25 26 26 25 26 27 28 29 30 31 32 33 34 36 35 32 29 26 24 28 35 28 26 29 26 22 19 25 30 32 37 37 31 28 44 34 31 33 35 34 31 30 29 22 21
24 25 25 24 24 25 25 26 28 30 31 32 32 32 32 36 37 32 32 27 24 26 34 36 29 33 29 31 29 25 34 36 39 39 40 38 21 30 31 34 36 37 37 32 29 28 25
25 25 24 25 28 28 28 29 29 31 32 33 34 34 34 33 38 35 28 27 22 21 18 23 25 27 34 33 37 29 34 39 34 43 40 35 29 23 34 35 35 38 36 32 26 29 30
25 23 26 28 29 29 29 29 29 29 30 30 31 31 32 33 33 32 31 22 17 10 7 5 12 17 18 39 9 40 37 42 35 34 40 46 36 32 34 36 32 35 26 33 32 31 29
24 26 29 29 28 29 30 30 30 31 31 31 31 31 30 31 31 28 28 18 8 7 11 7 6 6 15 27 22 16 38 41 37 30 33 37 28 32 30 29 29 27 23 26 29 33 31
25 27 27 27 28 29 30 31 32 31 30 30 31 31 31 29 28 24 22 11 11 16 3 3 3 3 13 16 29 25 39 44 48 45 43 36 41 31 29 29 30 27 29 21 21 24 21
24 24 25 27 30 31 32 35 39 35 34 33 33 30 29 30 25 20 15 8 17 17 11 14 16 17 18 17 24 31 35 42 48 43 34 38 35 45 33 40 35 36 37 27 21 18 19
24 24 25 26 28 32 37 39 41 42 36 33 31 30 13 26 22 16 10 16 17 12 18 22 22 17 17 19 19 33 36 40 42 48 46 41 45 28 44 35 38 34 44 38 30 29 21
25 26 27 29 30 32 36 38 39 41 37 33 30 20 9 30 19 10 10 17 16 14 17 19 19 13 19 6 15 19 34 33 34 45 42 37 27 40 27 36 38 37 37 36 34 18 16
27 28 29 31 33 33 34 36 37 39 38 33 27 12 21 22 11 10 14 15 20 17 16 16 22 24 18 18 18 18 23 14 19 27 46 42 33 26 38 50 44 46 37 41 33 31 13
27 29 31 31 31 32 33 35 37 39 39 33 25 12 20 17 8 10 14 15 15 15 14 16 18 19 23 19 20 16 13 2 11 19 24 42 29 34 46 40 36 38 41 40 33 34 31
28 30 31 32 32 33 35 34 35 36 38 36 25 13 16 17 12 12 13 15 11 11 12 9 13 16 17 15 11 11 7 6 8 3 10 23 31 28 29 37 39 45 44 38 40 30 31
28 31 33 32 33 35 37 37 36 35 36 36 18 11 16 8 13 15 16 13 14 13 6 9 12 13 17 18 15 17 13 4 7 6 18 21 28 38 25 38 39 41 41 43 37 39 29
30 31 33 32 32 35 38 39 39 36 36 35 9 10 14 12 14 15 13 14 12 11 10 10 10 9 10 10 17 8 8 8 4 8 5 11 22 31 35 20 20 41 43 45 45 38 38
31 32 33 32 32 35 38 39 40 39 37 40 18 12 12 14 14 11 15 12 13 11 14 13 12 13 13 13 14 20 14 7 4 5 3 7 18 25 31 32 15 18 28 44 44 40 36
31 32 33 32 32 34 36 37 38 40 38 40 23 18 16 16 10 13 11 13 17 15 10 7 11 16 14 15 12 15 16 17 16 11 8 5 11 16 23 30 18 25 30 30 38 39 36
31 32 33 32 32 33 35 35 37 38 37 42 22 19 17 19 14 14 16 17 16 15 17 15 14 16 14 16 19 16 16 17 18 18 13 11 8 10 17 23 23 26 25 27 26 28 30
31 32 33 33 33 33 35 36 37 38 35 40 22 20 18 25 22 18 9 14 16 16 16 15 15 15 13 12 14 17 16 16 22 20 19 17 13 11 17 22 12 27 21 24 30 33 27
32 32 31 32 33 34 35 36 37 36 35 35 23 18 20 23 22 19 22 14 14 14 14 12 5 12 9 12 10 14 15 14 18 20 20 19 18 19 13 18 18 12 15 12 12 19 21
33 32 30 31 32 33 35 37 35 33 35 32 25 17 20 24 22 19 22 14 15 16 15 12 10 7 5 9 10 9 18 6 13 12 25 20 23 24 24 17 19 5 11 13 19 7 14
32 32 30 30 31 33 36 35 30 32 31 28 24 17 17 20 20 14 16 14 14 11 14 11 10 4 7 8 7 6 10 7 17 18 16 18 26 29 27 29 26 14 6 15 16 15 10
32 30 28 28 30 33 34 29 30 31 25 24 20 15 13 18 19 20 19 12 11 7 12 15 9 3 4 4 6 7 9 8 12 17 22 26 22 22 29 30 19 22 22 20 10 13 11

GFSGBSN_700_spd_036.txt.gz
Wind_Speed
15 15 16 16 17 18 18 18 18 19 19 20 20 21 21 20 20 19 17 17 18 18 19 19 19 20 19 19 16 18 9 18 21 20 24 29 28 27 27 20 18 19 20 11 4 7 3
16 17 17 18 18 19 19 19 20 20 21 22 22 23 22 23 22 22 20 19 19 19 18 19 19 22 23 22 15 24 20 15 19 21 21 28 28 26 23 23 21 18 18 16 23 10 9
18 18 19 20 21 21 22 22 22 23 23 23 24 26 26 26 26 26 24 21 21 20 20 20 20 22 26 14 16 14 20 15 16 18 22 24 25 26 26 24 21 20 21 20 16 15 13
19 19 20 21 21 22 23 23 24 24 25 26 26 27 27 27 27 28 28 25 24 22 22 21 21 22 27 20 23 21 19 19 20 19 21 19 24 24 26 21 22 26 22 23 20 20 16
20 21 21 23 24 25 26 26 26 25 26 27 28 28 30 31 31 30 29 28 26 26 24 23 24 24 25 24 25 21 22 18 21 19 21 19 23 27 25 30 27 28 28 29 24 23 20
21 22 22 24 25 25 25 26 26 27 27 28 29 31 32 32 33 33 31 30 27 27 26 26 27 23 20 17 15 26 25 21 23 21 21 25 26 30 32 35 39 29 28 26 26 27 25
21 22 22 21 23 25 25 26 27 27 28 29 30 31 32 32 34 37 35 26 25 29 26 27 19 25 11 9 18 21 29 25 26 26 29 29 32 45 42 37 34 27 27 29 27 24 31
22 21 21 22 24 24 27 29 30 30 29 29 27 28 30 31 33 35 39 38 35 31 41 31 34 36 29 20 18 21 26 32 34 37 30 29 46 37 32 33 34 34 31 31 27 29 26
21 20 21 23 24 26 28 31 32 31 30 29 28 27 27 29 28 28 25 36 40 40 41 48 33 38 28 32 32 23 31 36 38 39 38 43 29 31 33 35 36 39 37 32 29 24 27
20 19 21 23 25 27 29 31 33 33 30 29 28 28 27 24 28 28 25 31 34 31 25 33 19 18 34 35 40 30 32 37 36 42 40 38 34 29 36 37 36 39 36 33 31 29 30
20 21 23 24 24 24 29 34 36 35 31 29 27 27 28 26 28 27 30 28 23 21 8 7 9 8 7 41 10 41 34 37 41 36 43 47 34 36 34 40 34 37 31 33 32 32 28
22 22 22 23 25 28 29 32 35 38 38 33 27 27 25 24 25 25 25 19 14 7 9 10 4 13 8 25 35 8 39 39 37 36 37 42 34 34 32 28 32 29 28 30 32 32 27
24 23 24 25 26 29 31 33 34 36 38 39 32 28 25 19 21 21 17 14 10 12 14 22 27 22 15 13 27 32 33 46 49 47 44 38 44 37 35 29 30 31 31 23 21 24 17
25 26 27 28 29 31 32 33 32 33 38 38 36 34 27 22 20 17 13 11 11 14 24 25 28 30 20 16 16 30 33 44 46 45 36 39 39 48 37 42 35 39 40 26 21 18 18
26 27 29 29 29 30 31 32 32 32 33 36 41 33 13 13 23 15 10 12 10 14 19 26 29 20 20 18 16 21 39 43 46 49 51 42 44 36 43 35 40 38 46 39 30 29 23
27 28 29 30 32 31 31 33 34 34 34 36 45 24 3 17 28 8 8 17 18 16 21 22 23 26 29 30 30 25 15 37 38 41 45 44 28 39 38 37 38 44 38 35 37 21 20
27 29 30 32 33 33 32 34 37 38 36 36 42 16 14 26 12 10 14 17 19 22 23 23 24 26 26 27 25 27 14 3 4 21 40 47 43 33 38 49 46 41 39 40 33 32 15
29 30 32 32 33 34 34 36 38 40 41 34 39 19 15 18 16 9 14 17 20 19 17 20 18 19 17 22 24 23 18 16 15 14 18 37 45 43 39 45 42 42 45 40 30 33 32
29 31 32 33 33 34 36 37 37 38 39 40 39 21 7 17 13 17 17 20 17 17 11 16 16 19 21 21 19 13 24 12 17 12 8 15 33 36 38 36 46 51 45 44 37 33 32
30 32 33 33 33 34 36 38 37 37 38 35 38 20 11 9 10 16 19 18 16 14 13 13 14 16 20 20 17 17 22 18 20 17 15 16 20 36 27 37 34 45 45 43 42 39 30
31 32 32 32 32 34 36 38 38 38 38 38 28 18 15 13 14 17 15 16 18 19 19 14 14 18 15 19 17 18 19 24 14 12 8 7 17 23 37 35 25 40 42 43 50 38 39
32 31 32 31 32 33 35 35 37 39 38 38 34 26 18 18 13 15 15 15 16 17 19 19 19 16 16 18 16 16 19 19 12 14 15 6 10 15 28 28 24 20 41 43 44 42 35
31 31 32 31 31 33 33 34 35 37 39 38 37 19 20 20 17 14 12 15 17 18 17 15 20 19 20 20 18 17 18 23 22 20 14 8 7 9 27 21 25 27 21 40 41 41 35
30 31 32 31 31 32 32 32 34 35 36 36 35 23 25 26 16 16 19 18 15 17 19 17 15 19 18 22 20 19 19 21 22 18 9 9 10 9 17 14 17 23 21 20 20 38 37
30 32 33 32 31 31 31 32 33 33 32 33 32 22 22 29 22 19 20 24 20 15 15 20 19 21 16 17 20 19 18 16 22 20 14 9 9 9 7 12 11 14 17 27 19 18 22
30 32 33 31 30 30 31 32 32 31 30 32 31 22 20 26 22 20 18 21 18 12 12 12 17 14 13 11 14 16 15 9 15 22 16 13 12 9 8 10 11 12 17 14 23 21 12
33 33 31 29 28 29 29 30 28 29 31 33 30 24 20 27 18 21 22 18 13 11 15 11 13 12 8 8 9 9 16 10 8 20 23 20 16 17 14 9 9 4 12 12 16 7 10
32 30 28 27 26 27 27 27 28 30 30 30 26 19 20 25 24 13 17 18 12 10 13 14 12 11 7 7 6 6 8 7 8 9 4 21 23 22 21 22 18 14 4 8 7 12 14
29 27 25 25 26 25 26 29 29 28 25 24 23 15 18 19 20 20 16 14 11 5 9 9 12 9 8 10 11 7 14 11 13 9 5 14 9 15 23 30 22 11 8 2 3 7 9

GFSGBSN_700_spd_039.txt.gz
Wind_Speed
15 15 15 16 17 17 17 18 19 20 20 21 21 21 22 22 22 21 20 20 20 20 19 19 21 21 22 22 8 18 10 15 19 19 19 24 30 26 24 20 15 22 23 9 7 3 17
16 16 17 18 19 20 21 21 21 22 22 23 24 24 24 24 25 25 24 23 23 22 22 20 21 23 24 22 15 20 15 16 13 18 19 24 30 27 20 20 21 18 21 21 10 5 17
16 17 18 19 20 20 21 21 22 22 22 23 24 24 24 24 24 25 27 25 25 25 24 24 22 25 27 15 19 21 19 16 18 15 20 18 23 24 20 20 19 22 23 22 21 11 21
18 19 20 20 20 21 22 22 23 24 24 24 25 26 26 26 26 26 27 26 25 26 26 26 26 27 29 18 21 24 20 12 17 17 18 20 21 25 23 19 21 25 22 30 28 21 17
20 21 21 20 21 22 22 24 25 25 25 25 25 24 24 26 27 28 30 28 24 24 24 26 29 29 27 26 23 19 22 19 14 20 17 21 28 26 22 27 27 29 30 25 25 23 18
22 21 21 22 23 23 25 26 26 27 26 26 26 25 27 28 29 31 30 30 23 21 19 23 29 27 20 16 10 17 22 21 19 20 18 25 25 25 29 33 37 31 23 27 29 23 24
22 21 22 23 23 23 24 26 28 30 28 27 28 26 25 25 26 29 32 32 33 31 31 25 24 29 25 15 21 18 22 26 23 22 29 29 31 43 42 38 32 28 31 24 27 26 26
21 21 23 23 23 23 25 28 31 33 33 28 27 29 28 27 26 25 29 31 33 34 50 34 27 34 29 21 29 21 16 31 34 38 30 27 44 40 35 35 33 33 35 32 25 26 27
21 21 22 22 23 26 30 32 34 33 35 32 30 29 30 28 25 24 25 25 25 30 46 23 10 12 23 34 35 31 25 30 39 40 41 43 37 35 34 35 36 37 39 37 32 29 26
21 20 22 23 24 28 31 32 34 36 35 33 33 31 30 28 27 25 24 23 24 23 23 19 20 18 17 22 44 32 32 31 40 44 43 45 36 21 38 40 39 41 39 35 34 30 24
22 22 23 25 27 29 31 32 34 36 33 34 34 34 30 34 31 27 25 19 16 11 6 11 11 8 13 7 14 27 35 35 44 40 40 50 40 40 40 44 39 38 34 35 37 36 32
22 23 24 26 27 29 31 32 33 33 31 31 33 36 34 30 29 27 20 12 10 2 6 13 25 22 16 7 14 22 13 37 36 39 40 46 35 33 46 33 35 34 32 32 34 36 24
23 24 26 28 29 30 32 33 32 32 33 32 35 36 37 29 17 14 14 11 6 5 12 18 35 31 28 33 17 10 23 36 40 42 49 37 47 39 28 42 31 35 34 20 17 20 14
24 25 27 29 30 30 31 33 33 34 35 35 33 35 37 16 17 25 13 11 7 9 15 27 28 33 24 27 23 27 15 28 38 44 23 43 36 50 41 39 38 40 45 16 8 8 12
26 27 29 31 32 33 31 33 34 35 35 36 34 34 21 12 19 28 9 11 12 18 16 26 35 23 32 28 32 37 31 15 21 47 47 29 50 19 48 38 39 42 47 37 20 21 9
26 29 31 33 34 34 33 34 37 35 36 36 41 22 14 18 25 13 9 13 22 15 19 19 23 22 30 27 27 28 29 4 15 7 35 52 32 36 34 43 41 45 36 36 34 9 9
28 30 32 33 34 34 34 34 36 40 36 37 35 18 2 17 13 9 16 17 17 20 19 19 22 21 20 17 18 22 19 29 10 11 6 20 39 50 33 48 56 41 40 45 33 29 6
29 31 32 34 34 33 34 35 35 38 40 36 37 21 4 16 8 11 14 13 17 19 20 16 15 14 15 23 22 24 27 23 38 25 18 13 19 37 54 33 45 43 45 39 32 30 35
30 30 32 33 34 33 34 34 34 36 40 43 39 25 13 13 9 13 14 17 14 14 16 17 18 13 14 19 20 17 22 24 39 22 19 19 5 17 37 41 35 55 43 51 37 34 35
30 30 32 33 32 33 35 34 33 35 38 38 37 28 30 7 8 9 13 14 16 16 15 21 16 17 13 19 18 21 26 21 34 17 18 24 16 24 19 36 30 27 50 42 40 38 38
29 30 32 32 31 32 34 34 34 34 35 37 33 28 26 22 14 13 10 18 19 17 20 16 18 14 18 19 19 20 18 23 27 25 18 23 18 18 27 27 25 30 51 46 47 42 37
29 30 32 32 32 32 32 32 34 36 33 34 33 32 28 17 15 16 9 14 16 17 16 19 18 18 20 18 19 24 16 19 21 30 22 26 16 18 18 28 20 15 19 50 47 44 44
28 30 31 31 31 31 31 30 31 34 36 34 33 32 27 27 19 15 12 14 19 20 18 13 20 23 19 22 22 23 19 20 20 27 34 22 22 23 5 9 7 10 25 19 48 43 40
28 29 30 31 30 30 29 28 29 31 33 31 32 32 28 30 23 19 16 21 23 20 23 18 14 22 25 15 18 20 17 20 18 20 32 26 18 16 7 4 1 14 17 7 38 34 34
28 30 31 31 29 28 27 27 27 28 30 30 30 30 26 31 29 21 19 17 17 18 14 14 15 15 15 19 21 18 21 13 17 16 22 12 10 12 6 4 3 11 6 8 7 14 8
29 30 30 29 27 26 26 25 25 26 29 31 29 26 23 27 31 25 15 29 17 15 14 13 14 16 9 12 14 12 5 11 1 7 19 11 6 10 6 4 2 12 8 9 15 13 7
30 30 28 27 25 24 23 25 27 28 30 30 26 19 20 25 26 25 18 18 16 13 15 16 19 16 8 13 6 4 4 6 4 15 18 18 8 9 13 6 5 21 17 5 11 8 13
29 27 25 25 24 22 24 26 28 29 27 26 22 14 15 21 17 21 22 23 20 12 12 15 16 13 11 14 10 12 8 14 11 12 13 8 12 14 15 4 5 13 13 26 14 1 8
28 25 23 23 22 22 26 27 25 23 23 23 19 16 13 15 14 14 17 17 15 9 6 14 11 10 9 9 11 9 13 10 16 10 10 8 10 16 10 4 10 5 6 4 14 5 4

GFSGBSN_700_spd_042.txt.gz
Wind_Speed
15 15 16 16 17 18 19 19 19 18 18 18 18 18 19 19 20 21 21 22 23 23 22 21 21 21 19 17 5 13 11 8 16 17 18 21 27 28 28 21 20 20 11 5 12 18 13
17 17 18 18 18 19 19 20 20 20 20 20 21 20 20 20 20 20 21 21 22 24 25 23 22 24 23 15 12 13 12 14 11 15 19 21 25 28 27 24 25 16 8 13 19 7 19
17 18 17 17 17 18 19 20 21 21 22 22 23 22 20 20 21 21 22 23 22 23 24 24 24 25 26 10 18 16 12 15 18 14 18 16 17 30 26 23 22 18 17 16 21 13 10
17 16 16 17 18 19 20 21 22 23 23 23 23 23 22 24 25 23 23 23 24 22 21 23 25 26 27 18 21 19 17 16 19 20 16 16 15 27 30 29 28 22 22 24 25 19 14
17 17 19 19 20 19 20 22 24 25 25 24 23 24 24 24 27 25 23 24 26 22 20 20 23 25 24 22 17 18 20 16 15 19 18 22 23 31 31 28 27 29 27 21 28 28 23
18 18 18 19 18 18 19 22 25 27 28 28 24 23 25 26 28 27 26 26 27 25 21 20 24 19 18 13 17 23 21 19 21 20 24 28 33 36 39 36 35 26 21 24 27 30 29
19 18 18 18 18 18 22 25 27 29 28 30 28 26 26 26 28 28 27 26 30 31 29 29 21 25 13 17 25 18 22 23 24 22 34 31 37 46 49 44 37 28 21 22 27 25 24
20 19 19 20 21 23 26 29 31 31 30 31 29 27 25 27 27 28 28 30 28 30 37 18 21 5 17 25 26 26 23 33 32 36 29 29 44 42 43 40 33 32 27 28 27 23 21
20 20 21 22 25 28 29 30 30 31 33 32 32 30 28 28 27 27 27 24 25 26 29 11 15 17 20 14 32 24 29 31 41 41 39 41 34 40 42 41 34 36 34 34 32 24 21
21 22 23 25 26 27 29 30 30 31 32 31 30 32 32 31 30 27 22 21 19 23 16 5 13 14 22 17 4 30 24 31 32 45 39 42 39 16 41 40 38 39 43 37 34 28 25
22 23 24 25 26 28 30 30 29 29 30 29 29 31 29 34 36 27 21 18 17 13 3 12 10 15 9 13 16 16 23 33 38 38 39 49 40 38 37 48 37 43 37 38 36 32 30
23 23 24 26 28 29 31 31 29 29 30 28 29 30 31 31 21 21 18 15 10 4 3 7 19 20 21 14 16 12 8 20 28 39 44 43 32 29 41 30 40 33 30 31 33 33 21
24 24 26 27 29 31 32 31 30 30 31 30 29 32 31 13 10 12 10 7 4 1 17 17 26 31 25 24 21 20 16 17 3 22 41 41 40 36 30 40 30 37 31 23 14 15 11
25 26 27 29 30 32 32 31 31 29 32 31 30 31 21 6 13 11 6 4 6 17 16 23 28 28 21 30 19 25 20 23 10 8 12 37 36 44 40 40 39 39 40 18 13 5 13
27 28 29 30 31 32 33 32 30 29 30 31 30 28 16 14 19 15 7 3 6 17 21 29 32 20 26 25 24 28 20 7 17 19 14 10 41 31 42 43 41 42 48 44 20 18 9
27 28 29 30 31 32 32 33 32 28 30 32 31 24 14 12 12 7 8 7 12 16 21 24 22 17 22 17 20 25 18 6 15 12 24 12 14 30 30 39 44 47 36 39 39 7 5
28 28 29 30 31 32 32 33 33 33 30 32 30 23 13 16 13 5 2 2 5 13 18 21 17 19 13 15 17 18 9 20 14 25 17 22 7 34 27 38 50 38 47 35 33 29 7
29 28 29 30 31 32 32 32 32 34 33 32 29 20 19 16 10 7 8 12 8 11 15 18 20 16 12 14 14 17 15 18 32 35 30 18 13 16 34 44 19 52 32 40 27 19 29
29 27 28 30 32 33 32 31 30 32 35 38 34 21 24 14 6 12 16 16 9 10 14 15 13 9 13 13 11 15 17 22 23 33 19 21 8 12 27 34 33 23 41 39 44 33 34
28 27 28 29 31 33 33 31 29 30 32 33 33 28 24 6 12 16 19 17 12 3 12 14 13 11 17 14 17 18 20 20 21 23 34 26 18 18 17 17 10 21 33 38 40 35 34
26 27 28 28 29 32 32 30 28 27 30 31 29 28 26 20 15 13 12 11 11 12 13 5 10 10 16 19 19 18 19 15 15 20 29 24 16 12 26 27 22 22 16 30 44 43 38
26 27 28 29 31 32 30 29 29 27 27 28 27 26 28 21 17 16 10 9 15 15 19 19 16 15 14 17 20 22 15 15 17 23 20 28 20 28 17 15 18 13 20 27 36 47 45
26 27 29 30 31 30 28 28 29 29 28 25 26 28 27 27 24 18 15 14 20 21 22 14 21 18 20 20 21 27 28 19 21 19 21 22 16 22 9 8 14 7 3 13 31 42 41
27 29 29 30 29 27 26 27 28 28 28 26 25 26 25 29 26 25 18 13 14 16 20 18 10 15 14 10 11 18 21 23 21 20 21 21 17 16 11 3 6 12 12 13 14 23 26
28 29 29 28 27 24 24 25 26 26 28 27 24 22 22 27 25 24 23 20 21 13 11 8 9 19 19 16 19 18 13 9 18 21 16 12 13 10 5 7 9 11 9 12 11 16 11
29 29 27 26 23 22 23 23 25 26 28 26 21 17 18 21 22 25 22 20 20 15 11 7 8 10 7 9 19 9 4 6 4 3 11 9 7 15 9 4 5 16 4 10 25 21 24
30 28 25 23 22 22 21 24 26 25 24 23 20 13 13 20 16 18 21 18 18 17 13 9 11 10 11 14 3 6 5 2 4 7 11 10 8 11 5 1 6 24 5 5 13 8 13
26 24 22 22 21 21 23 24 22 19 21 22 18 12 10 15 14 17 18 19 17 15 10 10 11 12 9 13 10 10 9 14 10 23 14 5 3 7 3 6 4 11 18 23 16 12 9
23 21 21 22 23 23 22 19 14 18 20 19 14 13 12 15 15 17 21 19 10 8 5 8 9 9 11 10 12 9 12 17 16 9 23 14 18 9 6 8 9 9 19 22 10 7 11

GFSGBSN_700_spd_045.txt.gz
Wind_Speed
14 14 13 14 14 15 15 16 17 17 18 18 18 18 18 18 18 19 20 20 21 21 22 22 21 20 18 13 6 14 10 7 12 17 18 21 25 29 28 22 20 21 21 11 4 4 6
15 14 13 14 14 15 16 18 20 20 21 21 20 20 19 19 19 20 21 23 23 22 21 20 21 23 19 11 13 13 12 11 11 14 17 20 21 23 24 25 21 15 17 9 5 3 1
15 15 15 15 16 16 18 20 21 22 23 23 22 21 20 21 21 22 22 21 23 24 23 19 19 23 21 9 17 14 12 14 14 10 14 15 15 25 27 26 25 17 16 12 13 9 5
15 15 17 17 16 16 17 19 20 21 22 23 24 22 22 24 24 23 24 20 21 20 20 21 20 19 19 17 14 16 16 17 19 19 13 11 17 22 27 24 28 26 21 21 20 15 22
16 16 17 17 17 18 19 21 22 23 23 23 24 25 25 25 26 25 25 23 19 20 21 26 21 17 16 20 22 24 22 20 22 21 21 21 24 25 31 24 28 24 21 25 19 14 18
18 17 18 18 19 21 23 25 26 26 24 23 23 21 23 24 23 24 21 20 21 23 23 25 14 14 10 13 22 26 26 27 25 23 28 31 33 33 35 36 35 24 30 24 25 20 16
18 18 19 19 20 21 23 25 26 27 26 25 23 22 21 24 26 26 25 23 21 20 21 22 18 18 17 20 17 18 24 30 29 29 37 39 42 49 45 47 41 22 27 31 28 21 17
19 19 18 19 21 22 24 25 27 29 30 31 30 24 22 26 26 28 29 29 25 23 16 16 15 13 18 14 19 16 18 31 34 37 33 35 49 41 38 42 42 37 23 30 32 28 18
20 21 21 22 23 24 26 28 31 33 31 31 30 26 22 26 26 29 29 25 25 24 21 9 10 10 14 14 9 25 19 29 35 39 38 41 39 39 41 41 45 42 38 33 35 27 22
22 22 23 24 25 27 28 30 29 30 28 28 29 26 23 23 27 27 23 19 19 15 12 3 8 11 13 10 1 19 15 23 34 39 38 40 42 8 43 44 45 45 44 37 36 26 16
24 24 24 25 26 28 29 29 30 28 27 27 27 27 24 24 24 25 19 14 10 8 3 9 11 9 14 15 9 8 11 19 30 34 26 47 39 45 29 49 46 50 44 37 35 33 27
27 26 26 26 27 28 28 29 30 28 26 26 27 26 24 23 21 20 17 12 5 3 3 5 11 20 24 16 17 14 14 16 19 36 44 30 44 22 46 28 44 45 29 35 35 29 21
29 28 28 28 28 28 28 28 30 28 25 25 29 26 24 20 23 21 15 7 4 3 5 10 18 24 22 23 22 19 21 13 11 14 28 41 41 41 22 39 26 40 27 14 10 11 14
32 31 29 29 29 29 28 28 29 28 25 24 27 28 24 21 19 18 11 3 4 4 7 17 22 20 17 22 19 25 26 7 3 7 9 13 29 44 33 38 42 35 39 13 8 4 11
37 33 30 28 28 30 31 30 29 28 25 24 24 25 23 14 17 13 4 3 2 10 12 19 22 19 19 23 19 22 14 12 9 9 1 6 18 12 47 39 38 41 45 43 19 9 6
37 34 29 27 28 30 31 32 31 29 24 25 27 25 17 19 17 10 6 3 2 8 12 15 15 9 15 14 13 11 3 4 8 10 7 8 13 23 26 45 34 40 34 35 35 10 5
36 29 28 27 28 29 31 32 33 29 24 25 26 22 20 17 16 13 10 10 8 10 9 11 13 14 13 14 9 6 3 8 8 17 8 12 6 20 19 27 51 38 39 37 34 24 13
30 27 27 26 27 29 29 32 32 30 24 25 25 19 20 15 5 11 14 14 16 15 16 12 10 7 7 9 8 2 3 5 17 18 14 15 7 14 26 27 30 29 40 34 28 23 30
24 27 26 27 28 28 30 31 29 29 31 30 25 15 22 10 6 10 17 18 17 15 12 5 3 6 5 9 6 6 8 12 14 19 12 11 2 10 23 31 19 13 23 42 41 22 32
26 24 26 27 29 30 31 29 27 28 28 28 27 21 20 11 16 13 17 16 17 15 14 10 9 9 9 9 9 6 12 5 10 15 16 15 21 23 16 15 15 21 22 30 26 38 29
23 25 27 27 28 30 30 26 26 26 25 25 26 23 21 17 15 16 15 12 14 16 17 14 9 11 13 15 14 13 9 12 11 12 20 12 16 24 30 28 30 27 24 22 26 33 34
24 26 28 28 29 29 27 24 23 22 23 24 24 23 25 17 15 13 13 14 16 18 21 22 22 24 22 24 19 18 15 15 18 18 19 13 12 22 33 26 28 18 16 21 21 31 34
25 27 28 28 27 26 25 23 21 23 24 25 25 24 23 20 19 18 17 18 16 15 16 14 20 22 21 21 23 23 25 23 17 20 19 14 5 7 13 13 14 12 9 6 23 20 31
26 27 28 28 26 25 23 22 22 24 25 24 23 21 21 21 17 17 20 17 17 17 22 15 15 9 12 15 21 20 24 22 18 20 21 17 8 10 14 9 6 17 16 24 23 16 24
28 28 27 24 22 22 22 21 23 26 26 23 22 17 17 20 15 18 19 19 16 12 9 4 3 9 14 14 15 14 18 17 23 19 24 16 10 9 7 12 12 13 8 11 22 17 11
26 25 24 22 22 22 21 23 24 24 22 22 21 15 12 15 16 19 19 16 19 18 14 5 4 6 8 14 13 10 9 9 11 11 20 16 14 16 7 6 3 8 11 21 27 18 20
23 23 23 23 24 24 23 21 20 18 20 21 18 13 11 14 14 15 17 22 20 15 11 6 8 5 9 13 13 5 14 12 10 10 21 18 18 24 18 8 3 10 21 31 7 8 15
23 24 25 26 25 22 19 17 15 17 21 17 12 13 16 13 16 15 21 21 17 12 11 6 9 13 12 10 10 9 8 12 21 19 20 8 3 2 4 4 4 7 16 16 18 15 12
26 26 25 25 22 19 16 15 16 18 18 14 16 17 28 30 28 17 11 9 12 10 5 7 9 12 13 13 14 11 13 16 19 18 15 10 8 5 4 1 11 18 27 28 21 15 15

GFSGBSN_700_spd_048.txt.gz
Wind_Speed
13 12 13 13 13 14 15 16 18 19 20 20 20 20 19 18 19 20 20 20 19 18 17 17 18 17 14 10 13 11 9 6 10 17 20 22 23 25 26 25 21 19 20 18 9 3 3
14 14 14 14 13 13 15 16 17 18 19 20 20 20 19 18 19 20 21 21 21 19 17 15 15 16 14 12 14 13 12 11 9 14 19 19 19 19 23 25 24 18 22 21 16 11 8
13 14 15 15 14 15 16 18 20 21 21 20 20 20 21 20 20 21 22 21 20 16 19 15 16 14 13 16 14 14 13 14 14 12 14 14 17 19 23 26 25 13 21 23 20 12 7
16 15 16 16 17 18 20 22 23 24 24 23 21 22 23 21 19 20 22 23 18 13 17 20 20 15 13 12 17 19 17 17 17 19 20 18 20 20 21 22 26 28 19 22 17 16 13
17 17 17 17 18 20 21 23 24 24 24 24 24 23 25 23 21 20 21 22 19 15 17 19 13 10 6 9 18 20 22 20 21 22 22 22 25 26 24 20 24 22 22 25 17 19 14
20 20 19 19 20 21 22 22 24 26 26 25 24 24 24 22 21 22 21 22 20 16 16 16 12 7 7 11 13 21 24 23 26 27 26 29 30 34 31 32 28 27 32 29 29 20 19
20 20 21 21 21 22 23 25 26 27 27 27 25 26 24 22 22 24 25 25 23 16 18 13 12 10 11 13 7 15 22 25 27 32 35 35 38 44 40 36 35 28 23 33 30 20 15
22 22 22 22 23 23 24 26 28 29 31 30 28 25 27 22 21 25 26 27 22 14 7 11 9 7 7 8 4 15 15 19 31 35 32 35 46 39 36 35 37 29 24 26 34 28 20
24 24 24 24 24 25 27 29 30 31 32 30 27 26 25 21 20 23 24 23 19 13 11 8 12 12 10 3 1 13 17 17 27 32 36 39 39 42 39 39 38 43 29 30 30 27 24
28 28 28 28 29 29 29 29 29 29 30 29 27 26 22 20 18 19 20 19 12 7 5 5 7 11 10 2 5 8 7 19 20 27 31 32 39 11 33 42 39 40 44 32 24 17 13
31 31 30 29 29 28 27 26 26 27 30 28 26 26 23 18 19 20 19 17 9 9 2 5 7 13 13 9 9 7 12 10 15 22 22 37 31 38 23 29 40 41 37 41 35 30 23
32 36 35 32 30 28 27 27 27 27 28 26 25 25 23 20 20 20 15 12 7 3 4 4 8 12 16 12 12 17 15 13 12 19 29 31 33 27 33 38 22 40 3 26 28 28 19
37 43 38 34 30 27 27 27 28 28 28 25 23 24 23 20 19 18 17 11 5 5 2 4 10 16 19 19 17 15 18 17 11 9 18 28 39 28 32 21 34 26 27 7 10 10 13
39 43 35 33 29 27 28 28 28 28 29 24 21 22 21 18 15 17 14 6 8 5 6 11 14 16 15 16 15 16 17 11 7 8 9 7 22 42 27 39 27 37 37 15 8 4 16
43 45 32 28 28 26 26 28 29 29 29 22 19 21 18 14 14 15 11 6 5 7 7 10 14 10 6 16 16 13 13 6 3 4 4 6 12 25 41 38 28 31 43 40 14 6 8
45 38 28 27 27 26 27 29 28 29 25 21 20 21 16 16 17 16 11 6 8 9 11 11 10 8 11 14 13 10 4 4 7 5 6 7 12 19 26 40 41 33 31 35 32 6 5
43 29 27 26 26 27 28 29 31 26 22 21 22 21 13 18 14 10 9 9 11 12 12 9 10 11 10 9 8 5 5 7 11 11 11 12 9 14 24 26 44 36 34 31 34 30 6
33 28 27 26 26 27 29 29 30 25 21 22 22 16 15 17 9 6 9 12 14 13 15 12 11 9 9 8 5 6 9 9 10 17 15 13 8 16 28 23 27 33 29 39 25 22 32
26 28 26 26 27 27 28 28 28 26 25 24 22 18 18 13 8 11 12 14 16 16 16 13 11 9 7 6 4 9 7 11 14 13 7 10 7 9 10 27 23 20 27 26 28 22 41
27 26 27 27 27 28 27 26 24 25 25 25 25 18 20 10 14 14 14 11 7 11 13 13 13 15 12 12 9 7 9 9 13 14 12 11 12 19 14 8 8 12 23 21 17 24 21
27 27 28 28 28 27 26 23 23 23 24 25 25 21 20 14 12 11 10 10 12 14 15 16 14 14 16 16 15 15 12 11 14 15 16 16 18 19 29 31 27 27 22 18 17 23 17
26 27 29 30 29 26 23 22 21 21 24 24 23 22 21 14 10 6 10 18 14 14 16 18 22 26 23 23 21 14 14 16 18 16 18 20 14 18 25 23 24 31 25 17 15 19 26
28 29 29 28 26 23 22 21 20 21 24 23 23 23 20 15 13 12 17 16 17 14 15 13 16 18 18 17 18 19 20 22 26 22 19 21 17 12 7 9 12 17 26 14 13 14 20
28 28 27 26 25 23 22 21 22 23 21 21 23 22 18 17 11 14 18 15 12 14 16 15 9 10 11 15 17 20 21 19 22 26 22 23 15 13 9 2 4 9 15 15 16 12 21
26 27 28 28 26 24 23 22 21 20 21 21 21 20 17 15 13 15 16 15 17 13 13 8 3 10 12 15 18 15 13 19 25 23 26 26 19 9 5 2 2 13 16 20 19 10 15
28 28 28 27 26 23 21 20 19 20 21 20 19 17 12 15 16 15 19 20 19 18 14 8 6 13 13 17 18 10 10 10 8 10 24 24 22 17 5 2 6 11 11 23 23 11 14
29 27 27 26 24 22 20 18 18 18 19 18 18 17 18 15 16 14 19 18 17 16 14 11 7 10 11 15 16 5 7 13 7 14 24 22 24 23 15 3 7 10 17 29 13 11 14
28 24 23 24 22 22 19 18 17 17 18 18 17 27 25 25 25 21 17 16 16 14 13 13 8 15 14 16 9 9 6 5 4 22 24 21 14 9 9 5 5 4 20 21 20 20 16
27 24 22 21 22 20 17 18 18 18 19 20 18 21 30 33 31 32 30 26 10 12 10 7 10 14 15 15 16 13 15 21 16 8 14 1 3 2 2 4 5 13 25 27 25 22 18

GFSGBSN_700_spd_051.txt.gz
Wind_Speed
13 14 14 14 13 14 15 16 18 19 20 20 21 20 18 18 18 18 17 18 17 15 13 12 12 10 9 10 12 11 11 6 11 16 20 19 19 20 23 23 18 12 15 17 18 12 4
15 15 15 14 14 15 17 18 20 22 22 21 21 21 20 18 18 18 17 17 16 14 13 13 12 11 8 11 14 15 14 12 9 15 19 18 16 16 21 23 22 18 18 21 17 11 8
17 16 17 17 17 18 19 20 21 21 22 21 20 20 21 19 17 17 17 17 16 11 11 14 13 9 7 10 14 15 16 16 15 15 19 19 18 18 20 20 20 18 23 23 19 13 9
17 17 17 18 18 19 20 21 21 22 23 24 23 22 21 22 20 16 16 16 16 14 12 12 12 10 5 6 16 16 17 17 19 19 21 20 21 19 20 20 22 26 18 21 25 19 15
20 19 19 20 20 21 21 22 23 23 25 25 26 24 24 23 21 16 15 16 16 19 15 10 7 6 3 3 10 18 19 18 20 21 24 25 25 26 23 19 16 22 15 23 20 20 18
22 21 21 22 22 22 23 24 25 26 26 26 26 25 24 23 22 16 16 17 17 21 16 10 3 7 5 6 6 14 17 20 23 24 27 29 30 30 29 27 23 20 25 18 25 18 20
22 23 23 23 23 24 25 25 26 26 26 27 27 24 24 25 24 17 15 18 19 14 12 8 7 3 4 6 4 8 15 19 25 26 31 32 34 41 34 33 25 24 20 18 25 15 21
24 24 24 24 25 25 25 26 26 26 26 27 27 24 24 26 23 17 15 17 19 13 11 9 9 3 2 4 7 8 11 14 21 30 30 31 39 32 33 32 30 25 17 20 22 18 18
26 25 27 29 29 27 26 26 26 26 27 29 28 26 23 22 18 15 13 13 14 13 6 7 10 7 5 3 5 8 10 13 15 25 32 36 24 37 33 33 34 34 27 20 15 18 18
27 28 32 32 31 28 27 25 26 25 26 26 26 25 21 19 16 14 12 12 12 9 4 6 8 8 2 4 6 5 7 11 15 16 26 29 35 15 19 35 32 30 35 27 23 9 19
28 33 34 39 33 27 25 24 24 25 25 25 25 23 20 18 16 15 14 10 8 5 4 6 10 12 9 4 8 9 9 8 11 17 20 23 27 33 31 19 29 29 26 35 27 19 14
33 35 37 39 30 27 24 22 23 24 25 24 23 21 18 16 16 15 12 9 5 2 6 6 8 7 7 9 10 11 13 13 10 14 22 24 25 28 22 32 11 19 11 13 22 27 25
32 35 39 38 27 24 23 21 22 24 24 25 23 19 18 15 12 11 11 8 3 6 6 6 8 8 9 12 11 10 10 10 9 6 17 21 30 24 22 18 23 23 20 9 9 13 21
33 34 36 31 26 25 23 22 24 24 25 23 19 15 16 15 12 11 9 5 8 7 8 8 7 10 8 7 8 10 9 8 8 7 10 9 16 23 24 31 18 29 29 16 12 12 16
34 29 33 27 26 24 24 25 26 27 24 17 15 16 16 13 11 11 9 7 5 8 10 8 8 7 4 5 8 9 8 8 8 6 6 5 12 17 27 28 30 23 39 34 18 9 14
35 33 28 27 25 25 26 27 25 24 21 18 18 19 18 10 11 12 11 8 7 8 8 10 7 7 5 9 8 9 5 5 5 6 6 6 10 18 18 35 33 36 24 30 27 19 14
30 28 26 24 26 28 28 27 24 20 19 21 20 16 10 12 12 8 7 8 9 11 12 9 9 11 13 11 11 8 6 6 9 8 7 7 9 10 16 19 30 34 27 28 31 30 14
30 26 25 26 27 27 27 25 22 19 20 19 18 14 13 14 7 4 5 8 10 10 12 12 15 14 15 12 9 8 9 10 8 8 9 10 7 10 18 18 23 27 32 39 28 31 38
22 27 27 27 28 28 27 24 22 21 21 21 21 14 15 10 5 9 8 9 11 16 18 13 12 11 14 13 8 12 10 13 12 10 5 4 3 6 12 21 22 15 24 32 37 26 32
27 28 29 29 28 26 24 22 20 20 21 24 21 16 19 10 13 11 9 6 3 8 11 12 14 15 15 15 15 8 15 12 12 10 11 7 10 8 15 11 12 7 12 24 27 31 31
29 30 29 27 26 23 22 21 20 21 23 23 22 19 18 12 11 8 7 8 10 10 7 10 13 17 19 14 18 20 17 16 15 14 12 10 11 12 22 27 30 33 26 20 18 25 27
30 29 28 27 26 24 22 21 22 22 21 21 21 19 14 11 10 5 12 14 11 13 13 14 13 14 17 23 21 13 18 21 15 14 15 15 11 15 25 26 23 28 29 27 22 29 22
29 29 29 29 27 24 22 21 20 20 21 22 20 18 15 12 9 14 16 14 12 12 15 15 12 16 19 15 17 16 27 29 28 16 20 20 14 10 21 16 16 21 33 27 20 18 22
29 29 29 27 25 22 21 20 18 19 21 20 22 21 16 14 11 12 13 13 15 12 14 12 8 10 7 9 13 16 18 20 27 30 23 21 21 13 19 19 8 15 16 22 19 21 26
30 26 27 26 23 21 19 18 18 19 19 22 22 19 15 19 17 15 17 14 12 11 9 6 5 9 13 13 15 14 17 20 25 25 26 27 22 12 9 12 12 13 17 19 11 12 24
27 25 25 26 22 20 17 17 16 17 19 21 21 22 24 24 21 18 17 16 12 13 8 8 9 10 12 14 16 10 9 9 9 11 26 26 27 20 17 8 5 13 17 20 21 6 19
26 25 23 24 21 19 17 15 14 17 17 21 22 28 32 24 27 28 19 10 11 10 9 10 9 14 11 13 13 8 6 15 7 12 20 26 26 26 24 14 14 6 12 22 8 9 15
26 25 23 21 19 17 16 17 17 16 15 18 24 28 26 31 35 36 34 24 10 8 10 13 11 20 17 14 7 7 6 3 12 9 15 16 15 15 15 10 11 7 16 17 14 18 16
27 24 21 19 17 13 17 20 23 20 18 17 17 19 22 26 27 32 37 32 23 16 10 13 14 16 17 18 16 11 11 15 14 9 17 11 18 7 10 9 12 12 16 25 24 20 20

GFSGBSN_700_spd_057.txt.gz
Wind_Speed
13 13 13 14 14 15 15 15 15 15 16 17 17 16 15 13 11 10 9 8 9 9 8 7 5 6 8 12 20 8 12 13 16 14 17 21 20 18 15 14 11 17 10 7 6 8 11
14 14 14 15 15 16 17 17 17 16 17 17 18 17 16 14 13 11 10 9 8 8 8 6 6 5 7 10 16 15 13 12 13 16 18 20 18 17 13 16 18 8 14 12 13 11 8
17 17 17 17 17 18 19 19 19 19 18 19 19 19 17 15 13 13 11 10 8 7 7 6 5 4 9 20 15 19 17 15 13 17 18 20 14 18 12 12 16 18 10 16 12 17 10
17 17 17 17 18 19 21 21 22 21 21 20 19 19 18 16 13 12 12 10 8 7 7 5 5 5 6 9 14 17 20 19 16 19 18 18 18 15 15 11 10 19 17 18 17 23 15
19 18 18 19 20 22 23 23 24 23 21 20 19 19 18 16 13 13 12 10 8 7 7 5 4 1 6 6 7 14 18 18 19 19 19 17 19 17 19 15 13 19 19 21 16 21 19
23 22 22 22 24 25 26 26 25 24 22 21 19 18 18 17 16 13 11 8 7 7 6 2 4 1 6 5 5 9 15 15 18 18 19 20 17 18 21 22 25 21 22 20 20 23 24
21 23 25 26 26 27 28 29 27 25 22 19 18 18 17 16 15 12 8 6 3 7 4 10 6 8 10 6 3 6 10 13 15 16 19 20 22 27 23 23 21 17 19 22 20 20 19
25 28 26 28 31 31 30 29 27 26 22 18 16 17 16 13 11 9 6 5 5 9 5 11 12 10 10 6 2 3 9 10 15 20 20 17 29 23 20 19 21 22 18 18 22 17 19
28 29 27 30 32 30 31 29 24 21 19 17 15 16 16 13 10 7 6 6 6 3 4 10 10 7 7 5 7 4 7 11 14 21 23 26 12 24 24 22 21 23 23 19 18 17 20
29 28 28 29 28 28 25 23 21 19 17 16 15 16 15 14 10 7 7 6 5 1 2 10 6 8 5 7 7 8 11 11 13 19 23 26 25 14 24 25 23 24 22 22 21 21 19
27 25 26 26 25 24 23 20 18 17 17 19 17 16 14 10 7 4 8 6 3 3 6 7 7 16 6 9 6 5 10 7 10 13 17 24 24 29 23 26 23 24 19 20 23 25 22
23 25 25 23 23 21 18 18 19 19 19 18 16 14 11 7 6 6 5 2 3 5 5 4 5 3 7 6 7 5 5 11 12 10 15 21 17 21 30 24 22 22 21 20 20 25 26
22 22 21 21 21 20 19 20 21 20 17 15 12 9 7 4 5 6 3 3 5 12 4 3 4 4 8 7 6 5 6 7 10 12 18 19 23 22 19 24 29 23 22 22 18 19 21
21 22 22 22 22 22 21 20 20 18 14 11 9 7 7 7 6 5 2 2 10 4 3 3 4 4 6 9 9 7 6 9 13 14 18 18 21 25 25 28 27 34 32 26 22 15 21
23 23 24 24 24 24 22 20 18 16 12 11 10 8 8 8 6 3 3 10 8 1 3 4 8 9 12 9 9 8 11 13 10 7 14 13 26 7 16 27 27 30 38 36 34 34 25
25 25 25 25 24 23 21 18 16 14 13 12 9 5 4 2 2 4 4 10 2 3 4 5 8 7 8 11 8 9 8 6 10 10 9 11 18 16 17 18 25 32 28 33 38 24 27
26 26 27 26 25 23 20 17 15 13 13 11 9 3 9 4 1 3 6 3 4 4 2 4 6 10 9 12 11 15 10 7 12 9 8 11 16 22 21 22 26 27 35 31 29 43 21
27 28 28 28 26 23 20 17 16 14 13 10 4 3 14 2 2 4 3 4 8 4 6 4 6 9 12 14 14 14 16 12 9 9 9 10 16 23 27 19 21 30 31 36 36 31 41
28 28 29 29 27 24 21 19 17 14 11 8 3 2 6 5 2 2 3 3 3 3 3 3 5 7 8 10 14 15 17 15 10 9 8 10 17 21 23 26 25 26 32 29 32 43 36
27 27 30 30 27 23 20 19 17 16 14 10 10 1 8 9 3 3 4 1 1 4 1 3 6 8 10 13 14 16 13 14 13 12 17 15 14 20 22 9 9 20 32 31 31 32 38
25 26 28 30 25 20 19 18 18 16 14 11 9 4 3 3 6 5 3 3 3 1 3 5 1 4 5 9 12 15 17 18 13 16 16 15 19 20 22 22 17 17 16 22 27 25 27
25 27 26 28 23 19 17 16 18 17 15 16 8 6 8 7 5 4 4 1 2 4 3 1 4 7 7 11 13 17 14 13 18 15 18 17 24 19 22 21 20 23 24 24 29 30 28
25 25 25 25 21 18 16 15 16 17 16 22 18 15 10 8 5 6 3 2 4 5 2 5 8 8 9 10 11 15 19 21 20 15 16 20 21 21 28 22 22 28 28 27 30 33 33
25 23 23 22 19 17 14 16 15 18 18 23 23 21 13 10 7 6 5 4 3 5 6 6 7 7 7 9 13 15 18 19 21 26 23 19 19 20 24 22 20 24 23 25 32 33 34
23 22 21 19 16 14 14 14 15 16 17 20 22 25 22 17 14 7 6 5 6 8 8 6 4 8 11 12 16 13 14 20 24 26 26 27 26 20 24 24 24 25 16 10 20 28 23
22 22 19 15 14 15 15 14 14 13 15 17 21 22 24 22 19 16 8 6 6 6 7 7 8 8 9 9 11 10 10 8 5 8 23 27 27 27 18 22 21 25 12 22 22 22 20
22 21 18 12 9 13 16 15 14 14 19 21 19 18 21 19 21 20 16 10 10 9 9 10 10 10 10 7 9 8 6 8 6 10 11 23 26 28 29 25 21 10 19 20 14 15 19
20 20 17 12 5 7 12 13 14 14 17 19 22 19 17 11 17 18 17 18 17 15 13 9 7 12 15 10 7 8 8 9 10 11 7 14 15 22 27 16 22 19 19 18 22 21 22
18 20 14 12 5 4 5 8 9 12 16 19 20 20 16 11 4 14 14 11 10 11 13 12 10 13 12 11 10 6 8 9 10 2 5 6 10 11 12 17 17 21 25 20 24 23 16

GFSGBSN_700_spd_060.txt.gz
Wind_Speed
15 15 15 15 16 16 16 17 18 18 18 18 18 17 16 16 14 13 13 12 10 8 7 7 7 8 9 10 12 5 12 14 15 14 16 20 20 18 18 14 14 16 17 14 10 8 9
17 17 17 18 18 18 18 19 19 19 19 19 19 19 17 17 16 14 13 13 11 9 6 6 6 7 7 9 25 14 9 12 15 15 17 20 18 16 14 15 15 14 12 15 10 13 9
21 21 21 21 22 22 22 22 21 21 21 20 20 20 18 17 17 16 13 13 11 9 6 5 5 4 6 11 18 15 15 12 12 17 18 17 15 16 16 14 17 16 17 12 17 12 15
22 22 21 22 23 24 25 26 26 25 24 22 21 20 18 17 16 16 13 12 10 9 6 5 4 4 5 11 14 15 17 16 12 16 16 12 16 15 18 13 14 15 19 20 18 12 16
23 23 23 24 25 27 28 28 28 27 25 24 21 20 19 17 15 14 12 10 9 8 6 5 4 5 3 5 5 13 14 14 15 16 14 15 17 16 13 19 17 17 20 20 17 20 16
25 25 27 28 28 29 30 30 29 27 26 24 21 19 18 17 15 12 10 8 5 6 6 2 3 2 6 5 4 6 13 14 15 13 15 18 18 19 21 21 24 17 19 19 19 20 20
27 28 29 29 29 31 34 32 31 28 27 22 17 16 16 15 14 11 8 4 2 8 8 6 0 4 8 7 5 2 9 12 16 14 17 19 20 24 21 21 21 19 21 19 18 23 19
30 29 29 29 30 31 30 30 29 27 24 20 16 13 14 13 11 9 7 6 9 13 4 10 14 10 12 6 3 5 8 12 17 17 17 17 27 21 17 19 19 22 21 20 15 18 19
28 26 26 27 28 27 28 26 24 22 19 16 13 13 13 11 9 7 6 6 7 8 8 11 8 7 4 9 6 6 10 13 13 17 21 25 12 20 21 20 21 21 21 18 17 14 18
25 23 26 27 26 26 25 23 20 19 17 16 13 14 13 9 7 1 3 2 5 6 4 13 11 10 10 7 9 13 8 12 17 18 21 25 22 13 20 25 21 23 19 21 21 20 21
24 23 24 23 23 24 22 21 20 20 19 18 15 14 10 6 3 5 16 4 5 6 5 11 11 14 10 11 6 6 8 9 11 14 17 23 25 25 24 20 23 23 18 18 21 25 25
25 25 25 24 24 24 24 23 23 22 19 16 13 10 7 2 3 1 2 4 7 3 6 7 6 3 7 10 8 4 3 10 7 10 14 19 18 23 26 24 19 21 21 20 20 23 24
26 26 25 26 26 25 25 24 22 21 17 14 11 8 4 1 11 3 4 3 4 11 7 5 7 4 7 8 8 6 7 9 8 8 15 15 20 19 16 22 27 22 21 22 18 17 18
27 27 27 27 27 26 25 23 21 17 14 12 10 8 7 3 3 3 5 2 8 6 6 6 5 3 6 10 7 5 6 10 12 14 17 15 16 22 24 22 22 30 26 24 16 14 18
28 28 29 29 27 26 24 22 19 15 13 12 12 7 8 6 3 5 2 10 3 9 5 2 3 7 10 9 6 5 8 12 8 6 8 12 21 19 13 22 25 27 33 33 32 32 26
28 29 29 29 27 26 23 20 18 16 13 12 10 5 6 9 2 4 2 9 3 6 3 3 4 5 9 10 9 7 10 2 8 7 7 8 18 15 12 16 18 26 27 28 32 22 24
27 27 30 29 27 25 22 20 18 17 13 9 9 9 10 13 2 1 5 1 4 7 6 3 5 8 6 12 7 8 9 4 6 11 6 11 14 23 18 16 19 23 25 31 29 34 18
26 26 29 29 27 25 22 20 18 15 13 9 14 5 16 3 1 2 4 4 4 5 7 4 4 5 7 10 12 10 11 13 12 5 9 8 14 19 22 23 19 25 29 28 31 28 30
27 28 28 28 25 23 21 21 19 16 13 10 10 4 10 6 3 5 5 3 1 2 3 2 2 3 6 8 9 11 14 14 13 8 7 7 11 17 21 20 25 22 27 30 29 34 37
27 27 28 27 24 22 20 20 19 17 15 10 17 3 7 11 6 5 2 2 4 7 3 3 4 6 7 8 9 11 11 9 11 8 16 16 18 20 24 17 13 13 24 25 29 34 30
27 26 26 24 22 20 17 21 20 17 15 12 12 6 5 7 7 6 6 3 2 1 4 6 2 3 5 7 7 10 12 12 12 10 13 13 21 23 26 29 22 20 20 20 29 32 34
26 24 23 21 20 19 16 16 17 17 14 19 7 6 7 8 8 3 1 4 5 3 4 2 3 6 7 8 10 13 13 14 17 14 15 14 22 22 27 25 24 27 24 24 24 23 32
24 23 21 19 18 16 16 14 16 18 20 19 18 12 8 7 7 5 5 3 4 5 2 6 7 6 5 8 10 13 15 17 19 17 18 15 16 17 27 23 25 32 28 26 27 26 24
22 22 19 17 16 15 13 12 14 17 19 19 21 17 12 12 9 7 6 3 2 3 2 3 7 6 6 14 15 15 18 20 20 22 23 24 20 18 20 19 16 25 23 27 32 31 27
20 20 18 14 13 13 12 12 15 17 19 18 19 17 14 13 9 6 5 5 6 8 7 6 9 10 11 13 14 10 10 12 16 23 22 26 26 19 18 22 21 22 15 12 9 21 19
19 19 16 11 9 12 12 12 13 16 19 21 17 16 18 10 13 13 11 12 7 6 8 9 8 6 10 9 7 6 6 12 4 5 20 27 27 27 20 19 16 25 13 12 13 16 23
17 18 14 10 6 7 9 10 12 16 19 19 21 16 14 9 12 13 8 10 11 11 7 8 9 8 10 9 6 6 5 9 5 9 9 11 20 27 25 21 26 13 12 18 17 20 23
16 16 12 10 7 5 6 8 11 14 18 19 15 18 13 8 8 11 14 12 13 13 9 9 6 11 13 7 4 5 6 7 10 12 12 10 8 16 21 21 20 15 16 16 19 26 27
14 15 12 9 9 7 6 7 9 12 15 17 17 15 15 8 2 10 11 9 9 10 11 7 9 8 13 8 7 3 4 7 10 10 6 5 6 6 9 10 16 18 22 25 30 33 32

GFSGBSN_700_spd_063.txt.gz
Wind_Speed
18 18 18 19 19 19 18 18 18 20 21 21 20 18 16 17 17 16 15 14 12 12 11 9 10 9 10 11 16 3 8 13 14 14 16 18 21 12 13 12 9 20 14 19 15 6 10
20 20 20 21 21 22 22 22 22 21 21 21 22 22 19 17 17 16 15 14 12 12 11 9 9 9 9 11 19 12 4 9 13 13 15 18 20 13 11 12 15 12 18 19 16 8 10
22 22 21 22 23 24 25 25 25 26 25 24 22 21 21 19 17 16 14 14 12 11 10 9 8 7 8 14 13 13 12 10 12 15 15 15 18 14 12 15 13 18 16 12 17 14 15
25 24 24 25 26 26 26 26 28 28 26 24 23 21 20 19 18 16 14 12 11 10 10 9 7 6 9 8 11 11 13 14 11 16 16 20 15 12 15 15 16 14 14 18 15 19 14
29 29 29 29 30 30 29 30 31 29 26 25 24 22 19 18 16 15 13 10 9 9 10 8 7 4 4 3 8 8 12 13 13 16 19 17 11 15 13 19 17 16 16 17 18 22 15
29 28 26 27 28 30 30 30 30 28 25 24 23 21 19 17 14 12 10 7 6 7 9 8 5 4 7 2 5 5 13 12 14 18 23 16 13 21 19 17 21 19 19 16 21 20 22
27 25 24 25 26 28 29 29 29 27 25 21 19 17 15 15 13 9 6 5 6 4 10 9 7 5 8 8 6 2 9 19 12 11 14 15 18 25 23 20 20 23 25 24 24 19 27
27 26 25 26 26 26 25 26 26 24 21 18 16 15 11 10 10 8 6 10 11 11 9 19 12 12 14 6 2 2 6 16 19 18 15 14 25 21 14 13 19 15 20 23 19 17 25
27 26 27 27 27 28 28 27 25 23 20 19 16 14 11 8 7 7 7 6 5 8 11 9 10 10 9 11 7 8 11 10 12 17 14 20 11 8 17 18 22 24 23 20 23 15 25
28 27 28 28 28 27 28 27 25 23 21 20 18 15 10 6 4 4 5 3 6 6 6 6 13 10 16 11 8 9 15 13 16 16 13 20 20 20 19 19 18 21 16 18 23 22 16
28 28 28 28 28 28 28 27 26 22 20 17 15 13 8 4 9 9 10 8 5 8 3 15 15 10 5 10 7 10 11 14 14 15 11 20 19 21 20 23 15 22 18 19 21 21 24
28 28 28 29 29 29 28 27 24 21 18 14 12 10 6 1 9 7 6 6 8 1 6 8 10 8 11 16 5 2 2 13 11 14 14 14 19 19 22 20 17 14 20 21 20 21 17
28 29 29 30 29 29 28 26 23 20 16 13 11 9 5 1 4 5 9 13 1 5 18 10 10 7 8 10 9 4 3 2 8 5 7 11 16 18 14 11 22 19 15 9 7 11 6
28 28 30 31 30 28 27 25 22 18 15 12 11 10 5 1 2 5 14 4 3 13 8 11 12 9 8 14 6 4 4 3 5 12 13 10 9 9 19 12 11 21 21 15 6 6 7
27 28 31 32 29 28 26 25 22 19 15 12 9 6 17 8 5 6 10 2 10 7 10 9 5 5 6 4 9 5 3 6 5 4 5 5 10 12 6 11 23 21 22 26 27 31 15
27 29 31 32 28 27 26 24 22 20 16 12 11 12 16 17 6 9 7 7 7 6 7 5 7 6 7 2 7 5 5 5 1 4 4 2 12 12 11 9 13 21 25 17 24 7 7
27 29 31 30 26 25 25 25 22 18 15 15 13 10 11 11 13 12 5 4 11 12 8 3 3 3 3 10 6 4 7 3 1 7 8 5 7 29 18 4 11 11 17 19 22 17 6
28 29 29 27 24 23 25 25 22 18 14 14 15 11 12 14 10 8 6 4 6 9 8 10 9 6 3 6 6 3 7 10 9 7 0 2 5 13 23 24 18 19 16 16 20 11 18
28 28 27 24 22 20 24 24 24 21 16 13 14 12 14 7 9 12 6 7 5 3 6 5 5 3 3 3 4 2 4 6 7 7 4 9 4 9 14 20 14 12 17 20 25 23 26
27 26 25 21 20 18 20 21 23 22 16 10 11 4 8 9 9 3 4 6 9 9 11 9 6 5 2 1 2 3 5 3 8 3 5 10 13 9 13 20 25 27 20 15 16 21 23
25 26 23 19 18 17 17 19 20 21 19 13 13 13 9 13 10 11 3 10 4 2 11 7 8 7 8 5 1 1 4 4 11 10 7 4 12 14 24 26 25 25 26 24 22 17 15
23 24 20 18 16 16 15 18 20 21 22 17 9 4 8 12 13 4 6 9 4 6 4 3 5 4 3 3 5 13 12 6 9 8 6 13 18 15 23 21 20 27 29 25 25 25 26
21 22 18 16 16 15 15 17 20 22 21 19 13 15 10 9 6 2 6 5 6 6 3 4 5 5 0 10 14 17 21 22 15 12 13 16 12 11 20 18 17 24 25 24 24 27 24
19 19 17 13 13 13 13 16 19 22 21 18 13 15 17 12 13 11 8 7 6 5 3 5 11 6 5 14 10 11 11 8 13 15 16 20 20 17 17 12 5 24 13 20 27 24 28
16 18 15 10 10 11 12 14 18 22 22 18 12 11 13 11 5 8 10 12 6 9 12 6 7 13 11 12 14 8 10 2 7 12 17 20 19 25 20 12 17 25 19 16 10 14 11
14 17 14 9 7 8 9 11 14 18 21 19 14 10 6 8 12 9 9 13 8 3 3 6 11 10 13 11 8 5 4 5 2 6 10 21 21 19 14 5 5 11 10 16 18 22 19
13 15 14 9 6 6 8 10 12 15 18 19 16 12 8 10 8 9 6 9 12 11 6 6 10 8 12 6 3 3 3 8 3 6 8 13 13 24 26 14 15 17 21 14 15 17 21
12 13 13 9 6 5 7 9 11 13 15 16 14 11 11 7 5 7 10 9 8 11 8 6 3 8 15 8 3 3 3 5 6 8 8 7 7 7 8 11 12 19 14 13 20 25 24
10 11 12 10 5 6 7 9 11 11 13 15 16 13 13 7 9 5 8 5 0 4 9 6 9 9 12 12 9 6 5 4 6 5 9 3 9 12 6 5 15 12 21 24 27 26 27

GFSGBSN_700_spd_069.txt.gz
Wind_Speed
17 18 19 19 19 19 19 20 21 22 22 23 22 23 22 22 20 19 20 18 16 16 15 14 12 10 10 10 12 8 14 17 15 14 17 19 22 25 22 14 15 10 2 6 9 14 9
22 22 21 20 19 19 19 20 20 20 21 23 24 23 23 23 22 20 19 20 18 15 16 15 13 11 9 10 13 10 9 15 16 14 16 17 16 19 22 19 17 4 8 10 12 12 12
20 20 19 18 17 18 18 19 19 19 19 21 21 22 23 22 22 21 20 19 18 17 15 15 14 11 9 11 13 19 12 12 14 13 10 13 18 21 26 18 9 6 7 7 5 4 15
23 22 21 20 20 20 20 20 20 20 20 20 19 19 20 21 20 20 19 19 17 16 16 15 14 11 8 12 14 16 19 14 16 17 16 17 22 20 21 13 9 8 8 6 3 6 12
22 20 20 21 21 22 22 22 22 22 20 19 18 17 19 20 18 17 19 18 17 15 15 15 13 11 8 11 10 13 14 16 16 20 23 26 24 21 16 13 11 9 7 2 4 12 11
22 21 22 22 22 23 23 24 24 24 23 20 17 15 15 18 16 13 16 16 15 14 15 15 14 9 9 8 7 9 16 20 18 24 29 31 25 21 20 15 10 8 10 6 3 6 9
24 24 24 24 24 24 24 24 24 24 24 21 19 16 14 15 13 9 12 11 12 13 16 16 14 12 15 12 5 3 14 21 18 27 33 31 26 27 24 19 18 14 12 10 5 3 12
24 23 23 24 25 25 25 25 24 23 23 21 18 15 13 12 10 8 10 11 14 14 14 18 16 21 17 15 11 8 17 19 20 28 32 29 28 22 21 22 17 18 15 10 3 2 16
24 25 27 27 27 26 25 24 22 21 20 18 16 13 11 10 8 9 14 13 14 14 11 15 20 19 17 14 12 9 18 18 21 25 30 25 18 20 17 16 16 16 16 9 7 10 10
24 27 28 29 28 26 24 22 20 19 18 16 14 14 11 9 7 12 14 15 14 10 6 12 23 20 15 14 11 9 10 19 15 21 18 17 18 12 19 17 14 16 14 6 6 8 4
25 27 29 29 27 25 24 22 20 18 16 14 12 11 10 6 9 12 12 11 7 6 1 8 17 14 16 14 14 15 18 16 16 15 17 12 11 11 10 15 10 15 7 9 9 8 4
26 28 29 29 25 25 24 23 21 17 14 12 11 10 8 3 7 6 6 5 5 3 2 7 16 18 18 13 15 15 14 16 16 14 14 15 9 5 9 13 11 10 11 12 6 5 3
28 29 28 26 23 24 25 24 21 18 14 11 11 7 4 5 3 2 0 7 4 4 5 8 14 17 16 20 14 8 9 14 13 17 15 13 11 10 10 9 8 12 13 2 2 3 5
28 28 26 24 21 23 24 23 22 18 12 9 12 10 5 5 5 9 7 7 8 6 11 7 12 17 19 16 13 10 9 10 10 8 14 13 7 10 9 14 12 9 15 7 5 5 4
27 27 25 22 19 21 21 22 21 17 16 11 11 8 11 14 14 10 12 20 12 11 15 13 13 17 11 18 14 14 10 11 6 3 5 9 8 10 5 8 13 8 7 7 5 5 2
26 26 24 21 19 20 20 19 18 15 11 9 11 15 17 14 16 15 9 18 10 13 9 9 12 10 14 15 17 11 7 5 7 4 5 5 5 8 7 10 7 11 8 5 5 4 3
24 25 22 20 18 18 19 19 17 14 13 9 13 15 14 11 12 9 13 12 10 11 9 6 11 14 16 14 12 11 9 9 6 5 5 3 2 2 3 9 12 5 7 4 5 3 5
23 23 21 18 18 17 18 19 18 15 10 8 2 5 7 4 1 6 7 6 2 3 7 2 5 8 9 14 13 10 11 5 2 2 2 1 2 4 6 5 7 5 15 10 4 3 4
21 22 20 17 17 16 17 19 19 17 11 9 8 2 2 1 2 5 6 1 3 5 5 3 3 3 7 10 7 13 7 4 3 3 1 1 3 4 7 13 11 7 11 10 7 6 9
18 20 18 17 15 15 17 20 21 19 14 10 8 5 7 2 4 2 2 3 3 4 1 6 6 4 1 5 7 13 12 5 3 7 5 5 2 2 4 2 7 11 14 11 6 4 2
15 18 16 15 14 14 16 20 22 22 13 11 7 8 10 5 2 1 3 2 2 3 3 2 5 8 9 7 10 12 8 6 3 7 9 9 2 4 5 7 11 13 13 11 7 4 5
13 15 15 13 12 13 16 19 22 21 12 13 10 7 7 9 8 5 1 1 2 3 3 4 3 2 4 12 12 10 10 7 6 5 7 6 1 4 9 11 14 17 16 13 8 6 12
12 13 15 12 11 11 15 17 20 20 14 11 11 10 9 7 7 6 6 4 3 3 3 2 2 1 2 4 8 9 10 11 12 9 6 4 2 3 5 12 16 2 12 7 2 4 9
11 11 13 12 10 10 13 15 17 20 16 13 10 10 8 9 8 9 9 7 5 4 3 3 1 3 5 5 7 7 7 7 8 10 9 7 5 4 3 8 2 5 4 3 8 4 6
11 10 12 13 9 9 10 13 14 17 18 15 11 10 9 7 5 6 7 7 6 5 4 6 7 5 2 2 8 7 8 8 4 4 5 7 10 6 4 9 12 20 15 17 14 17 16
12 10 11 12 10 9 9 10 12 15 17 16 13 11 8 6 5 2 3 6 6 7 5 4 5 9 3 6 10 5 3 5 4 4 4 3 8 13 9 4 5 1 7 10 9 18 19
13 10 10 11 11 8 8 9 10 11 13 15 14 12 10 6 5 4 3 2 3 7 6 4 4 7 4 5 7 5 5 6 5 5 7 9 8 11 16 11 12 21 18 15 12 19 21
11 9 9 11 11 8 8 9 9 9 10 11 12 11 8 4 2 3 6 8 5 2 4 4 1 5 5 2 2 2 3 5 6 6 6 5 5 8 10 8 13 16 16 22 30 31 30
9 8 9 11 10 6 7 9 9 9 9 10 9 9 9 7 4 4 6 8 5 4 2 3 3 2 2 3 2 2 3 4 7 4 10 5 7 5 8 8 13 16 19 20 25 32 33

GFSGBSN_700_spd_072.txt.gz
Wind_Speed
18 18 17 17 17 17 18 19 20 21 22 23 23 24 24 23 22 22 22 20 17 16 16 14 12 11 10 10 13 8 14 17 16 13 17 19 23 24 22 16 14 10 4 1 4 9 10
18 17 17 17 17 17 17 17 18 18 19 20 21 23 24 24 23 22 22 22 20 17 15 15 13 12 10 11 12 11 11 16 16 14 16 17 18 21 20 17 14 11 7 3 2 8 3
20 20 20 20 20 20 21 21 21 21 21 20 20 19 21 23 22 22 22 22 20 20 17 15 14 12 11 12 14 17 12 14 19 16 12 15 18 25 24 14 14 10 7 3 3 2 8
23 22 21 21 21 22 22 22 22 23 22 21 20 18 17 17 20 21 22 20 19 19 18 16 14 13 13 12 15 21 16 13 19 21 19 17 21 26 22 17 15 11 6 1 3 2 6
20 20 20 21 21 21 22 23 23 23 23 22 20 17 16 17 16 16 20 20 19 18 17 17 14 14 12 13 15 17 18 15 18 22 24 23 22 25 23 16 14 12 5 1 3 6 5
21 22 23 23 23 23 24 24 24 23 22 21 19 17 15 15 14 14 18 16 18 17 16 16 15 13 12 13 14 16 18 19 17 24 27 28 28 27 23 18 11 12 8 7 8 5 6
22 24 25 25 25 25 25 25 24 22 21 20 18 16 14 14 13 12 14 15 15 17 16 16 13 12 19 18 14 15 21 24 22 25 30 32 31 33 25 15 13 13 10 9 4 3 5
23 24 25 27 26 25 25 24 23 21 20 19 16 15 15 14 12 11 13 13 14 13 12 15 14 16 22 22 18 13 22 23 24 27 29 31 32 23 18 14 13 15 13 9 4 6 10
24 24 26 27 26 25 26 24 23 21 19 17 15 15 15 14 12 10 12 11 11 12 10 11 15 22 21 17 13 14 22 15 20 25 29 32 18 21 19 19 18 17 16 13 6 5 4
24 26 27 27 25 25 25 24 21 20 18 16 13 13 14 13 9 10 11 11 11 8 6 8 21 21 20 17 13 10 20 16 17 22 21 19 13 20 18 19 18 20 17 12 4 3 3
26 27 27 25 22 24 24 23 21 20 17 15 13 12 12 11 8 6 5 8 6 3 2 5 24 19 18 17 16 15 18 14 17 21 24 12 25 12 20 21 16 12 11 8 5 3 3
27 27 26 23 21 22 22 22 22 20 17 16 14 12 9 8 4 3 3 6 3 3 0 5 18 16 17 12 20 18 20 14 13 14 20 14 11 12 11 14 14 8 6 4 4 5 2
27 27 24 21 19 19 21 21 21 18 16 17 15 12 7 8 5 3 1 7 3 2 2 7 14 18 21 18 17 17 18 17 13 15 16 17 11 9 10 9 14 13 11 4 2 2 5
26 26 24 21 19 19 19 19 18 17 15 16 16 11 7 8 8 5 6 4 5 5 9 10 14 18 17 20 18 15 16 19 15 14 16 13 7 12 10 12 12 12 16 5 5 5 5
25 25 22 20 19 18 18 18 17 16 16 15 11 10 12 12 8 12 14 20 10 9 11 9 15 18 17 12 13 17 16 13 9 13 9 14 7 12 9 13 16 12 13 14 7 6 5
23 23 21 19 17 16 17 18 17 17 16 12 6 9 9 11 9 7 10 17 11 13 10 7 12 9 12 12 12 11 8 9 10 10 9 11 12 9 9 12 14 14 13 11 9 3 2
20 22 20 17 16 15 17 18 19 17 14 9 4 3 6 4 3 6 14 6 10 13 11 9 13 15 14 13 13 10 8 11 10 11 8 12 8 6 6 9 9 14 13 7 12 6 6
18 20 18 16 14 14 16 19 19 18 14 9 6 6 2 2 6 4 6 6 7 8 7 8 9 10 11 13 13 10 13 9 10 9 8 7 8 11 15 13 10 7 12 12 11 7 6
15 17 16 15 14 14 16 19 20 18 12 11 9 7 8 9 5 4 6 3 5 8 4 2 5 5 7 8 6 15 13 9 8 7 6 7 7 10 9 5 5 6 10 8 10 14 7
15 14 15 13 13 14 17 20 20 17 11 10 9 8 6 4 3 3 3 5 7 7 4 3 7 6 5 2 4 10 12 8 7 4 6 4 5 4 8 7 7 3 3 5 6 4 5
14 13 14 13 11 13 17 20 20 15 11 11 10 10 11 8 0 2 2 4 6 4 2 3 1 3 4 4 4 9 8 6 5 5 3 1 2 3 7 8 6 7 9 9 8 7 4
13 12 13 13 11 12 15 18 19 16 12 11 11 10 10 10 8 10 5 4 5 4 3 2 2 2 1 7 7 9 9 6 6 5 5 2 7 7 5 4 4 7 9 10 13 15 15
13 12 12 13 10 10 13 16 17 17 14 11 13 11 11 10 8 7 7 6 4 2 2 1 1 2 2 2 5 8 9 9 8 6 4 3 5 5 6 4 2 5 9 11 12 13 18
13 11 11 12 10 10 11 13 15 16 14 14 12 9 9 8 8 8 8 9 7 5 1 1 1 0 1 2 5 6 7 8 10 9 8 6 6 5 4 2 4 11 12 7 8 9 10
15 11 11 11 11 8 9 11 13 13 14 14 13 9 7 7 6 6 6 7 8 7 4 4 4 4 2 2 8 6 6 3 2 2 4 7 8 4 3 4 3 12 12 11 11 14 16
14 11 10 10 11 8 7 9 11 12 12 13 13 11 7 6 6 4 2 5 7 7 4 2 6 8 3 7 8 4 4 4 4 4 6 6 7 9 7 3 4 4 7 7 10 21 19
13 9 10 9 10 8 5 7 9 11 10 10 11 10 9 5 4 5 4 2 3 5 5 3 4 6 4 2 7 4 4 5 4 5 7 8 7 11 11 6 5 12 10 9 10 11 12
5 8 8 8 10 6 4 6 7 9 10 8 8 8 8 7 4 5 7 8 3 2 3 3 1 2 3 2 2 3 3 6 6 6 6 7 6 7 10 9 9 10 15 22 23 26 29
6 7 6 7 8 4 4 5 7 9 9 8 7 7 7 6 5 5 7 7 6 4 2 2 2 1 1 1 2 2 2 2 5 4 8 5 9 4 7 4 7 9 12 15 19 23 25

GFSGBSN_700_spd_075.txt.gz
Wind_Speed
19 18 17 16 16 16 16 16 17 17 17 17 18 18 20 21 21 20 20 19 18 16 14 12 11 12 11 9 14 9 16 19 17 16 20 20 22 24 22 18 15 10 6 3 3 3 4
19 19 19 20 21 21 20 20 19 19 20 19 19 18 17 17 18 19 18 18 18 18 17 15 12 12 12 10 13 13 16 18 17 16 18 20 21 22 22 18 14 12 7 4 2 5 2
22 22 22 23 23 22 22 22 22 22 21 20 20 19 17 16 16 16 16 16 17 17 17 17 15 13 12 13 14 16 17 20 20 17 16 18 21 25 22 16 16 12 7 3 3 4 7
20 20 21 22 23 23 23 24 24 24 23 23 22 20 18 15 15 15 14 14 14 15 16 17 16 13 15 14 16 19 16 21 24 22 21 19 22 26 18 18 16 11 8 4 2 8 11
20 21 22 24 24 23 23 24 23 23 22 21 20 19 19 16 13 14 14 12 12 14 15 14 15 14 15 16 18 21 18 16 23 25 25 24 24 29 21 17 13 14 8 5 7 10 9
21 22 23 24 24 24 23 23 22 21 20 18 18 18 18 17 14 14 13 12 12 13 14 13 15 13 13 18 20 20 21 20 21 28 28 28 27 29 23 22 15 13 10 8 9 11 8
22 23 23 24 23 22 23 22 22 21 19 18 18 16 14 13 13 14 13 11 11 12 12 13 12 18 17 23 24 21 21 23 23 28 31 31 30 33 26 22 8 12 13 11 10 9 4
23 24 25 24 22 23 22 23 23 21 19 18 16 15 13 13 12 13 13 10 10 11 9 12 15 18 21 26 23 23 25 24 26 29 32 30 29 29 24 17 14 11 14 11 6 6 3
24 24 25 23 21 21 22 22 22 21 19 16 15 13 13 13 11 9 9 8 8 7 9 8 17 21 23 25 19 20 27 21 22 29 31 28 19 27 23 17 17 16 12 11 7 3 2
24 25 24 20 18 19 20 22 22 22 20 17 15 13 13 12 7 6 6 7 6 7 5 7 16 22 23 23 17 15 19 16 19 24 24 18 7 26 23 18 18 16 17 12 8 3 3
24 25 23 20 18 18 20 21 21 21 20 18 15 12 9 7 4 2 2 4 3 4 2 1 20 22 24 20 17 19 20 11 15 21 18 12 19 27 21 19 18 12 13 12 8 6 5
23 24 22 20 18 17 18 19 20 20 20 19 17 12 7 6 2 0 2 2 2 2 0 4 18 23 23 15 19 21 22 14 14 16 14 8 23 15 15 19 16 12 12 11 8 8 8
23 23 21 19 18 17 17 18 20 21 21 21 17 11 8 7 6 2 1 4 2 3 3 5 14 22 20 15 19 23 21 20 14 20 20 15 15 19 14 17 19 18 14 8 7 6 6
21 21 20 17 16 16 16 16 18 19 19 18 12 9 9 8 7 7 7 7 7 5 7 7 15 20 18 19 23 24 21 16 14 15 19 17 10 13 15 17 16 22 17 10 10 8 9
19 21 18 15 15 14 15 16 17 17 17 14 6 7 8 8 8 10 10 13 8 11 6 8 17 18 18 18 20 19 17 13 12 17 12 13 7 12 13 17 19 22 20 14 6 9 12
17 18 17 15 14 13 15 17 18 17 14 10 4 3 2 5 6 8 12 13 10 12 10 7 10 12 17 20 19 15 11 11 11 15 15 13 10 10 14 15 16 19 20 15 7 9 9
16 15 16 14 12 13 15 18 19 18 14 8 4 4 2 2 4 6 2 11 11 12 10 5 12 14 17 15 20 13 9 10 12 12 10 16 11 8 12 10 14 16 18 14 15 6 7
15 13 15 13 12 13 16 19 20 18 12 9 6 4 6 6 4 4 8 6 8 6 6 9 11 14 15 16 15 11 16 9 12 11 11 6 11 10 15 13 12 14 18 16 17 8 5
14 12 13 13 12 13 16 20 19 14 11 11 9 8 6 4 1 4 4 6 7 5 4 5 4 8 13 14 9 17 16 15 13 9 8 10 9 10 6 6 8 7 11 15 13 16 9
15 11 12 13 12 12 16 18 17 13 10 9 8 9 8 6 3 5 4 2 3 4 3 6 8 7 8 8 8 15 16 12 12 9 9 7 11 5 6 7 9 7 8 7 10 6 9
14 11 11 12 11 12 15 17 15 12 11 10 8 8 9 8 5 3 3 3 3 4 4 6 6 6 5 7 9 14 13 13 11 10 8 6 7 6 6 6 8 8 9 7 5 7 4
15 12 10 11 10 10 13 15 14 13 12 11 8 8 10 12 10 11 7 8 8 7 6 6 5 6 7 8 8 15 13 11 9 9 6 5 8 8 8 8 9 12 16 16 12 10 9
14 13 10 10 9 9 11 12 14 13 12 10 10 10 10 11 11 10 10 8 6 4 5 4 4 6 8 10 11 11 12 10 8 8 7 5 10 10 5 7 5 8 14 14 15 14 12
14 14 11 9 9 9 8 9 11 12 12 11 10 10 9 9 9 9 9 10 8 6 4 4 3 2 2 5 7 8 8 8 8 9 8 7 9 9 7 8 4 7 12 14 14 11 11
14 19 10 8 8 8 6 6 8 9 11 11 10 9 7 7 7 7 7 8 9 7 7 7 5 4 0 3 8 7 6 4 4 7 9 11 11 7 6 11 4 11 17 15 14 11 14
20 18 10 6 7 7 5 4 5 7 7 8 9 8 6 5 7 6 4 4 6 6 4 3 5 4 4 9 7 5 4 6 5 6 9 11 11 9 9 4 6 6 16 14 11 12 16
19 9 4 5 7 6 5 3 3 5 6 6 6 7 7 4 4 5 6 2 2 4 4 2 4 5 5 5 8 5 6 9 7 9 11 10 10 10 9 5 5 10 13 12 7 6 5
12 3 3 4 7 5 3 4 3 5 5 6 7 5 5 4 1 2 2 6 2 1 2 2 1 2 3 1 4 3 4 8 8 9 9 12 10 10 12 7 9 14 16 14 14 14 15
5 3 2 4 6 3 3 3 5 5 7 7 7 6 5 4 3 2 2 1 3 1 2 1 1 0 0 1 2 2 3 5 7 5 12 9 11 7 9 9 8 10 13 14 16 18 21

GFSGBSN_700_spd_078.txt.gz
Wind_Speed
17 18 18 18 18 18 18 17 16 15 15 14 14 12 12 13 13 13 14 15 16 17 16 14 11 10 10 11 15 14 20 20 19 17 21 22 22 17 13 14 11 8 3 3 3 5 8
19 19 20 21 21 20 19 19 19 18 17 15 14 13 12 11 12 12 11 12 14 16 16 15 13 12 12 13 14 13 20 22 20 18 20 21 23 17 15 13 10 8 4 2 2 5 6
19 20 20 21 22 22 21 21 21 21 20 18 16 15 14 12 13 12 10 10 11 14 14 14 13 12 14 18 16 18 19 23 21 18 19 21 22 21 13 11 12 11 3 3 1 9 9
19 20 19 20 20 21 21 21 22 22 20 19 18 16 15 12 12 12 11 10 8 11 13 14 13 13 16 17 18 19 21 26 25 23 22 22 22 17 12 18 15 10 8 9 3 10 10
19 19 19 21 21 21 21 21 21 20 19 18 18 18 17 14 12 12 11 11 10 8 10 12 12 14 14 18 21 22 22 25 27 26 26 24 23 17 18 15 14 15 15 9 8 10 11
20 20 20 21 19 19 20 21 21 20 19 18 17 16 15 14 13 14 11 9 9 8 8 10 12 11 13 20 22 24 24 26 28 28 25 25 17 19 19 21 22 20 13 11 9 10 10
22 22 21 20 17 17 19 19 20 20 20 19 16 14 12 12 12 13 12 9 8 8 8 11 11 15 15 23 24 27 24 25 27 27 20 23 21 28 27 22 10 16 15 12 10 12 9
21 22 21 18 17 17 17 19 19 19 18 16 15 13 11 10 10 10 8 5 5 8 8 11 15 23 19 23 27 26 26 22 27 26 21 20 25 21 23 21 15 16 17 13 9 10 8
21 22 21 17 15 15 17 18 19 19 18 17 15 12 10 11 10 8 6 4 3 6 8 10 16 20 19 28 22 28 27 17 23 25 26 21 15 21 25 22 20 18 19 15 9 8 6
21 22 20 17 14 15 16 17 18 17 18 17 16 14 10 9 7 5 2 2 2 3 4 7 12 22 23 24 17 22 24 16 19 24 21 19 13 23 24 22 24 21 17 13 12 10 11
20 21 19 17 15 15 15 16 17 18 19 19 16 13 8 6 5 3 3 1 1 1 5 1 10 16 17 24 19 21 25 16 17 21 20 18 18 22 24 21 22 16 17 13 12 13 8
20 19 18 16 14 14 14 15 17 19 20 19 15 12 8 7 5 4 3 1 1 4 2 2 11 20 22 18 17 25 24 15 14 18 18 13 18 19 20 19 19 15 14 14 12 13 15
19 18 17 14 14 13 13 15 17 19 20 18 12 11 7 8 5 3 1 5 4 4 3 4 9 20 20 17 18 26 26 17 15 23 23 14 21 17 17 19 19 17 21 19 13 10 10
18 16 15 13 12 11 12 14 17 18 18 15 9 9 7 9 4 5 8 2 1 5 2 2 5 19 17 18 20 23 21 18 11 16 24 22 18 18 16 20 21 24 26 20 13 12 15
16 13 13 12 11 12 13 15 17 17 16 13 6 6 5 9 6 4 3 1 3 5 4 2 11 17 16 15 18 21 14 13 12 15 17 23 12 18 19 21 17 25 26 15 10 14 13
15 12 12 12 11 12 14 17 18 17 14 11 5 3 5 4 3 5 1 6 4 2 6 11 6 11 18 17 20 17 12 8 7 21 11 13 13 12 16 19 20 18 22 16 15 14 13
15 13 12 12 11 12 15 18 19 16 12 9 6 3 6 6 4 3 3 5 1 8 7 7 8 7 12 13 15 10 6 10 16 16 17 12 12 10 17 10 14 16 17 18 17 10 15
16 14 12 12 12 13 16 19 17 14 11 9 6 3 7 8 2 1 5 7 11 0 8 8 15 14 11 10 10 7 10 11 16 17 10 14 9 15 11 14 19 18 10 19 19 15 13
17 14 12 12 12 12 15 17 15 12 10 9 5 6 5 8 3 3 8 6 5 8 8 3 6 15 17 18 7 13 14 16 15 17 12 15 11 14 11 7 13 9 8 11 17 10 20
19 16 13 12 12 11 14 16 14 12 11 9 6 2 6 5 6 5 5 3 2 5 10 9 8 11 12 13 10 14 14 13 11 10 11 8 7 4 9 9 12 9 6 9 10 19 13
19 16 14 12 11 10 12 14 13 12 10 8 6 6 6 2 2 4 4 3 3 2 6 9 8 10 8 7 12 18 11 10 8 8 8 7 5 5 8 8 8 8 5 3 6 8 8
19 15 13 11 10 10 10 12 12 11 11 10 6 7 10 9 9 7 5 6 6 5 6 5 7 10 9 12 8 13 13 15 14 12 11 9 6 6 1 5 4 5 7 6 4 5 10
19 12 11 11 9 9 8 9 9 10 10 8 8 7 9 7 8 7 6 5 5 6 6 8 9 7 10 11 12 16 16 17 14 10 9 8 8 8 7 4 4 11 14 12 11 10 10
20 12 11 11 8 8 7 6 6 7 9 9 7 7 8 7 5 6 8 8 6 6 7 7 7 8 7 9 9 10 10 10 10 11 9 5 8 6 5 7 7 5 12 13 12 11 12
20 14 19 13 9 8 6 4 4 4 6 8 7 6 5 6 4 5 7 8 8 7 8 7 4 6 9 11 7 5 4 4 4 10 10 10 8 6 6 14 1 6 9 9 15 11 12
19 13 14 5 6 7 6 4 3 3 4 4 7 6 5 6 3 3 4 5 4 4 4 4 5 4 9 6 4 5 4 5 5 3 10 8 12 8 8 8 6 6 14 18 17 12 16
15 10 2 3 4 6 5 3 3 3 4 4 3 3 4 4 2 4 3 2 3 5 4 1 5 6 8 3 4 3 4 9 5 6 7 8 8 11 11 9 7 9 12 17 12 8 14
11 3 3 2 4 5 2 2 2 3 4 4 3 2 1 1 2 1 2 3 4 4 3 0 3 3 3 3 4 3 3 10 8 7 8 8 8 10 11 10 11 12 13 13 15 11 12
7 4 3 2 3 3 2 1 2 3 4 5 4 3 3 3 3 3 2 2 1 4 3 2 2 3 3 2 3 3 4 6 6 4 14 8 9 8 9 6 13 9 18 22 18 16 16

GFSGBSN_700_spd_081.txt.gz
Wind_Speed
16 17 17 17 18 18 17 16 16 15 14 13 13 11 11 12 11 12 12 14 15 17 18 16 15 13 13 14 14 11 19 20 19 21 22 21 20 16 12 12 12 5 5 5 4 6 10
18 18 19 19 20 20 19 18 17 16 15 13 12 11 10 10 10 10 11 10 12 14 16 18 16 15 14 13 22 16 19 22 20 20 22 20 18 16 14 12 13 8 4 2 5 6 4
19 19 19 19 20 20 20 20 19 18 17 15 12 11 10 9 7 8 7 8 8 11 15 16 16 15 15 15 18 18 17 21 21 19 20 19 15 17 10 13 12 8 7 6 7 8 9
18 18 18 19 19 19 20 20 20 19 19 17 16 13 11 9 7 7 6 5 5 6 11 14 15 15 12 22 16 18 18 23 23 21 18 18 17 18 12 13 15 13 10 13 8 13 11
19 19 19 19 17 16 18 18 19 19 18 17 15 13 12 9 7 5 5 5 4 4 7 11 12 14 9 15 17 18 20 22 25 21 17 19 18 18 17 18 16 17 19 15 12 13 11
20 20 19 18 15 15 16 17 19 19 19 19 17 15 12 10 10 8 5 4 5 4 5 8 10 9 16 17 18 19 21 21 22 21 19 19 15 21 22 22 26 22 20 18 17 15 12
19 19 19 17 14 15 15 17 17 19 19 19 17 15 12 12 11 10 9 5 11 13 7 10 7 9 4 12 19 20 21 21 20 20 20 21 21 28 27 27 21 17 20 19 15 16 16
19 19 20 16 14 14 15 16 16 17 18 19 19 16 12 11 10 9 8 5 6 10 11 13 16 15 12 16 19 19 23 23 24 24 21 19 27 21 20 24 22 18 23 13 11 12 10
19 19 18 15 13 13 13 14 15 16 17 18 17 15 13 10 9 7 6 5 6 7 9 8 16 18 17 17 17 23 26 21 23 25 27 22 19 20 22 25 22 20 18 17 13 13 13
20 19 18 15 13 13 13 13 14 15 17 17 16 13 11 9 8 8 4 8 7 6 5 13 12 16 19 18 20 23 25 22 20 26 25 22 15 24 23 26 25 26 21 14 13 17 20
20 18 17 15 12 12 12 12 14 16 17 16 13 12 7 5 5 3 7 6 6 1 6 5 8 10 19 24 16 26 24 22 19 21 26 26 25 22 25 27 23 23 23 14 17 17 14
22 16 15 14 13 12 12 13 16 17 18 16 12 10 8 7 6 3 1 2 4 6 2 4 11 16 21 23 21 23 25 22 16 20 23 21 22 21 25 23 22 18 22 20 16 18 20
25 15 14 13 12 11 11 13 16 18 18 15 10 9 7 7 2 6 4 3 7 8 2 3 10 17 24 26 21 24 28 26 24 25 27 21 23 21 24 24 21 21 20 19 15 18 13
26 15 12 12 11 11 12 14 16 18 17 13 9 6 4 6 2 3 6 2 11 5 2 4 8 16 23 23 23 24 27 25 23 23 24 25 23 28 26 27 22 27 29 24 14 14 19
24 15 12 12 11 12 13 16 18 18 15 12 8 4 1 6 4 1 2 5 6 3 4 6 10 16 17 19 22 25 26 24 25 24 24 29 25 20 23 21 17 29 32 30 20 21 22
23 16 13 12 12 12 14 16 18 15 10 9 7 2 7 5 1 1 6 7 2 4 2 9 14 13 14 16 17 24 18 8 15 13 8 11 22 22 17 15 20 14 27 30 18 17 17
23 17 14 12 12 13 15 17 16 11 8 7 5 2 10 10 1 8 7 3 3 5 8 11 10 9 10 17 15 18 16 11 10 12 7 10 21 18 17 22 24 18 20 28 22 24 14
22 19 15 12 12 12 14 16 12 9 7 5 3 4 11 10 7 4 1 1 2 2 8 4 13 3 10 7 4 10 10 4 19 10 13 9 10 17 22 17 15 15 21 24 24 26 20
20 20 16 12 12 12 13 14 11 9 7 6 1 1 6 3 10 5 2 3 6 2 3 3 9 10 6 8 9 6 3 12 19 9 8 10 11 14 11 11 18 16 17 15 26 22 16
20 21 16 13 10 11 11 13 10 9 7 6 3 2 6 4 1 1 6 4 2 3 7 2 4 18 6 8 3 7 7 13 15 13 16 14 11 12 8 25 24 23 16 15 15 18 16
20 21 15 12 10 11 10 10 9 8 7 5 3 1 5 1 2 2 3 3 3 2 2 2 1 7 14 12 4 7 5 8 7 9 9 9 10 4 3 6 13 21 18 16 19 19 10
20 21 11 10 8 9 10 9 7 7 6 8 3 3 7 5 5 4 4 3 5 1 4 3 7 5 6 14 9 10 7 4 5 7 4 4 7 10 8 5 8 10 10 9 13 11 8
20 20 11 9 11 8 9 7 6 6 6 4 6 5 7 2 4 2 1 1 2 2 3 7 7 8 10 7 18 12 11 10 9 4 9 6 6 8 13 8 6 12 13 12 11 11 14
20 18 12 10 9 9 7 6 4 3 5 6 5 7 5 4 3 3 4 5 4 3 5 3 3 5 10 10 9 5 6 6 5 7 7 5 8 9 10 4 11 5 10 11 14 13 10
20 20 15 12 8 7 5 4 3 2 3 4 4 6 5 2 4 5 5 6 7 8 5 4 3 6 10 6 6 6 7 6 8 7 8 10 11 11 18 14 6 5 7 12 17 16 13
18 17 10 3 4 3 4 4 2 2 1 2 3 4 7 5 2 5 3 5 3 1 3 4 3 6 11 6 5 8 9 8 6 5 8 9 12 13 11 17 15 10 12 12 15 20 19
18 13 4 3 2 3 4 3 2 2 1 1 2 4 6 4 2 5 4 2 3 3 1 1 3 6 6 3 5 4 3 7 4 6 6 11 11 14 13 11 6 7 9 7 12 10 16
14 4 4 5 2 4 2 3 2 1 1 1 1 2 3 5 5 3 3 3 3 4 1 8 4 3 1 2 3 3 3 8 5 3 5 9 8 10 13 13 13 9 8 9 12 11 15
7 4 4 5 3 4 1 2 3 1 1 2 2 1 4 9 8 5 4 4 3 6 3 2 4 4 4 3 2 2 3 4 4 4 7 6 6 7 7 5 8 9 6 18 11 12 13

GFSGBSN_700_spd_084.txt.gz
Wind_Speed
16 16 17 17 17 16 16 15 15 14 13 12 11 11 12 12 12 12 11 11 13 16 18 18 16 14 13 13 10 9 15 17 18 20 24 19 17 15 12 14 8 4 8 7 4 12 6
17 18 18 18 18 18 18 18 18 16 14 13 10 9 9 10 10 11 11 10 10 14 17 18 18 16 14 15 18 16 12 18 18 18 23 19 17 17 8 8 10 6 6 6 4 11 13
19 19 19 19 19 18 18 18 17 17 15 13 11 9 8 7 8 9 10 9 8 9 14 16 17 17 17 14 19 18 16 18 18 17 20 18 15 16 12 12 11 11 8 11 13 12 14
19 19 19 18 17 16 16 16 16 17 16 15 13 10 8 7 5 7 7 7 6 6 9 14 15 17 16 17 19 18 17 18 20 18 16 16 15 16 17 9 11 15 11 14 16 15 14
19 19 20 19 16 15 15 16 16 17 17 16 14 11 9 7 5 4 4 4 3 4 5 10 12 13 11 19 14 14 15 17 21 18 17 14 17 17 17 16 16 20 20 21 12 19 18
19 20 20 19 16 15 15 15 16 17 18 18 17 14 10 7 6 4 2 1 2 2 4 6 7 7 12 15 15 15 14 14 17 15 17 17 19 19 21 22 25 22 23 21 22 22 17
20 20 20 18 15 14 14 14 15 16 17 18 18 17 14 11 8 5 3 4 7 10 6 11 4 9 7 8 13 17 18 18 18 18 21 21 20 25 25 27 22 21 19 24 15 22 24
22 20 19 17 15 13 13 13 14 15 16 18 20 19 16 13 10 9 3 5 7 8 11 12 11 12 6 10 17 17 19 21 22 23 21 17 25 20 22 24 26 25 15 11 24 14 5
23 20 18 16 15 13 13 13 13 14 17 19 18 17 16 12 9 6 6 4 8 9 13 11 16 18 15 15 17 19 23 22 23 24 24 26 16 21 21 24 27 27 22 23 14 22 17
25 21 17 16 14 14 12 11 12 14 17 17 15 14 13 11 7 11 9 10 9 9 10 10 14 15 19 15 20 18 23 24 19 24 24 25 19 22 22 25 27 29 22 12 25 25 20
25 24 17 15 13 13 12 12 13 15 16 16 13 12 10 8 6 4 11 8 9 2 6 7 9 8 15 21 12 23 21 24 20 17 25 28 24 22 27 26 25 27 21 16 18 16 17
27 26 17 14 13 12 13 12 15 16 17 15 11 10 8 5 1 5 7 7 3 6 3 2 8 7 15 21 22 19 23 24 20 17 22 25 23 22 24 22 24 25 20 13 15 15 19
28 27 18 15 13 13 13 14 15 18 18 14 9 7 4 2 6 6 8 3 6 8 8 4 8 9 16 22 22 28 24 25 27 23 27 25 27 25 21 24 24 25 24 19 12 16 12
29 26 20 15 14 14 14 15 17 19 18 12 8 5 3 1 2 4 3 3 8 8 12 6 6 8 17 22 25 26 23 24 26 23 22 24 26 29 21 29 28 28 29 20 16 14 16
28 26 21 16 15 14 15 16 19 19 13 10 6 2 6 2 3 0 1 4 6 9 10 8 9 10 17 20 23 24 24 24 26 24 27 26 29 26 27 26 28 26 33 26 21 23 23
27 25 22 17 15 15 15 16 17 15 10 7 9 3 6 2 7 1 6 11 11 8 8 7 9 6 8 14 12 24 26 23 15 14 15 10 25 27 27 27 25 14 30 25 31 16 14
26 22 21 17 14 14 14 15 15 11 7 5 8 7 7 5 6 12 10 12 3 4 3 2 4 5 5 10 12 6 5 12 27 10 12 10 11 22 23 24 21 21 19 31 30 29 14
23 20 21 17 13 13 13 13 11 8 6 5 5 9 7 10 7 8 5 7 1 3 3 0 6 7 4 5 2 5 12 8 3 9 8 12 10 13 24 22 26 23 21 23 27 28 26
20 20 21 16 13 12 11 12 9 7 4 3 4 3 7 1 7 13 2 2 2 1 3 3 8 3 3 4 3 4 12 6 5 10 9 10 9 13 21 19 25 23 24 25 29 30 26
19 19 20 15 12 11 10 9 7 5 4 3 5 5 3 5 4 6 1 2 2 1 2 2 2 4 3 5 3 1 2 3 1 12 13 14 9 7 19 15 26 24 22 19 17 19 19
20 20 21 10 10 9 8 7 6 4 4 7 6 3 2 7 5 5 3 2 2 2 3 2 3 3 10 4 4 5 4 2 1 4 9 9 12 4 19 11 27 28 26 14 17 16 23
22 22 19 9 8 11 9 6 4 3 3 3 1 2 4 5 5 3 6 4 3 0 1 6 8 4 5 7 7 2 2 1 2 4 1 3 8 4 4 5 9 27 27 20 19 17 7
23 21 17 11 9 9 9 7 2 2 1 5 5 5 4 5 4 3 3 2 1 1 2 2 2 1 7 10 5 4 3 1 7 3 5 3 8 5 4 1 3 2 8 8 9 6 9
23 20 18 15 11 10 10 8 2 0 1 2 7 13 6 3 2 2 3 3 3 3 3 1 2 2 9 12 14 7 5 8 6 6 5 7 5 6 9 6 7 3 8 7 13 11 5
22 19 18 12 11 10 8 4 3 1 1 1 5 8 6 3 2 4 3 5 6 7 3 1 3 8 11 9 4 6 9 7 7 8 10 10 8 8 12 14 6 4 6 10 13 13 9
21 19 15 9 3 3 1 3 2 1 2 3 5 8 13 3 2 3 2 1 1 4 3 5 7 3 9 3 6 8 10 11 11 7 10 11 14 11 14 12 14 16 12 16 10 14 16
18 15 7 2 1 1 1 2 1 2 1 2 4 7 12 5 3 3 2 2 1 3 3 3 5 8 9 0 3 6 4 3 1 4 7 11 9 16 17 13 7 8 7 9 12 7 21
16 10 4 3 0 3 1 2 2 1 1 0 3 6 9 9 7 1 2 3 5 3 3 5 4 4 1 1 1 2 2 5 6 3 2 6 8 10 12 12 6 11 9 7 13 18 17
12 8 6 3 1 3 1 2 2 1 0 0 1 4 9 12 3 3 3 4 5 8 3 1 2 4 2 2 1 1 3 1 3 3 5 2 2 4 4 5 8 6 10 14 15 20 24

GFSGBSN_700_spd_087.txt.gz
Wind_Speed
18 17 17 17 17 16 15 15 15 14 13 11 12 12 11 11 11 12 12 11 12 13 17 18 18 16 15 13 13 8 13 16 16 19 23 24 21 13 9 9 12 6 4 10 6 13 18
18 18 19 19 18 16 16 16 15 14 13 12 10 9 9 9 9 10 11 12 10 11 14 17 19 18 17 14 17 18 7 16 17 16 23 24 24 14 5 7 13 7 3 5 2 5 10
18 18 19 19 18 16 15 15 15 14 13 12 11 9 9 8 9 10 9 9 9 9 10 14 18 19 18 13 20 17 13 15 18 15 21 24 22 13 11 7 11 9 10 8 9 7 15
18 20 20 20 18 15 14 14 14 15 15 15 13 12 10 7 7 7 8 7 7 6 7 9 14 17 16 17 19 17 9 13 19 18 19 25 17 14 16 13 9 11 15 15 17 15 14
20 21 21 20 18 15 13 14 13 14 14 16 16 14 11 8 6 5 5 5 4 4 4 6 11 12 12 18 16 17 11 13 19 19 20 24 12 14 17 16 15 18 20 19 24 25 13
22 21 20 19 16 14 13 13 13 14 15 16 17 16 13 9 6 4 3 2 3 4 4 4 6 4 5 8 13 15 12 15 19 22 24 17 16 19 20 19 22 23 25 20 15 30 21
24 23 21 19 16 14 13 12 12 13 14 16 17 16 13 10 8 3 0 2 1 5 4 3 8 12 6 5 7 14 14 13 14 16 20 21 20 26 26 24 23 22 21 24 22 13 28
24 25 22 19 16 15 13 13 13 13 16 18 18 16 14 12 8 3 1 3 2 5 12 11 12 15 12 8 11 13 17 20 21 21 18 16 24 24 22 20 23 25 21 10 13 18 24
27 27 25 19 17 15 13 12 12 13 16 18 16 15 13 11 8 5 6 7 8 13 19 7 15 18 15 9 15 17 23 22 22 23 23 26 14 16 21 21 25 25 26 23 21 16 7
28 29 28 19 16 14 13 12 12 13 16 16 14 13 12 11 6 6 9 11 13 12 15 10 3 14 15 11 17 15 17 23 18 23 22 23 22 19 20 24 24 29 23 23 20 16 15
30 29 28 21 15 14 13 13 12 14 16 16 13 10 10 8 6 2 2 5 10 5 5 2 6 6 8 20 10 18 16 22 20 17 24 27 19 23 27 24 24 28 21 18 18 19 11
29 29 27 23 16 14 14 13 14 16 18 16 12 8 8 6 3 4 10 8 5 2 4 8 7 4 9 17 17 15 22 20 23 22 19 23 20 22 22 23 21 24 21 16 10 20 16
28 28 26 23 16 14 14 14 15 16 18 15 9 6 5 3 3 2 6 7 4 4 7 7 3 3 11 13 14 18 26 20 26 18 23 20 26 25 23 20 24 25 23 8 7 7 9
26 26 25 21 16 14 14 15 16 17 17 10 7 4 2 2 2 2 10 6 5 5 14 10 12 10 11 11 20 19 23 23 21 24 16 19 22 25 23 26 26 28 23 15 7 7 10
22 24 22 21 18 14 14 15 16 17 12 7 6 1 8 7 8 6 5 3 3 6 6 15 17 15 17 9 18 23 25 24 21 26 26 14 26 19 25 21 24 26 27 25 28 21 12
21 23 21 21 18 14 13 14 15 14 8 5 8 7 2 9 7 4 4 10 5 1 8 9 18 11 8 8 7 8 10 24 20 20 22 20 15 25 26 22 21 29 17 26 21 2 4
22 21 20 20 17 14 12 13 13 10 6 2 6 9 10 12 16 8 7 15 8 4 5 8 7 7 5 2 6 6 5 3 5 14 7 11 6 18 27 31 29 28 27 18 17 17 4
19 20 20 20 16 13 11 12 11 6 5 3 5 6 7 4 9 8 11 8 3 3 6 2 4 6 11 3 5 4 5 11 2 6 9 5 5 15 14 28 16 21 24 21 9 14 11
18 21 19 21 12 10 9 10 8 6 4 5 3 4 3 6 5 9 2 3 9 3 3 3 2 3 6 8 2 2 4 21 10 5 5 8 3 8 12 14 20 17 20 18 20 20 25
20 20 20 18 10 8 8 9 6 5 5 6 6 10 3 11 6 2 4 6 3 3 1 0 1 3 2 4 3 8 4 12 1 8 12 2 4 10 8 10 11 18 22 21 18 16 6
19 22 20 15 8 8 7 6 3 4 5 7 11 9 6 9 3 7 7 4 2 4 2 3 4 0 4 5 2 3 4 2 6 1 3 7 13 13 20 12 10 15 24 24 21 8 5
23 24 20 13 10 7 5 6 3 2 5 6 5 9 8 11 7 5 7 5 4 3 3 10 7 2 7 4 5 3 9 1 3 5 10 14 4 11 9 2 8 14 24 26 17 3 6
26 25 20 15 10 7 6 6 2 1 2 1 7 10 3 7 11 3 3 5 3 5 5 4 4 3 7 8 6 6 5 5 3 5 8 8 2 7 11 8 11 8 13 16 12 13 12
27 26 20 16 12 10 7 5 2 2 1 4 8 7 7 9 4 4 3 1 1 3 4 8 6 2 9 9 9 5 1 2 4 1 6 6 5 2 8 6 4 5 5 6 7 12 12
25 23 19 15 10 5 6 4 3 2 2 4 12 8 6 9 6 6 5 7 13 13 14 13 5 12 6 6 3 1 2 7 6 4 8 4 2 4 4 9 4 11 7 8 7 13 11
22 19 14 8 6 4 3 2 2 2 3 5 6 11 5 8 2 2 9 3 4 4 8 18 13 6 14 7 4 3 2 2 5 6 10 12 4 6 6 2 3 4 4 9 15 16 15
18 15 10 5 3 2 3 2 2 2 2 5 8 15 7 10 2 1 4 3 1 4 7 5 14 9 11 8 2 3 2 2 1 7 4 3 3 2 5 2 0 5 10 3 7 9 18
13 11 5 3 1 2 1 2 2 3 3 4 8 15 9 8 1 1 1 6 11 2 4 4 5 5 3 2 2 1 1 4 4 5 2 4 3 6 7 6 7 10 12 10 9 17 19
9 8 4 2 2 0 1 2 2 2 2 2 3 10 14 10 2 7 6 2 8 6 3 2 3 4 1 3 0 3 4 2 3 4 3 1 3 2 2 3 6 8 11 16 20 19 19

GFSGBSN_700_spd_090.txt.gz
Wind_Speed
15 16 17 17 16 14 13 13 12 12 12 11 11 11 11 11 11 10 10 10 10 11 13 17 18 18 16 13 12 12 17 16 16 18 24 24 21 19 15 4 5 1 3 5 9 19 28
18 18 19 18 17 14 12 12 12 11 11 12 12 12 11 10 10 10 10 10 9 10 10 14 18 19 17 14 15 14 14 17 17 15 22 24 22 17 12 0 5 4 3 9 14 15 23
19 19 19 19 17 14 12 11 11 11 12 12 11 10 9 9 9 10 9 9 8 8 9 9 15 18 17 16 16 16 15 18 19 15 18 20 20 16 9 7 11 3 7 13 10 16 22
21 21 19 19 17 15 12 12 11 11 11 12 12 11 10 8 8 7 7 6 6 6 7 6 10 15 15 16 18 13 12 14 20 20 20 23 19 17 14 10 7 13 9 13 13 15 15
23 23 20 19 17 15 13 11 11 10 12 12 13 12 10 8 6 6 6 4 4 4 4 4 5 9 11 17 17 11 12 14 18 20 24 26 24 21 15 13 15 12 16 18 14 16 12
23 23 23 19 17 15 12 11 10 11 11 13 14 13 8 6 4 3 4 4 4 5 3 2 2 6 8 6 11 12 9 14 18 22 27 30 29 25 20 15 13 13 15 15 15 23 16
25 25 25 22 17 14 13 11 11 11 12 14 16 12 8 4 2 1 2 2 6 8 6 5 7 12 14 11 11 13 11 16 22 27 31 30 31 32 29 22 20 17 11 9 14 17 19
27 26 25 24 17 14 12 11 10 11 13 14 13 11 8 4 1 3 1 3 6 8 6 7 9 17 17 13 10 5 18 18 26 29 28 28 31 33 26 24 23 16 8 1 9 14 13
26 26 25 23 17 13 11 10 10 11 12 15 14 10 8 4 5 6 7 8 6 8 13 3 11 17 17 10 10 8 23 19 16 19 23 22 24 28 26 26 25 17 12 13 10 7 4
25 25 25 24 18 12 11 10 9 11 13 15 14 11 8 4 3 9 7 4 6 9 9 8 4 9 17 10 13 7 19 21 16 22 18 20 21 14 14 25 25 18 13 16 17 22 18
25 23 23 22 18 12 11 10 10 12 14 16 14 10 6 4 4 5 5 1 1 3 4 4 11 12 17 11 8 14 5 25 19 13 22 18 18 24 23 20 16 21 11 15 23 23 14
22 21 21 20 18 14 12 11 11 13 15 15 13 7 5 0 6 5 0 5 6 3 3 6 10 7 6 6 14 15 14 11 20 18 19 21 21 18 20 18 19 16 18 19 12 12 5
19 19 21 19 18 15 12 12 12 14 15 14 8 5 4 3 3 2 9 5 5 1 6 6 10 9 5 8 7 16 8 22 20 18 20 23 23 22 23 22 21 20 25 7 3 6 10
18 18 20 18 19 15 13 12 13 13 12 7 4 3 3 7 6 6 5 5 4 2 8 10 12 5 8 8 14 13 13 24 19 16 13 9 14 22 20 21 22 16 24 12 5 3 5
18 20 19 18 19 16 13 11 12 13 7 4 4 9 11 9 7 5 3 7 4 7 7 12 5 6 8 4 7 17 19 16 21 12 21 4 8 12 17 19 17 19 19 17 14 5 3
21 18 19 18 18 15 11 10 11 9 4 5 9 9 9 6 7 7 4 10 3 5 6 10 13 6 9 10 3 2 8 8 20 23 19 18 14 16 18 19 22 19 17 12 13 6 4
19 20 20 18 19 13 11 10 9 5 3 7 13 12 9 9 6 6 9 7 4 4 5 6 7 7 6 7 4 2 4 11 3 7 9 12 15 21 13 19 24 21 23 19 7 16 8
22 21 20 19 17 12 10 9 6 4 4 8 7 8 7 3 5 3 10 8 2 2 5 3 4 6 7 5 6 7 7 17 6 4 1 2 1 15 21 14 18 29 25 28 16 9 4
23 21 23 20 14 11 8 7 5 5 5 8 8 10 6 6 9 3 6 4 1 5 3 6 2 2 4 2 4 2 9 12 10 9 2 4 5 5 8 12 12 9 9 22 24 18 7
23 23 22 18 12 9 7 6 3 4 8 10 13 13 11 7 4 6 10 3 3 3 4 4 3 4 2 1 7 9 5 6 13 20 7 4 2 3 4 13 13 10 11 11 5 9 8
23 23 22 16 11 8 7 4 1 6 8 10 13 10 10 8 4 6 9 11 3 4 5 3 5 5 4 4 4 4 5 11 7 7 13 13 6 7 8 10 9 10 8 15 14 10 10
24 24 22 16 10 9 4 2 1 6 7 8 10 9 9 5 2 5 2 1 4 3 6 2 3 4 8 4 9 8 14 10 5 4 1 9 7 13 5 3 3 10 10 17 15 14 11
23 22 21 16 10 9 6 4 1 4 5 6 10 9 6 6 5 4 1 2 6 5 1 4 2 8 8 9 7 8 9 8 4 7 10 8 10 7 4 9 2 7 10 8 13 17 10
21 20 18 16 12 8 7 6 2 4 5 7 13 8 8 8 7 1 0 5 10 15 15 13 5 10 9 9 8 5 5 3 2 7 6 6 6 7 9 15 5 7 11 18 20 9 16
19 18 16 12 8 2 6 5 4 6 6 10 14 8 7 9 7 11 8 9 11 10 13 17 6 11 6 6 6 4 4 2 1 3 3 2 2 7 0 12 5 14 19 14 12 15 10
17 13 11 6 4 5 5 6 6 5 7 12 14 7 9 15 7 3 3 4 6 2 10 15 8 11 6 6 6 1 3 1 2 5 5 5 6 5 16 1 4 7 9 4 17 19 21
14 10 8 2 1 2 4 6 5 5 7 9 12 12 7 8 3 5 3 3 2 2 4 9 10 9 9 6 5 3 2 1 2 3 5 4 6 6 7 4 9 16 8 1 11 16 24
11 8 6 1 1 1 5 6 5 5 6 9 12 15 9 8 2 4 3 7 6 4 2 3 3 1 1 2 2 2 0 3 5 5 4 3 3 2 2 4 3 3 15 7 7 15 23
9 6 5 3 4 1 3 5 5 5 5 5 9 15 12 8 2 7 5 2 8 10 4 3 0 2 2 1 2 1 3 2 6 5 3 2 4 4 3 3 4 5 3 12 11 4 17

GFSGBSN_700_spd_093.txt.gz
Wind_Speed
19 18 18 17 16 13 11 10 10 10 11 12 12 10 10 11 11 10 10 10 10 10 11 14 18 18 16 13 12 12 16 17 17 19 25 24 24 16 11 5 4 1 0 6 12 25 28
21 19 19 18 17 14 12 10 9 9 9 10 11 11 10 10 10 10 9 9 9 9 9 11 15 18 18 15 15 12 17 18 18 17 25 26 23 13 13 8 3 2 2 4 8 22 32
19 20 19 19 17 15 12 10 8 7 8 9 9 11 10 9 9 8 8 7 7 7 8 9 11 17 18 18 18 18 13 18 20 17 20 24 23 20 13 6 2 8 4 8 8 19 26
20 20 20 18 16 14 12 10 9 8 8 8 9 8 9 8 7 7 6 5 4 5 5 6 8 13 15 21 18 16 15 12 20 22 25 28 24 20 13 7 6 8 9 14 12 19 22
21 21 20 19 16 14 12 10 9 9 9 10 11 11 9 9 8 6 5 4 3 3 3 3 5 9 13 16 14 15 14 15 21 22 28 30 29 23 14 11 6 6 9 13 13 16 21
22 21 20 19 16 14 12 11 10 9 10 11 12 12 9 8 7 5 5 4 6 5 4 2 4 7 11 16 14 15 15 15 23 25 30 31 27 23 18 12 7 9 8 9 11 17 18
23 21 20 20 18 14 12 11 10 10 10 11 14 12 8 6 6 6 3 4 6 6 7 6 5 11 15 12 16 15 13 18 26 27 34 32 30 29 24 16 12 10 5 6 6 16 21
23 21 20 20 18 13 11 10 9 9 10 12 13 11 7 5 4 4 2 1 2 5 2 7 6 17 18 16 17 17 16 21 28 29 34 32 32 29 23 20 14 12 2 1 4 9 11
22 20 19 19 18 14 11 10 10 10 10 12 13 10 6 3 4 6 9 4 3 4 6 8 1 18 13 13 13 12 20 19 25 29 33 29 27 29 26 21 18 14 9 8 2 8 4
20 18 18 18 17 15 11 10 9 10 11 13 13 11 5 3 6 8 7 4 3 4 3 8 5 17 16 11 10 7 16 18 19 25 24 25 27 22 26 21 16 17 14 7 7 12 5
18 16 17 18 17 15 11 10 10 11 13 14 13 10 4 3 10 9 3 1 3 5 2 5 8 15 14 9 8 9 11 19 13 13 19 18 14 21 21 21 14 21 15 9 14 18 12
17 16 17 18 17 16 13 11 10 11 12 14 12 7 4 3 10 5 2 3 5 1 3 3 7 4 11 13 10 13 13 18 16 13 13 20 12 10 15 14 12 11 8 15 6 13 5
18 17 18 17 17 17 13 10 9 11 12 13 7 4 3 5 6 3 7 6 3 2 4 6 6 3 9 7 11 12 17 15 22 18 17 17 21 19 17 16 14 12 6 5 1 3 6
20 18 18 18 18 18 13 10 10 11 9 6 3 2 2 5 7 7 5 4 2 3 5 6 6 4 4 4 7 12 14 12 20 14 8 7 10 19 17 20 14 14 15 11 6 5 4
21 19 20 19 20 17 13 10 10 9 4 3 6 12 6 5 4 2 2 3 2 3 6 7 5 4 4 3 1 11 14 12 16 22 16 8 9 12 16 17 15 15 15 16 21 4 5
22 21 20 20 20 17 11 9 9 6 4 8 13 9 9 13 13 6 4 5 8 7 6 8 8 7 6 4 3 0 9 10 17 17 20 13 14 16 16 15 18 19 12 13 13 5 4
23 20 22 22 21 15 10 7 6 3 6 9 11 8 7 7 11 9 8 8 4 3 4 4 5 7 8 7 5 3 6 8 12 7 9 15 14 13 8 11 15 19 21 16 13 8 7
23 22 22 22 18 13 10 7 3 1 7 12 10 8 2 1 4 11 8 3 2 1 4 2 4 6 6 3 3 4 10 11 10 9 4 4 10 17 18 15 10 13 18 20 14 5 8
24 22 22 21 16 12 9 6 1 3 10 10 9 7 2 3 5 7 5 5 3 2 2 3 1 3 7 4 2 1 11 16 14 16 3 1 2 6 9 13 9 10 9 17 22 20 11
26 22 21 20 15 11 7 5 1 4 9 10 13 13 10 7 4 3 5 7 4 1 1 2 2 5 4 4 4 4 6 13 13 11 20 4 3 4 3 2 6 8 2 5 11 24 18
25 22 20 19 14 9 5 3 2 6 11 10 12 12 6 8 6 5 5 3 5 1 1 2 5 1 3 5 5 6 6 7 11 9 17 16 11 8 4 3 4 7 7 4 8 9 19
24 21 19 18 12 8 3 1 3 7 12 9 10 10 4 6 3 5 1 1 4 6 7 2 6 3 9 3 6 5 4 9 2 3 4 12 16 19 9 10 5 2 7 9 7 9 14
23 20 20 15 10 6 5 4 4 8 11 13 11 8 8 7 3 5 2 3 5 4 6 4 6 6 8 9 5 4 8 7 4 4 6 18 8 9 6 11 6 5 4 8 10 8 15
21 18 16 13 10 7 5 6 5 7 7 11 13 7 8 5 5 4 3 6 8 9 12 15 5 10 10 7 13 3 3 5 3 1 2 2 10 5 4 5 3 6 3 10 10 15 19
20 16 12 9 9 7 5 6 7 8 8 12 12 9 10 4 7 10 2 4 8 6 10 15 3 11 11 11 11 9 5 5 3 3 1 1 1 6 4 7 5 3 16 7 18 21 14
17 12 10 5 5 5 3 6 7 9 10 14 12 8 9 8 5 2 1 3 5 6 7 9 12 4 4 7 6 7 5 2 1 4 2 2 6 4 12 5 3 3 14 14 8 11 19
15 9 8 3 1 3 1 6 7 8 11 14 13 10 12 10 4 3 4 7 6 3 4 4 5 6 4 4 5 3 3 4 2 2 2 4 5 6 14 5 9 7 2 13 4 10 18
13 8 6 3 4 3 2 5 7 8 9 11 12 14 11 9 5 4 3 5 6 7 6 8 6 3 3 1 0 2 2 3 4 4 2 1 2 6 11 5 5 10 3 10 6 6 17
12 8 6 5 7 5 5 6 6 6 7 10 12 15 12 9 3 6 5 6 5 8 11 9 4 3 1 1 0 3 3 4 9 4 5 1 4 2 1 6 6 5 10 17 19 8 8

GFSGBSN_700_spd_096.txt.gz
Wind_Speed
20 20 19 18 16 14 12 10 10 11 11 12 13 13 12 13 12 11 10 7 7 8 9 11 16 18 18 14 14 12 16 17 17 18 21 21 21 15 11 8 8 4 2 9 17 17 27
21 20 20 19 18 16 13 11 9 9 9 11 13 13 14 13 13 11 9 8 7 6 7 9 12 18 19 17 16 12 15 18 16 17 23 23 19 13 9 5 7 5 1 9 13 20 28
21 21 22 21 20 18 16 12 10 9 8 9 11 12 14 14 13 11 10 8 6 6 6 7 10 15 19 19 18 15 14 18 21 20 23 24 22 16 10 5 3 5 3 6 12 24 27
22 22 22 21 20 18 16 14 11 10 10 10 11 13 14 13 12 11 8 6 6 5 5 5 8 12 17 21 18 16 13 15 21 24 28 28 25 16 12 8 3 4 4 7 10 16 23
23 21 20 20 20 19 17 14 12 11 10 10 11 13 13 12 11 10 7 5 3 3 3 3 5 9 16 21 18 17 16 16 20 24 29 31 27 22 16 10 4 5 3 8 9 12 14
22 21 20 19 19 18 16 14 13 11 11 11 12 14 13 11 10 9 7 5 5 3 1 1 2 8 15 19 19 17 17 17 21 26 28 33 29 23 20 12 6 6 5 10 8 13 13
22 21 20 19 18 17 16 14 12 12 11 11 12 13 12 10 8 6 6 7 5 5 5 3 4 10 15 17 21 18 16 17 23 25 29 34 32 29 22 12 9 8 6 4 10 9 15
21 20 18 18 18 17 15 12 12 11 11 12 14 14 11 8 7 6 9 8 7 5 2 4 3 13 14 16 20 20 19 18 23 26 28 33 33 25 18 16 12 9 4 6 7 11 17
20 19 17 17 18 17 15 12 11 12 11 12 14 13 10 6 5 7 8 6 6 7 7 10 4 15 15 11 17 19 20 15 20 27 28 34 29 24 15 18 17 12 7 7 4 8 10
19 18 17 18 18 17 15 12 11 11 12 13 13 13 9 5 6 8 7 7 7 3 4 11 6 13 9 9 11 10 18 15 18 24 27 26 19 24 18 14 17 15 13 5 5 8 4
21 18 18 19 18 17 15 12 11 11 12 13 13 12 7 5 8 8 5 6 4 0 3 4 7 12 10 6 7 7 14 16 15 20 24 18 25 16 24 23 15 12 7 7 4 8 9
22 20 19 19 18 17 15 13 12 12 12 13 11 6 5 4 5 4 3 7 2 2 3 4 6 6 13 9 3 8 14 14 14 12 18 17 13 15 17 22 19 8 7 10 7 5 5
23 20 20 20 18 18 15 12 11 11 11 11 5 5 5 3 5 3 2 1 0 3 3 5 6 8 10 7 7 12 16 17 15 12 12 12 20 15 15 15 18 15 15 5 3 2 7
24 22 20 20 19 20 14 11 10 10 7 5 6 6 5 5 5 6 2 2 3 4 5 4 7 6 6 4 7 12 9 16 15 13 9 12 6 21 16 18 13 17 19 10 5 5 3
26 23 22 22 21 19 12 9 9 7 4 6 12 13 12 7 7 5 1 1 2 4 7 4 5 5 6 6 4 13 14 13 14 17 14 7 7 8 20 13 14 15 25 20 9 3 4
26 26 24 23 22 17 12 9 8 4 6 12 12 13 14 14 10 6 5 7 7 7 8 7 3 6 5 3 4 7 12 15 14 14 17 10 4 11 13 13 17 15 14 17 18 5 3
26 27 25 22 21 16 11 8 5 3 7 12 10 10 8 11 10 9 6 9 7 7 5 6 8 8 7 3 0 3 7 9 12 15 16 19 13 8 8 10 14 18 20 13 12 9 8
26 26 24 21 20 15 10 6 2 4 8 12 7 6 6 6 9 12 8 5 5 4 6 5 3 5 5 3 3 4 8 9 13 12 11 12 8 13 15 13 10 6 15 23 15 8 7
25 26 23 19 18 14 9 5 0 6 10 11 7 3 0 2 5 9 4 5 5 2 1 3 2 3 4 4 1 3 9 11 16 12 11 11 8 6 4 11 13 9 15 18 23 18 20
24 24 22 18 18 12 6 4 1 7 10 7 10 6 3 5 2 4 6 6 4 2 2 3 4 4 2 6 4 6 3 9 14 13 9 8 11 7 8 6 9 6 6 9 18 20 19
25 24 21 19 16 9 5 2 3 9 11 10 13 8 5 5 4 3 4 3 3 4 5 6 7 4 3 5 6 7 1 3 10 12 11 9 13 9 5 7 5 6 8 5 13 15 21
25 24 21 19 13 6 3 3 4 10 12 11 14 9 5 5 3 4 2 1 2 6 10 8 7 7 5 3 3 6 6 8 4 3 6 11 12 16 12 10 7 6 7 9 8 13 14
24 22 19 16 13 6 5 7 3 8 14 11 9 7 7 6 4 2 1 3 3 1 6 7 9 8 3 6 6 6 5 4 2 2 3 8 12 11 10 15 14 8 9 8 12 13 15
23 21 16 14 12 9 7 9 6 7 11 15 11 8 8 6 4 4 2 4 3 3 8 12 5 12 7 7 9 4 1 4 4 1 2 3 11 9 2 5 4 4 11 8 12 15 18
21 19 14 11 9 8 4 6 6 7 9 12 14 9 8 5 1 7 3 4 2 4 9 9 4 7 8 6 9 10 2 4 2 5 4 2 3 3 3 2 4 8 3 4 3 13 16
18 16 12 9 5 5 1 4 6 8 8 11 14 10 9 6 4 2 3 5 5 6 7 6 4 2 3 5 6 9 7 4 3 3 2 3 5 5 4 4 3 12 7 6 4 12 17
16 14 10 8 4 4 1 4 6 8 9 13 12 11 9 7 5 5 6 7 5 4 4 6 3 3 2 3 7 4 5 9 7 3 5 4 6 7 9 3 9 11 2 5 1 6 10
14 12 9 8 6 5 3 5 6 6 9 12 15 12 12 10 6 8 7 4 3 5 5 7 6 7 7 4 3 4 4 5 4 6 2 3 4 6 5 2 4 10 10 4 1 10 2
14 11 9 8 8 7 5 6 6 6 8 11 14 14 13 9 4 4 2 3 5 7 8 9 6 6 4 3 2 3 4 4 7 5 5 2 4 4 5 4 1 7 9 10 11 11 8

GFSGBSN_700_spd_102.txt.gz
Wind_Speed
17 17 17 16 16 16 15 14 13 12 11 11 11 11 12 12 11 10 8 7 6 8 10 11 14 18 19 18 18 13 17 17 17 18 21 18 15 12 8 6 5 3 9 21 26 23 17
18 17 17 17 16 16 15 14 13 12 12 12 12 13 13 13 13 11 9 7 6 7 9 10 12 15 20 18 19 13 18 19 17 17 21 20 17 12 9 6 7 7 12 20 23 18 24
17 17 17 17 16 16 16 14 12 11 11 11 11 13 13 13 13 10 8 7 5 6 8 9 11 12 19 23 21 17 18 20 19 18 19 21 19 14 8 4 9 10 13 20 23 19 20
17 16 16 17 17 17 16 14 12 10 10 10 11 11 13 13 12 9 7 6 5 4 5 6 8 10 20 22 21 19 17 21 22 21 23 21 20 14 11 7 6 14 12 18 22 21 21
18 17 17 17 16 16 15 14 12 10 9 9 10 11 12 13 11 8 6 4 3 4 3 2 3 8 14 21 19 19 17 19 23 22 23 23 21 15 11 6 8 9 8 12 16 19 23
20 18 17 17 16 16 15 14 11 9 8 9 10 11 13 13 10 8 5 3 3 1 1 1 3 7 11 15 20 20 18 19 22 22 20 23 20 14 12 12 10 9 8 13 14 14 8
23 21 19 18 17 16 16 15 13 11 9 9 10 11 12 12 9 6 4 4 6 5 3 5 8 11 14 18 19 21 18 16 19 19 14 21 18 21 17 10 6 4 4 13 14 14 10
24 21 20 19 18 17 18 17 14 12 10 9 10 12 11 12 8 5 3 6 7 3 5 2 7 8 10 19 19 19 17 12 17 17 16 17 23 19 12 11 5 5 8 13 14 16 11
24 23 20 19 19 18 19 18 15 12 11 11 11 12 11 9 7 3 3 4 5 9 8 7 5 8 8 13 12 17 16 10 13 17 18 15 14 19 14 12 9 6 3 10 11 13 9
24 22 20 20 20 20 20 19 15 12 11 11 11 11 10 6 3 1 2 3 3 7 5 5 6 6 5 10 8 13 13 9 10 14 15 15 13 18 17 13 11 7 3 8 11 15 8
25 23 21 21 21 20 20 17 13 11 10 10 10 9 5 1 2 1 1 3 4 7 3 2 4 11 9 5 8 12 14 8 9 12 15 12 16 18 17 16 13 8 7 8 11 6 7
27 24 22 21 20 20 19 15 11 10 10 9 6 5 3 1 1 3 2 4 9 2 4 1 6 8 9 5 7 10 14 10 9 10 14 6 12 14 18 12 12 8 11 9 5 2 9
29 23 20 20 18 18 17 12 10 9 7 6 5 4 4 5 7 5 6 8 3 2 4 2 4 8 8 6 7 9 14 13 8 11 14 10 11 14 16 17 12 13 11 4 3 8 8
28 22 19 19 17 17 15 10 9 7 6 6 7 8 9 10 11 9 8 5 4 4 5 3 5 8 7 7 5 8 11 15 10 10 14 16 15 15 16 21 17 19 17 9 7 4 8
25 20 19 18 17 14 12 9 7 6 7 6 8 12 14 13 9 7 7 3 5 4 3 5 7 5 6 6 6 8 11 13 12 10 8 12 11 12 12 17 18 18 25 20 12 7 9
24 20 20 18 15 12 10 7 4 9 8 10 15 14 13 11 9 10 6 7 6 9 7 4 3 3 3 3 5 7 10 9 9 11 10 8 10 10 14 14 17 15 17 23 21 13 12
23 21 20 17 14 12 9 5 2 12 9 12 11 8 11 11 8 9 10 8 7 5 5 4 2 2 2 2 2 6 6 5 11 8 11 10 11 10 12 19 17 18 17 20 20 23 14
22 21 20 17 14 12 8 3 2 9 12 10 8 3 5 10 8 8 7 7 9 5 7 4 3 2 1 1 3 3 5 6 13 13 11 12 12 13 13 11 15 12 22 20 20 19 20
22 21 20 18 15 11 6 1 3 9 14 12 7 6 2 8 5 6 8 5 5 4 3 4 2 3 2 1 3 3 3 10 11 8 9 10 11 13 13 11 15 18 18 19 21 20 21
23 21 21 18 14 10 4 2 4 10 13 12 7 1 2 6 6 5 6 4 2 1 2 2 1 2 2 2 2 3 5 7 13 9 12 10 11 14 11 8 15 22 17 18 21 22 20
23 21 20 17 14 10 4 3 6 12 13 11 8 4 6 3 2 4 5 3 1 1 2 3 2 1 2 2 1 2 2 6 12 12 13 8 12 10 13 7 5 10 13 17 20 26 24
23 21 19 16 14 11 4 4 6 10 14 13 10 6 3 2 3 3 1 1 1 3 4 5 5 5 3 3 1 2 1 4 7 10 10 9 10 9 12 9 9 11 13 12 15 20 25
23 20 18 15 13 12 7 5 7 11 13 13 10 8 3 3 2 0 3 2 2 2 4 6 7 5 5 6 6 1 5 5 4 7 9 10 14 12 18 10 12 16 18 13 11 13 14
21 20 16 14 12 11 8 5 7 10 13 11 11 7 4 3 2 2 1 2 1 2 4 6 3 6 11 9 7 2 2 4 4 4 4 4 10 12 18 7 15 6 4 6 7 10 9
19 18 14 12 10 8 6 2 7 7 14 14 12 10 7 4 2 2 2 0 2 3 4 4 5 3 8 8 6 7 8 5 5 4 5 4 6 5 9 19 9 6 2 2 6 6 7
18 16 13 10 9 6 3 2 5 6 10 13 15 11 8 5 3 1 0 1 1 2 3 2 4 3 6 6 7 10 6 7 5 5 4 6 7 7 6 7 10 6 2 9 8 10 7
18 15 13 9 9 7 4 2 6 6 8 10 13 13 10 4 4 2 2 4 4 2 2 4 4 2 5 5 7 8 8 8 9 8 7 7 7 11 10 7 4 4 8 8 8 4 9
17 14 13 10 9 8 8 4 6 7 9 11 13 13 12 8 6 6 7 4 2 2 3 10 3 2 3 5 6 7 6 7 7 9 7 9 6 8 8 9 7 5 3 5 6 6 7
17 14 13 11 10 10 9 7 7 9 10 12 14 14 13 11 8 7 9 4 5 5 3 6 8 7 5 3 4 4 6 5 7 8 9 6 7 4 4 2 3 4 3 7 12 6 6

GFSGBSN_700_spd_105.txt.gz
Wind_Speed
13 12 12 13 14 15 15 14 13 12 11 10 9 10 11 11 11 10 9 8 7 8 9 11 13 16 18 17 10 11 17 16 16 16 20 17 14 11 11 8 6 5 4 13 29 22 15
13 13 13 13 14 14 14 13 12 11 10 10 11 11 11 12 12 10 8 8 7 7 7 9 11 14 18 15 26 15 17 18 16 14 19 17 12 11 9 6 6 4 9 21 25 23 15
16 16 15 15 14 13 13 13 13 12 10 9 10 11 12 12 11 10 8 7 6 6 6 7 8 11 16 12 21 19 16 18 17 15 18 17 12 12 4 4 7 7 14 21 26 27 22
18 16 15 14 14 13 13 13 12 11 10 10 9 10 11 12 12 10 7 4 4 4 4 3 5 7 9 27 19 18 15 18 19 15 14 15 17 13 8 7 8 12 15 19 27 22 21
19 18 17 16 15 15 14 13 12 11 10 9 9 10 11 13 12 9 5 3 3 2 1 1 3 5 6 13 16 18 15 16 18 15 15 18 18 13 11 11 11 10 8 17 20 25 24
19 18 18 18 18 18 17 16 13 11 9 9 9 10 11 11 10 7 4 3 5 4 2 7 4 6 6 8 14 17 14 15 15 13 15 16 14 14 15 17 15 5 17 18 21 25 21
21 20 19 19 19 18 18 17 16 13 10 9 9 10 11 11 8 4 2 5 10 9 3 3 2 2 5 10 15 15 15 15 15 13 13 16 19 22 17 16 8 6 19 18 10 13 19
22 21 19 19 18 18 17 18 16 14 10 9 9 9 9 10 7 2 4 7 2 5 4 5 5 8 5 7 12 14 15 12 14 15 15 14 24 19 15 11 8 7 11 16 10 6 7
23 22 20 19 18 18 18 18 15 13 10 9 9 9 9 8 4 2 4 4 5 7 3 4 3 2 3 9 11 15 17 12 13 15 18 16 12 19 17 11 10 10 5 8 18 11 13
24 22 20 19 18 17 17 16 14 11 9 9 9 9 6 4 2 3 3 4 8 6 4 2 3 2 4 9 9 15 16 10 11 15 16 18 13 18 16 18 12 8 5 9 11 19 12
25 21 19 19 18 17 16 14 11 9 10 9 8 5 4 2 1 4 5 5 11 4 3 3 2 6 7 6 11 13 15 12 11 11 15 16 14 16 18 17 15 4 4 3 30 12 16
24 20 18 19 17 16 15 12 9 9 9 7 6 6 4 2 1 3 5 7 11 6 3 3 2 3 7 4 7 10 15 13 7 13 16 10 15 14 17 15 14 10 5 7 7 10 10
23 20 17 18 16 15 13 10 9 8 7 8 9 7 5 3 4 4 9 13 5 4 3 3 4 6 7 5 6 10 15 15 12 13 15 14 10 15 17 15 14 12 15 5 5 10 3
22 19 18 18 16 13 12 8 7 5 6 8 9 8 6 5 7 10 13 0 5 3 5 2 5 7 7 6 5 10 10 16 16 15 14 18 16 19 18 20 16 18 17 10 6 5 7
21 19 19 17 15 12 10 5 4 4 5 7 9 12 10 6 9 13 2 12 5 1 2 3 5 10 7 5 3 8 11 14 14 14 13 17 18 18 16 19 18 17 22 16 11 9 14
21 19 19 17 14 11 9 3 4 5 6 9 8 8 5 11 15 9 5 5 3 3 4 4 1 3 1 6 6 7 11 9 6 12 9 8 12 14 15 15 21 19 13 22 24 13 16
21 20 20 17 14 11 7 1 6 8 8 8 10 4 7 11 9 4 4 6 4 3 3 2 2 3 1 1 3 5 4 4 8 2 12 8 14 10 13 21 19 21 16 18 22 25 17
20 20 20 17 14 11 5 1 7 13 9 7 7 2 4 6 4 4 6 2 6 3 2 1 1 2 4 2 7 6 5 3 5 8 8 15 11 18 14 16 20 20 22 20 21 18 21
20 19 19 17 14 11 5 3 7 12 12 8 4 1 1 4 3 2 3 4 4 2 2 2 1 1 3 4 8 10 6 7 8 6 8 5 18 16 15 12 13 16 18 21 22 20 20
20 18 17 16 14 11 5 3 7 12 14 11 5 3 4 3 3 3 4 2 1 1 1 1 0 0 2 3 4 5 7 10 8 8 13 10 13 18 7 4 7 19 23 18 21 20 22
21 18 17 15 13 10 5 3 8 13 14 12 4 4 5 2 2 2 3 2 3 2 2 2 3 1 3 4 3 4 7 9 9 12 8 11 17 14 6 11 11 10 18 22 19 23 19
22 20 17 14 12 10 7 5 8 14 15 14 6 3 2 1 1 3 1 2 2 2 3 3 4 5 4 5 2 3 4 6 7 14 13 12 14 11 20 8 10 12 11 9 13 18 21
22 20 18 14 12 10 9 7 9 13 18 9 12 6 4 5 2 1 2 3 3 2 4 5 7 6 5 6 6 5 4 4 6 7 13 14 15 14 17 13 13 18 18 14 18 15 19
22 21 18 13 11 10 8 6 9 13 16 16 12 10 4 5 4 3 2 1 1 2 2 4 3 4 7 8 6 5 5 6 5 8 8 9 15 15 19 10 10 11 9 7 8 12 10
22 20 18 14 10 9 4 4 9 10 15 14 14 12 5 4 4 1 1 2 2 5 2 1 3 5 4 4 6 7 9 10 10 9 9 10 10 8 18 21 13 13 4 5 8 9 13
22 19 17 14 10 8 4 4 8 11 13 17 15 12 10 3 6 6 1 4 2 5 7 4 6 3 3 5 9 8 10 17 6 8 11 9 11 10 7 9 17 11 4 4 6 16 5
23 21 18 15 12 9 6 4 8 8 11 15 17 16 11 5 8 3 5 5 5 3 4 8 4 4 4 7 9 11 8 10 16 7 8 7 15 18 10 7 5 5 4 8 14 5 6
22 21 18 16 13 11 10 8 9 10 11 13 15 16 16 6 8 4 3 2 2 2 4 7 6 6 5 6 7 8 9 9 10 8 6 14 16 11 12 7 13 3 2 3 5 3 5
23 20 19 16 15 13 13 11 10 11 12 14 14 17 16 10 6 6 8 9 7 5 4 5 7 6 5 4 6 7 8 9 10 12 9 10 6 4 4 6 3 2 4 5 7 6 6

GFSGBSN_700_spd_108.txt.gz
Wind_Speed
12 12 13 13 14 14 13 12 11 11 10 9 8 9 9 10 10 10 9 8 8 8 8 9 11 13 16 16 10 11 16 15 14 16 19 15 13 13 13 12 11 11 4 7 14 24 26
15 14 14 14 15 15 14 13 12 11 10 9 9 9 10 10 10 10 9 8 7 7 7 7 9 10 15 16 19 21 12 16 15 13 19 15 11 12 8 11 12 4 5 18 22 27 28
18 16 16 15 15 15 15 14 13 12 10 9 9 9 10 11 12 11 9 7 6 6 5 5 6 8 13 15 23 23 13 15 16 14 17 14 11 10 8 8 7 5 7 21 25 19 17
17 17 16 15 14 14 15 14 13 12 10 9 9 10 11 11 11 9 7 5 6 5 5 3 4 6 9 20 21 19 17 13 15 16 14 13 14 12 15 5 8 8 8 15 23 17 21
19 17 16 16 16 15 15 14 14 13 11 10 10 10 11 11 11 7 5 4 5 5 5 5 1 5 2 12 15 13 13 9 12 12 11 11 15 14 11 14 15 7 6 11 21 23 20
20 19 18 18 17 16 15 15 14 12 11 10 9 10 10 11 9 5 4 8 10 11 4 9 7 4 6 4 7 13 13 13 13 11 15 15 13 14 15 18 17 15 4 17 16 28 25
20 20 19 19 18 17 16 16 15 12 9 8 8 9 10 9 8 4 3 5 14 11 2 2 5 7 2 7 11 10 12 14 13 12 13 13 15 19 17 15 16 3 4 12 20 29 36
21 20 19 19 19 18 18 17 15 12 9 8 7 8 9 8 5 1 4 9 6 4 5 4 7 8 3 9 8 11 12 14 15 15 13 14 20 17 16 13 4 5 1 14 10 11 24
22 21 19 19 19 19 18 17 14 11 9 8 8 8 7 5 3 3 3 4 1 2 2 4 4 0 5 8 8 12 15 13 11 14 15 18 12 17 18 16 12 16 15 15 5 10 7
23 22 19 18 18 18 17 15 12 10 9 9 8 7 6 3 4 8 10 3 1 6 6 1 2 4 4 6 6 12 15 11 10 13 14 17 15 14 18 17 15 10 6 8 15 9 9
23 21 18 18 18 17 15 13 10 10 9 9 8 7 5 4 4 9 5 4 6 2 1 1 2 7 5 6 7 11 13 13 10 10 15 16 15 12 17 12 13 7 5 8 12 12 12
22 20 19 18 17 16 14 11 10 9 9 9 9 7 5 3 5 3 3 4 2 5 1 2 1 2 7 4 4 8 13 13 9 10 14 16 9 12 15 11 9 12 16 14 18 0 8
22 20 19 18 17 14 12 10 9 7 9 10 9 8 7 5 9 1 3 4 4 7 3 1 5 2 7 3 7 5 12 14 12 11 15 15 12 12 11 15 13 8 18 10 7 7 13
22 20 19 17 15 13 12 8 7 6 8 10 13 14 11 8 9 12 3 5 9 6 4 3 2 4 2 3 3 5 10 14 15 14 14 16 16 15 17 19 15 16 22 11 4 5 5
23 20 19 17 14 12 10 7 4 4 7 9 18 23 16 11 15 8 6 3 3 8 2 1 2 7 3 5 2 7 11 9 14 13 17 11 18 16 17 19 14 14 20 17 4 8 11
23 21 19 17 14 11 9 5 1 3 8 7 12 12 7 9 7 5 7 7 5 4 3 3 5 2 1 5 4 6 5 3 3 4 11 5 11 21 15 14 20 18 10 18 21 7 9
24 21 20 17 14 11 8 4 2 3 9 14 10 5 3 1 3 5 5 5 4 3 2 3 3 11 4 1 2 4 4 3 4 5 5 7 7 2 14 16 17 19 17 15 20 19 11
25 23 20 18 14 11 8 3 4 5 7 10 7 3 4 1 6 2 4 3 3 5 3 5 5 5 8 3 5 10 3 6 6 3 6 12 9 10 12 13 15 19 21 14 14 15 16
24 23 21 18 14 12 8 3 6 9 9 7 4 2 5 3 7 3 1 2 1 5 2 3 4 3 8 5 7 6 4 1 6 2 6 7 9 13 17 8 16 20 18 18 20 18 20
24 22 20 18 15 12 8 3 6 10 10 8 4 3 4 2 3 4 1 2 2 3 2 2 4 3 5 7 6 9 8 9 5 7 12 10 10 14 8 9 6 5 17 15 16 22 18
24 22 21 19 16 12 8 4 7 11 11 11 3 7 4 5 1 3 0 1 4 2 2 4 4 3 5 9 8 5 6 7 10 11 9 9 13 13 7 7 14 12 10 16 22 19 19
25 23 21 19 16 13 10 6 8 13 13 12 2 6 4 4 5 2 2 2 2 2 2 2 4 7 6 8 9 6 6 7 4 7 11 9 14 12 10 9 8 13 10 12 12 23 19
24 23 22 19 15 14 11 8 10 15 17 15 5 5 3 5 3 4 1 2 4 3 2 4 7 8 5 7 6 8 7 7 9 9 13 13 16 14 16 8 12 13 13 10 11 8 12
23 23 22 20 16 12 11 8 10 17 23 20 10 11 4 7 5 3 2 2 2 3 3 4 6 4 7 10 11 10 9 12 11 10 10 16 10 12 14 6 5 4 7 10 7 12 9
23 23 21 20 17 13 9 6 9 13 20 22 15 16 6 9 4 5 3 4 5 9 2 3 4 7 10 7 6 9 10 10 10 9 12 14 11 12 18 17 15 5 5 4 8 3 12
24 22 21 19 17 14 10 8 9 13 16 18 19 15 11 0 2 5 1 6 7 8 8 5 6 7 4 5 10 8 13 2 8 12 8 13 8 9 8 17 5 3 9 12 3 4 10
25 23 21 21 17 14 12 10 10 13 15 19 18 17 16 2 5 4 5 2 3 4 6 7 5 9 6 6 11 16 7 2 7 8 21 15 5 14 12 10 8 11 3 4 7 7 7
25 24 21 20 19 15 13 12 11 13 13 16 20 19 17 10 7 6 7 5 5 3 7 8 8 6 6 10 10 8 6 8 5 7 7 6 12 14 4 6 15 10 8 10 7 12 18
27 24 22 21 19 16 14 14 14 15 16 17 17 20 19 15 1 3 7 6 7 8 7 7 7 10 7 5 7 9 12 9 6 8 8 7 8 5 9 4 8 10 6 4 5 1 11

GFSGBSN_700_spd_111.txt.gz
Wind_Speed
13 13 13 13 14 14 13 12 11 10 9 9 8 8 9 10 10 10 10 9 8 8 7 7 8 10 12 14 16 10 10 13 14 15 17 18 20 9 10 11 6 9 2 7 22 20 25
15 15 14 14 15 14 13 13 12 11 10 9 8 9 9 9 10 10 10 9 8 8 7 7 7 8 10 13 19 20 7 13 14 13 18 19 19 9 5 8 9 10 3 17 16 14 9
16 16 15 15 15 15 14 13 12 11 10 9 8 8 9 10 10 9 8 7 6 7 7 7 6 6 8 12 17 18 11 9 15 14 20 17 20 9 7 15 10 4 13 16 15 22 22
17 16 16 15 15 15 15 15 14 12 10 9 8 8 8 9 9 7 6 5 6 6 7 7 5 5 8 16 21 20 15 10 13 15 19 19 11 9 9 14 4 14 7 17 13 21 25
18 18 16 16 16 16 16 16 14 13 11 10 9 8 8 9 9 7 6 7 9 8 9 9 5 4 3 8 9 16 11 11 12 14 19 13 6 14 11 10 9 3 4 10 1 11 23
19 18 17 16 16 16 16 16 15 13 11 10 9 8 8 8 7 5 7 11 11 12 6 9 9 7 16 8 4 12 10 8 7 13 13 7 12 17 16 12 18 10 9 4 3 6 21
21 20 19 18 18 18 17 16 15 13 10 9 9 9 8 7 6 4 7 6 10 10 3 5 6 7 5 2 4 7 13 17 12 9 15 14 15 17 16 9 19 3 4 4 3 18 22
22 21 19 18 19 18 17 16 14 11 9 9 8 8 7 6 5 5 3 3 8 5 3 5 6 10 7 7 4 8 10 15 17 14 9 10 16 13 9 13 5 7 6 6 3 6 20
23 21 19 18 19 18 17 16 13 10 9 9 8 7 6 6 6 8 7 8 6 14 8 2 5 4 3 5 4 6 11 15 11 11 13 12 12 6 12 14 12 3 4 1 5 13 5
23 22 20 19 18 18 16 14 11 10 10 9 8 7 7 6 7 8 10 10 12 6 6 2 6 4 6 4 2 10 8 13 14 7 8 14 11 13 12 16 19 14 13 6 19 10 11
24 22 20 19 18 17 15 13 11 10 10 8 7 6 5 5 4 5 8 2 5 11 4 2 1 11 3 3 12 10 9 15 13 10 12 13 9 12 10 17 20 13 3 16 14 15 18
24 22 21 19 18 16 15 11 10 9 9 8 8 7 5 5 8 8 3 12 10 3 3 3 3 5 3 2 4 11 6 12 11 11 12 16 12 9 7 9 12 10 20 19 19 8 7
25 22 21 20 17 15 14 10 8 7 8 9 9 6 5 5 3 9 20 14 4 4 2 7 4 2 4 5 8 4 7 10 7 3 6 12 11 8 10 17 12 18 24 7 4 3 2
26 24 23 20 17 14 12 9 7 6 9 13 13 10 8 6 10 15 16 6 3 7 8 4 5 4 3 3 5 4 6 11 11 15 17 13 11 11 10 15 18 12 19 7 4 1 3
26 24 23 21 18 15 12 8 5 4 7 11 15 13 14 16 12 14 14 3 4 13 9 12 3 9 3 6 1 8 10 7 8 9 15 10 7 20 17 21 18 11 25 21 7 5 0
26 25 23 21 19 16 13 8 3 4 4 14 18 15 14 14 13 15 9 8 8 5 8 12 5 5 1 7 6 1 6 12 4 4 5 7 12 9 21 17 22 12 7 10 10 6 4
26 25 24 22 19 16 13 8 2 7 13 10 7 9 7 7 10 9 10 4 6 11 4 9 6 7 7 6 5 6 6 2 7 2 5 6 6 14 14 14 16 16 13 15 13 11 7
26 25 23 22 20 17 14 7 2 7 10 9 7 7 3 2 7 12 9 2 6 6 7 6 7 7 7 6 6 3 7 5 10 3 8 10 6 11 7 6 13 17 16 15 15 12 14
25 25 24 22 19 16 14 8 3 7 13 6 3 4 4 9 6 3 4 2 2 1 5 5 8 5 10 4 5 5 4 2 5 4 6 6 3 8 14 10 6 11 16 14 20 20 22
25 25 23 22 20 16 12 9 5 8 13 8 5 9 2 7 7 7 4 2 2 5 2 2 6 3 9 7 8 3 2 6 5 4 8 10 10 7 7 10 12 15 7 13 13 20 18
26 24 24 21 20 17 12 8 6 9 14 11 4 1 9 5 2 4 3 0 4 3 2 6 1 7 7 10 14 6 5 10 9 6 9 7 7 4 4 2 15 13 14 11 10 14 18
25 24 22 22 20 17 14 10 7 9 13 15 4 5 2 4 8 7 4 3 2 4 1 5 4 8 6 6 11 5 9 5 9 3 5 6 10 11 8 6 3 7 12 15 11 17 21
23 22 22 21 20 17 13 11 8 11 17 18 10 6 5 2 3 5 4 2 4 7 1 6 8 11 3 10 6 8 8 7 6 11 12 13 12 11 9 8 1 1 7 11 10 19 11
23 22 21 20 19 18 13 10 8 11 19 22 13 9 11 8 5 8 2 3 2 6 6 2 9 5 8 14 17 16 6 5 13 5 8 7 12 11 10 3 4 8 13 1 3 11 13
23 22 21 19 19 17 15 10 8 10 18 23 21 11 15 7 7 6 8 5 5 11 9 2 7 12 10 4 7 7 12 12 6 7 8 9 10 10 14 10 7 4 4 8 7 5 9
24 24 23 20 18 17 14 12 9 10 15 23 25 19 18 10 4 7 3 5 8 7 10 5 10 11 13 3 6 7 6 4 15 7 9 11 18 5 10 3 2 3 6 7 9 5 5
24 23 22 21 19 17 15 13 12 11 15 18 20 22 21 18 1 3 6 8 6 7 2 6 5 7 7 8 12 14 2 2 5 12 14 9 3 9 14 4 1 4 5 8 5 3 7
23 23 25 22 19 18 16 15 14 13 14 18 19 21 23 21 3 1 6 9 7 8 9 7 2 2 8 9 11 7 4 2 4 7 7 13 4 3 3 3 7 9 7 4 3 3 10
24 24 24 23 20 18 17 16 16 15 16 17 20 24 26 24 12 12 8 16 13 19 15 14 5 5 10 9 6 4 6 1 5 4 7 2 4 3 5 3 8 11 4 4 7 13 9

GFSGBSN_700_spd_114.txt.gz
Wind_Speed
14 14 13 12 12 12 11 11 11 10 9 8 8 8 8 8 8 8 8 8 6 6 6 6 6 7 9 13 14 8 14 13 13 13 19 23 16 14 8 2 12 12 10 17 33 19 22
14 14 14 13 13 13 12 11 10 10 9 8 7 7 7 8 8 7 7 6 5 5 5 6 6 5 6 10 17 18 7 12 14 13 20 20 19 8 2 8 10 12 7 12 35 19 17
15 15 14 14 14 13 13 12 11 9 8 7 7 7 8 8 8 7 6 5 6 5 5 6 5 3 3 9 13 16 15 9 13 13 19 22 16 12 2 5 9 5 10 29 24 23 18
16 16 16 15 14 14 14 14 12 10 8 7 7 6 6 7 7 5 5 6 6 7 7 7 7 5 2 11 14 12 9 9 11 15 21 21 15 13 3 5 10 11 4 21 19 17 27
18 17 16 15 15 15 15 15 13 11 9 8 7 5 5 6 5 5 6 7 8 9 11 12 14 11 12 5 8 11 8 10 10 14 21 20 14 11 7 4 4 1 7 4 7 8 27
19 18 16 15 15 15 15 15 14 12 10 8 7 5 5 5 4 5 8 6 6 6 7 9 9 8 12 10 3 8 11 16 10 16 25 22 15 15 17 13 5 7 11 6 6 6 20
21 21 18 17 17 17 16 15 13 11 10 8 7 7 5 5 4 6 5 5 5 8 7 5 7 8 10 9 12 3 17 11 13 19 23 16 16 20 17 13 10 8 4 7 6 4 9
22 20 19 19 18 18 17 14 12 11 10 9 8 7 5 5 6 7 4 8 13 11 6 12 11 7 7 3 8 9 18 12 15 14 9 11 15 11 11 7 11 3 3 6 6 4 18
23 21 20 19 19 19 16 13 11 10 9 8 7 7 6 6 8 9 9 12 9 8 7 10 11 8 5 6 4 8 16 13 14 13 12 15 11 9 12 15 12 5 7 6 2 11 17
23 22 21 20 19 18 15 12 11 9 8 7 7 6 6 6 8 7 11 12 9 8 6 9 7 7 9 4 1 6 3 16 14 7 8 13 9 8 10 20 18 14 6 3 11 6 4
24 23 22 21 19 17 15 12 10 9 8 7 6 4 3 6 4 5 13 12 9 6 4 4 4 8 5 2 3 1 5 12 13 13 9 16 6 6 12 20 24 13 7 3 8 8 14
25 24 23 22 19 17 15 12 9 8 8 7 5 3 2 4 3 12 16 7 8 6 4 3 4 5 2 2 2 6 3 13 9 10 10 16 13 11 11 11 27 20 17 13 7 7 4
26 25 24 22 20 16 13 10 7 7 7 6 6 4 3 7 14 16 12 13 10 6 5 5 5 4 4 6 4 8 3 14 5 2 1 6 11 5 10 28 19 16 28 6 2 3 6
27 26 25 22 20 17 13 9 6 5 7 7 7 7 13 24 15 12 12 13 8 14 12 13 5 5 4 5 5 9 3 8 10 6 11 8 4 17 20 14 15 24 12 9 4 2 3
25 25 24 23 20 17 15 10 4 3 5 6 8 13 20 15 12 12 14 12 9 11 13 11 7 8 4 1 12 7 10 1 9 7 8 10 6 8 16 14 18 27 20 12 5 7 4
24 24 24 23 21 18 15 11 3 2 10 11 12 16 14 10 9 12 13 8 4 13 7 12 10 5 6 5 10 4 3 6 4 4 3 5 8 5 10 22 17 14 11 12 15 5 4
25 24 23 22 21 19 16 11 1 5 17 14 12 11 10 8 10 11 11 6 9 10 10 10 7 8 2 6 13 3 4 3 6 1 5 3 4 6 6 19 26 23 16 7 7 5 6
23 23 22 22 20 18 15 10 1 9 10 10 9 9 8 3 10 7 3 3 4 4 4 12 9 14 7 8 6 5 2 2 7 5 7 7 2 12 9 1 5 9 11 11 13 6 5
23 22 21 20 20 18 14 11 3 9 12 8 8 9 3 2 6 4 8 2 4 5 6 7 3 6 10 8 3 4 5 4 5 13 8 6 6 8 2 4 3 4 10 6 12 16 20
23 22 20 18 18 17 14 9 5 9 16 9 6 5 4 7 11 12 2 4 5 0 3 5 6 0 5 8 10 2 6 6 2 9 9 8 3 3 5 10 13 10 10 12 13 6 11
23 21 19 18 18 17 15 9 6 7 18 14 8 5 1 3 4 4 4 4 5 5 1 5 2 4 6 6 10 1 2 6 9 1 4 3 2 1 14 9 10 7 11 14 13 11 5
23 21 19 17 17 16 15 11 7 7 16 19 14 9 4 6 1 8 3 5 7 2 2 3 6 8 3 4 5 4 7 4 4 4 8 9 4 7 5 12 10 10 6 10 9 11 6
23 21 19 17 16 15 15 12 9 9 15 21 20 13 8 5 6 4 2 9 7 9 9 4 6 10 13 11 6 4 7 10 12 12 6 7 7 8 3 1 6 5 7 5 10 9 2
23 23 20 18 16 15 14 13 9 9 15 20 21 15 13 11 4 2 2 8 10 3 2 8 6 9 11 13 11 9 7 11 12 10 6 8 10 3 7 3 2 10 8 5 7 8 10
23 23 21 19 18 16 15 13 11 10 13 19 23 19 13 16 3 2 5 7 5 5 4 5 5 7 16 2 4 5 6 2 7 8 8 8 7 2 2 1 8 10 8 7 3 2 4
23 23 21 19 17 16 15 14 12 12 12 17 23 24 16 18 5 2 3 3 7 7 6 5 6 7 10 3 4 4 7 11 4 5 5 7 11 6 3 4 5 11 10 9 12 8 4
23 23 21 18 19 16 15 15 14 14 14 16 21 25 27 23 9 4 5 2 5 7 6 4 5 4 5 2 3 10 2 5 3 3 5 2 4 6 12 2 5 7 11 6 8 8 7
23 23 21 19 18 18 17 16 16 15 15 16 20 24 26 27 17 10 6 4 10 13 15 15 10 5 6 7 6 2 2 1 4 2 1 4 2 4 8 10 10 8 4 8 9 8 7
26 26 23 21 20 19 17 17 17 16 16 17 22 22 25 23 21 14 12 12 9 11 13 13 8 9 7 7 5 3 2 4 2 5 2 3 4 2 6 7 3 3 5 8 5 8 5

GFSGBSN_700_spd_117.txt.gz
Wind_Speed
13 13 12 12 12 12 12 11 10 9 8 7 6 6 7 7 7 6 6 5 5 5 5 4 2 3 6 10 12 12 14 14 13 14 19 16 13 12 6 3 6 8 6 23 28 25 28
15 15 14 13 12 12 12 11 10 9 8 7 7 6 6 6 6 6 6 5 5 5 5 4 3 1 5 10 16 10 13 14 14 13 19 17 16 10 5 4 9 11 14 14 33 23 24
15 15 14 14 13 13 12 11 10 8 7 7 6 5 6 7 7 6 4 4 4 5 5 5 4 3 2 12 16 18 10 12 15 15 21 20 16 11 4 1 2 8 12 9 31 27 22
15 15 15 14 14 14 13 12 11 9 7 5 5 5 5 5 5 3 4 5 5 6 6 8 10 11 7 2 4 8 14 10 15 19 28 21 17 13 6 2 4 6 5 7 22 21 14
17 16 14 14 14 15 15 14 11 9 7 5 4 4 4 3 2 2 4 6 5 7 11 14 10 11 12 10 4 5 9 13 18 21 27 22 18 13 8 4 3 4 9 4 11 20 21
18 17 16 16 15 16 15 14 11 9 8 6 5 4 3 2 2 4 5 7 7 5 8 7 5 10 9 9 13 3 13 16 18 22 25 21 18 17 11 9 1 4 2 10 9 10 20
20 19 18 17 16 17 15 13 11 10 8 7 6 5 3 1 4 4 6 7 8 11 8 5 7 7 7 6 10 9 18 19 21 24 27 20 24 24 14 10 7 3 3 3 9 6 11
21 19 18 17 17 16 15 12 11 9 8 7 6 4 3 3 5 5 6 9 13 14 13 14 13 3 4 5 2 10 16 16 22 24 22 24 29 19 9 11 9 4 2 2 4 8 11
21 20 19 18 17 16 14 12 10 9 8 6 5 5 5 5 7 8 9 10 11 13 12 12 17 15 7 5 3 12 13 10 15 20 16 14 6 18 13 11 12 5 3 10 4 7 12
21 21 20 19 18 16 14 12 10 8 7 6 4 3 4 5 6 8 9 7 7 8 6 13 8 9 8 8 7 6 15 12 12 12 9 10 11 7 11 15 12 9 4 2 5 4 4
23 23 22 20 18 16 14 12 9 8 7 5 3 0 2 4 4 8 10 5 6 5 4 9 11 10 7 6 8 6 7 11 12 9 10 9 8 5 15 14 15 11 10 6 10 1 2
23 23 22 21 19 17 14 11 8 7 7 6 3 2 3 4 7 13 7 4 7 4 5 4 6 5 8 5 3 2 7 7 7 7 9 10 11 11 11 13 18 15 12 12 5 3 5
22 23 23 21 19 16 14 12 8 6 6 6 4 6 8 10 17 11 7 9 11 6 5 11 7 2 4 8 6 4 5 8 7 4 4 5 4 8 13 15 21 19 20 5 4 3 5
22 21 22 21 19 15 13 11 6 4 4 5 7 10 17 18 12 10 11 11 12 9 12 8 3 7 4 7 8 3 4 8 11 6 9 4 4 8 10 16 23 28 19 10 2 2 4
22 21 20 20 19 17 13 10 5 1 3 2 15 18 15 13 10 10 10 14 11 9 9 6 3 4 4 5 6 5 4 4 1 2 5 2 1 2 18 12 15 24 18 10 11 11 3
22 21 20 19 18 17 14 10 4 2 4 8 19 13 11 9 8 9 10 9 6 7 6 6 6 4 3 9 8 4 3 3 5 8 2 3 4 4 23 17 17 22 17 8 6 4 4
23 21 20 19 18 17 14 10 4 3 10 12 13 8 9 7 6 9 7 6 6 5 6 6 8 8 7 8 7 3 3 4 7 9 3 1 3 3 1 15 23 18 12 9 7 7 5
22 21 20 19 18 16 14 10 3 6 13 13 13 9 6 7 5 4 8 6 5 4 5 8 9 4 6 6 10 6 3 2 4 8 3 5 2 3 3 1 18 27 4 6 8 5 3
22 21 20 19 17 15 14 10 4 9 13 14 15 10 6 2 1 8 6 4 5 4 5 5 1 3 4 5 2 3 2 3 1 6 5 4 3 4 4 9 14 7 7 5 9 9 6
23 21 20 19 17 15 13 11 5 9 16 15 12 10 10 8 12 9 5 8 8 3 3 2 2 1 0 1 2 3 5 3 1 3 5 6 1 0 5 4 9 7 5 5 2 5 3
23 23 21 20 18 16 13 11 8 8 17 19 15 10 13 9 6 6 3 4 7 9 6 4 3 4 4 1 5 2 4 5 2 2 5 5 1 2 15 11 14 3 3 7 4 2 5
24 22 21 19 19 17 15 13 10 8 16 22 20 14 12 9 4 6 7 6 6 9 5 7 7 7 7 6 7 2 0 3 3 2 1 4 4 5 4 21 11 4 2 4 3 3 4
26 24 22 21 19 19 17 14 12 11 12 22 23 20 16 12 4 4 10 10 9 9 9 12 8 6 9 6 8 10 8 7 8 8 7 6 6 5 3 3 22 16 9 5 2 7 7
26 25 22 22 19 20 19 16 13 12 12 17 21 22 20 17 6 6 9 10 8 8 5 8 8 4 8 10 8 10 12 13 11 11 11 7 9 6 6 4 5 10 14 9 6 9 12
25 24 21 20 19 18 18 17 15 11 13 14 18 21 22 19 12 8 9 9 9 7 7 4 2 3 9 3 5 4 2 4 6 8 9 11 10 6 5 3 5 14 12 16 15 9 7
23 22 20 19 19 17 17 17 16 13 12 15 17 20 23 20 14 7 12 12 9 8 7 6 9 6 3 3 1 2 2 4 4 4 6 10 11 11 10 6 7 13 14 11 11 9 7
24 21 19 18 18 16 16 17 16 15 13 15 18 18 23 26 14 9 7 9 7 6 6 6 10 10 8 4 7 6 5 6 3 2 0 2 5 11 13 8 7 6 10 13 8 7 7
22 21 20 20 19 18 17 17 17 15 14 16 19 19 21 25 24 11 10 10 6 8 9 11 10 9 9 10 10 8 7 7 4 4 2 2 3 7 8 5 6 7 8 13 13 14 15
22 21 23 24 22 19 19 17 17 16 15 16 21 21 21 20 18 23 15 12 10 12 12 11 12 10 9 8 8 9 6 7 9 4 3 5 6 3 4 2 5 8 12 14 10 9 11

GFSGBSN_700_spd_120.txt.gz
Wind_Speed
15 14 14 14 13 13 13 13 12 11 9 8 7 6 6 7 7 6 5 5 5 4 3 2 1 3 7 13 14 12 14 13 13 13 16 15 14 12 7 3 2 3 4 17 20 21 23
14 14 14 14 14 14 13 13 13 11 9 8 7 6 6 6 6 5 4 4 4 4 3 3 2 2 6 14 14 12 15 15 16 16 19 17 14 9 3 3 3 5 8 11 25 23 25
15 14 15 14 14 14 14 13 12 10 9 7 6 6 5 5 5 5 4 5 4 4 4 4 4 4 6 10 15 10 9 13 18 19 21 18 16 10 3 2 3 3 5 9 32 27 21
17 16 16 15 15 15 15 13 11 9 8 7 6 5 5 5 4 4 5 6 6 6 7 9 10 9 9 7 6 12 9 11 18 19 23 20 15 8 3 4 3 3 2 4 4 34 24
17 16 16 17 17 17 16 14 11 9 8 6 5 4 4 4 3 3 6 6 6 9 10 9 9 10 11 8 6 11 11 11 17 19 25 23 16 9 8 3 2 2 1 4 4 29 23
18 19 18 17 17 16 15 13 11 10 9 7 5 4 3 2 2 4 6 8 7 8 6 6 6 8 7 10 7 9 11 13 17 20 26 23 18 14 10 6 2 1 1 7 7 8 6
20 20 19 17 17 16 14 12 11 10 9 8 7 5 3 1 3 5 8 11 12 13 10 8 3 5 7 8 8 9 12 14 19 23 26 23 20 17 9 6 5 5 3 4 5 3 7
21 20 19 17 17 16 14 13 11 10 9 8 7 6 3 2 5 5 12 16 17 18 13 16 15 8 9 8 4 12 12 15 19 22 26 23 17 10 9 10 8 6 2 6 6 5 9
20 19 18 17 16 15 14 13 11 10 9 8 7 5 4 4 5 11 13 13 15 16 16 13 13 15 12 9 3 12 11 11 13 20 22 16 4 16 12 10 11 6 4 3 3 9 12
20 21 20 18 16 15 14 12 11 10 9 7 5 4 3 5 6 10 11 8 6 8 7 14 7 7 9 8 5 2 10 6 10 14 13 11 11 3 6 11 13 3 9 5 2 5 5
21 21 21 20 18 16 14 12 11 11 10 8 5 2 1 4 7 8 7 4 2 2 4 6 9 9 8 8 7 3 8 6 6 9 10 9 9 4 8 15 17 6 5 3 6 2 4
22 21 21 21 19 17 15 13 10 10 9 8 5 0 3 5 8 10 3 6 5 3 4 6 4 5 8 5 1 4 6 5 3 3 5 7 7 9 9 9 14 14 8 6 4 2 2
22 22 20 20 19 18 16 13 9 9 8 8 4 3 8 13 12 6 6 7 6 5 3 4 3 3 5 8 7 4 6 6 4 1 4 5 6 8 11 14 16 21 16 4 1 2 3
22 21 21 19 18 18 17 14 8 7 7 7 3 6 15 13 10 9 8 7 4 9 6 6 3 6 4 7 7 1 1 1 4 8 12 3 4 9 10 14 16 25 23 5 4 2 6
23 21 20 20 18 17 16 14 9 5 6 3 13 17 14 10 8 8 8 9 4 5 5 3 1 4 4 4 5 4 2 4 6 3 4 3 2 8 7 12 13 27 26 9 9 4 6
24 23 21 19 18 16 15 14 10 4 2 10 14 13 10 7 8 9 9 9 7 7 5 4 3 3 3 5 3 7 5 5 5 9 3 3 3 8 10 13 11 11 18 8 5 5 4
24 23 22 20 18 16 15 13 9 4 6 16 12 10 7 7 8 10 7 8 7 7 5 2 3 2 6 4 4 5 4 2 2 7 4 3 4 4 4 13 16 15 14 13 6 5 4
24 24 23 21 19 17 14 13 9 5 9 17 13 10 9 9 8 6 4 5 3 3 3 5 2 2 3 5 5 3 2 3 0 7 6 6 3 4 5 7 9 14 14 14 8 4 7
25 24 22 21 20 18 15 13 11 7 14 14 15 14 11 8 7 3 3 6 8 4 3 5 5 3 6 2 2 1 2 5 2 1 1 5 3 1 7 12 9 8 6 12 18 18 8
25 25 24 21 19 18 16 14 11 10 14 18 17 15 14 10 10 8 7 10 9 7 4 2 1 1 3 4 5 3 2 5 7 3 2 3 2 2 7 9 8 1 2 1 9 13 15
26 25 25 24 21 18 17 16 13 11 13 19 20 16 16 10 11 9 8 6 10 13 8 6 6 5 7 5 6 8 8 5 4 5 2 2 0 2 6 4 3 6 2 3 2 7 9
27 26 26 25 22 20 18 17 15 12 13 17 23 19 16 15 13 13 11 8 8 13 11 7 9 9 7 8 10 10 9 11 7 5 5 2 3 5 4 9 11 4 4 5 5 6 6
28 27 28 26 22 20 19 18 17 15 13 15 22 23 20 17 15 12 11 12 12 11 9 7 6 6 3 5 9 11 12 11 8 8 7 6 6 4 4 3 16 17 23 18 8 5 10
28 26 25 24 23 20 19 18 17 15 14 14 17 23 23 20 16 12 10 11 15 12 6 7 8 5 4 12 8 11 12 13 14 14 14 12 10 9 7 4 4 14 26 20 15 4 1
27 25 23 22 21 20 19 17 16 14 13 14 14 18 22 23 18 13 11 11 12 10 7 7 5 6 5 6 0 2 3 4 7 8 11 11 12 11 7 9 7 10 13 16 14 8 4
25 25 23 22 20 19 18 16 15 14 13 14 14 15 20 22 20 14 14 16 17 14 11 9 12 10 7 5 6 4 3 4 4 4 9 11 13 14 8 4 7 12 17 18 15 15 11
24 22 23 21 20 19 18 17 16 14 13 14 14 16 18 21 20 16 14 16 19 14 12 9 12 14 12 11 9 11 10 8 6 5 5 4 5 12 14 8 6 9 16 17 16 15 17
23 22 22 21 21 20 19 19 17 16 14 15 15 17 18 19 21 21 17 15 15 13 11 10 10 13 14 15 15 14 11 10 10 8 5 5 4 5 7 6 8 11 13 18 10 9 13
23 25 23 21 20 21 21 20 19 17 15 15 16 17 19 19 16 26 20 19 16 15 12 11 12 11 11 12 14 14 12 12 11 10 10 9 8 5 4 5 9 9 16 13 13 12 16

GFSGBSN_700_spd_123.txt.gz
Wind_Speed
14 13 13 13 14 14 14 14 13 11 9 7 7 6 6 6 6 5 5 4 3 3 2 1 1 5 10 14 14 15 16 15 14 13 14 15 14 12 8 4 2 5 4 18 18 18 20
13 13 14 14 14 15 15 14 13 11 9 7 7 7 6 6 6 5 4 4 3 3 3 2 1 4 8 12 13 11 14 16 15 15 15 16 14 9 7 3 2 4 5 16 12 16 20
16 16 16 16 16 16 15 14 12 11 9 8 6 5 5 5 5 5 5 5 5 5 4 4 4 5 7 9 8 6 9 14 17 17 17 16 14 9 6 2 2 2 2 10 16 21 21
17 17 17 17 17 17 15 14 12 11 10 8 7 6 6 5 5 5 5 7 7 7 9 10 9 10 10 10 11 9 8 11 16 16 19 19 14 9 5 6 3 2 3 4 2 23 29
20 20 20 19 19 17 15 14 12 11 10 9 8 7 6 5 4 5 6 6 8 10 9 9 10 11 11 7 9 10 11 8 14 15 20 19 14 10 8 6 2 3 1 1 3 14 31
21 20 19 19 18 17 15 13 12 12 11 10 9 7 6 4 3 5 7 7 9 8 8 8 7 9 7 8 6 11 10 11 12 16 22 18 16 11 11 8 2 3 3 2 1 4 19
22 21 19 18 17 16 14 13 12 11 11 10 9 7 5 3 3 8 11 11 15 15 11 8 8 10 10 7 3 10 9 10 12 16 22 22 17 10 9 8 4 3 5 5 2 5 18
22 20 18 17 17 16 14 13 12 11 10 10 9 8 5 4 6 13 17 17 19 18 18 19 17 15 13 8 5 8 7 8 13 18 22 21 12 8 10 8 6 5 1 3 3 3 9
20 21 20 19 18 16 15 13 12 11 10 9 7 6 5 6 10 14 13 16 18 18 16 12 14 14 11 12 5 6 6 5 9 16 16 13 6 11 7 8 9 4 2 4 6 7 7
21 21 21 20 19 17 16 14 12 11 10 8 6 3 4 6 11 13 13 10 8 10 10 12 7 8 7 7 7 4 6 4 5 9 12 7 10 3 15 15 9 9 6 8 6 4 2
21 21 20 19 19 18 16 15 12 11 11 9 5 1 3 4 10 11 7 5 5 1 3 3 6 7 6 6 4 3 6 3 4 7 8 8 10 9 5 12 12 8 2 2 4 2 2
22 21 21 20 19 19 17 15 13 11 10 9 5 1 4 5 9 8 6 6 5 3 3 2 4 4 8 6 3 5 7 3 5 4 7 11 7 11 6 6 12 14 5 4 3 3 3
22 21 20 20 19 18 18 16 13 10 8 8 4 2 6 9 10 5 6 7 4 4 4 2 2 4 7 7 7 3 7 6 4 2 5 5 10 11 10 11 14 18 8 3 3 4 1
22 22 21 20 19 18 18 16 13 9 7 6 1 9 15 12 8 6 4 4 4 6 5 5 7 6 4 4 6 5 4 3 3 3 7 3 7 10 10 15 15 18 15 5 3 3 2
22 23 23 21 19 18 17 16 13 8 6 2 9 16 11 9 8 6 4 2 4 4 4 2 1 3 2 2 5 6 3 7 4 3 3 2 2 8 1 7 10 12 17 12 1 1 3
22 23 23 23 21 19 16 15 13 7 3 8 14 13 9 8 7 7 3 5 7 6 4 2 0 1 2 2 4 8 5 4 3 6 5 3 2 5 8 6 10 7 13 10 7 3 2
22 23 23 23 21 20 17 14 12 7 4 12 14 12 10 9 8 8 8 8 8 6 2 2 3 3 3 3 5 6 5 3 1 1 5 8 2 1 2 8 8 8 7 12 5 5 2
23 23 23 22 21 20 18 15 12 8 6 14 14 13 10 9 8 10 8 6 8 5 3 2 2 1 2 3 3 3 4 2 2 3 5 5 3 0 3 5 9 13 12 14 13 3 5
23 23 23 22 22 20 18 17 13 9 7 13 18 15 13 12 10 10 8 9 9 5 4 4 5 6 6 3 3 2 2 2 3 4 3 6 3 2 3 3 5 5 10 14 14 15 13
25 25 24 22 22 21 19 17 15 11 8 15 18 17 18 15 14 12 10 10 12 10 8 6 1 2 4 5 6 5 6 6 9 7 5 6 5 4 6 4 6 6 4 4 9 10 14
27 27 26 24 22 22 20 18 17 14 11 11 21 20 20 12 19 14 12 11 12 13 12 9 6 4 6 7 8 8 8 8 7 5 3 3 5 3 5 7 3 8 7 3 1 6 10
25 27 27 26 24 22 21 18 17 15 13 12 16 21 21 20 17 14 13 12 11 14 16 13 9 9 10 11 11 11 9 9 11 7 6 4 3 6 7 10 11 7 8 8 4 8 8
27 29 27 25 24 21 20 18 16 16 15 13 14 19 22 21 19 18 17 15 14 13 15 12 10 9 8 5 7 11 12 11 11 9 8 5 3 4 9 9 9 15 13 11 8 5 8
29 29 27 26 23 21 19 18 16 15 15 15 13 15 21 22 20 19 18 16 16 17 16 12 8 7 5 6 8 10 11 12 15 15 15 12 9 8 9 9 8 10 16 19 15 14 13
30 28 26 23 22 20 19 18 16 13 13 14 13 14 17 23 22 19 18 16 14 20 16 10 8 8 7 5 2 2 3 4 5 8 9 10 10 9 9 11 14 13 15 16 18 16 10
27 26 24 22 21 20 19 17 16 13 12 13 14 13 15 18 23 21 19 17 16 18 16 12 12 12 11 7 5 5 4 6 4 4 7 11 14 12 11 6 6 7 14 16 12 14 10
26 26 24 21 20 19 18 18 16 14 13 13 14 13 15 17 18 20 19 20 20 23 20 16 15 15 15 12 11 10 9 9 8 8 9 8 7 10 12 10 10 15 11 13 15 10 19
23 22 21 21 19 20 18 19 19 17 15 15 14 13 15 16 15 22 22 21 22 25 21 17 15 17 19 17 17 15 12 13 12 13 11 8 5 5 6 6 8 11 13 15 14 16 15
25 25 25 21 19 20 19 18 17 17 16 15 15 14 15 16 13 22 26 21 21 23 22 19 17 14 13 14 15 14 15 14 14 13 13 13 13 8 8 5 9 12 9 12 15 9 20

GFSGBSN_700_spd_129.txt.gz
Wind_Speed
15 14 15 15 15 14 13 12 11 10 8 7 6 5 5 5 5 4 4 4 4 3 2 2 4 7 11 12 9 10 14 11 9 9 12 9 8 7 6 1 2 3 3 10 22 11 10
16 16 16 16 16 15 15 14 13 12 10 8 7 6 5 6 5 5 5 6 5 4 3 4 5 8 14 7 9 6 13 12 11 11 9 10 5 8 3 3 4 2 3 6 16 18 12
16 17 19 19 18 17 15 15 14 13 12 11 9 7 7 6 6 6 7 8 8 7 6 6 8 15 11 13 9 7 12 12 12 12 8 11 10 6 5 3 4 5 6 7 4 17 7
20 21 21 20 18 17 15 15 14 13 12 11 9 8 8 7 7 7 8 9 12 13 12 11 11 9 4 7 8 8 9 11 12 11 13 12 9 5 6 1 4 4 6 7 8 13 13
22 21 21 20 19 17 16 15 14 13 12 10 9 8 7 7 7 7 8 10 11 11 13 14 14 15 2 2 3 6 7 6 11 11 12 14 11 5 7 8 14 10 7 7 5 11 15
22 21 21 19 18 17 16 14 14 13 11 10 9 8 7 7 8 9 11 11 10 9 12 13 10 9 3 3 5 7 6 6 7 9 10 12 8 7 10 11 8 5 12 6 3 5 15
21 20 19 18 18 18 16 15 13 12 11 10 9 7 7 8 10 12 14 14 9 11 7 6 4 5 4 1 2 5 6 3 6 9 9 12 10 13 12 8 2 5 4 7 3 5 3
19 18 18 18 18 18 17 14 12 11 10 8 7 6 6 9 13 14 11 9 13 15 8 8 8 7 5 5 6 5 7 5 7 9 12 10 15 11 10 6 6 6 8 3 4 2 5
18 19 19 18 18 18 17 15 12 11 10 8 5 5 6 11 12 13 14 13 13 13 8 6 4 4 3 7 1 2 8 4 6 9 12 13 10 10 6 9 9 9 6 8 2 5 4
19 19 19 19 18 17 17 16 14 11 10 8 3 2 5 12 10 11 12 11 8 5 6 3 2 3 5 6 2 3 6 4 6 9 9 13 9 7 9 11 10 14 7 6 5 5 9
18 19 19 19 18 17 16 16 15 11 9 8 3 2 5 10 10 8 13 8 3 2 5 3 0 1 2 2 3 1 5 4 4 6 10 12 8 6 10 13 12 7 12 9 10 12 13
18 18 19 19 19 18 16 15 15 12 9 8 4 3 6 10 10 9 10 5 5 6 2 2 2 1 3 2 2 3 3 4 4 5 9 10 9 10 13 8 11 11 10 11 12 13 16
16 17 18 18 19 18 18 16 14 13 10 9 5 3 7 10 10 9 7 8 7 8 2 4 3 1 3 2 2 2 3 4 6 9 12 10 14 10 12 10 8 11 14 20 13 8 4
17 17 18 18 18 18 17 16 13 13 11 9 5 2 6 9 11 10 11 2 10 2 3 4 4 4 3 3 1 1 2 8 3 6 4 11 14 14 12 15 11 13 20 17 4 4 5
19 19 19 19 18 17 17 16 14 11 10 8 4 4 6 8 10 11 7 11 3 5 3 4 3 7 5 3 2 4 3 1 1 3 10 6 8 7 8 11 14 10 18 23 15 7 16
19 20 20 20 19 18 17 15 15 11 9 6 4 6 6 9 9 9 5 10 4 7 5 4 7 6 5 6 5 3 3 3 2 4 5 5 11 8 11 12 17 14 14 13 14 4 9
21 21 21 21 20 19 19 16 14 12 9 6 7 3 13 11 9 8 10 5 6 6 7 5 4 6 8 5 7 5 3 2 4 4 6 10 12 6 11 16 19 15 16 17 14 1 1
24 24 25 25 25 22 20 18 15 12 9 8 11 9 17 14 10 9 12 10 9 6 4 5 5 5 6 3 8 7 5 3 4 4 9 8 14 12 14 10 12 23 14 19 10 9 4
26 26 25 24 24 23 22 21 18 14 11 9 14 12 17 15 16 14 12 11 9 9 7 7 7 8 5 5 6 8 6 6 5 4 7 5 10 18 12 20 17 8 14 13 18 7 7
25 25 23 22 22 22 23 22 20 16 13 11 14 10 15 15 17 16 13 14 15 11 10 10 7 7 6 8 9 8 7 9 7 8 11 9 14 18 5 14 16 21 17 17 12 19 9
25 24 23 22 22 24 23 21 18 17 15 12 10 13 14 12 16 19 18 15 16 15 13 11 10 9 7 7 7 10 10 12 11 11 12 10 16 15 11 9 12 14 17 16 15 14 5
25 25 26 25 25 26 25 23 19 16 14 13 13 12 15 21 14 14 21 20 18 16 15 15 14 11 10 9 9 10 9 10 11 7 6 9 13 13 16 16 17 17 20 20 13 13 11
28 26 26 27 26 27 26 22 18 16 13 13 17 17 20 18 17 20 20 20 20 18 18 18 14 14 12 11 9 10 11 12 10 11 12 10 12 13 16 7 12 15 18 18 17 13 9
34 32 30 30 29 26 24 21 17 16 15 14 15 15 17 17 17 19 19 20 20 19 19 16 16 14 13 6 10 7 8 10 11 11 12 12 11 13 17 15 13 8 8 10 11 15 13
31 29 29 28 26 24 21 19 17 14 15 15 13 14 16 16 14 16 19 18 18 18 19 16 15 14 13 8 8 5 7 9 10 9 9 12 14 15 17 18 16 14 10 10 12 17 18
29 27 26 24 23 21 20 19 16 14 14 14 12 12 13 17 11 14 16 17 21 20 20 19 19 16 13 9 9 7 9 2 3 5 6 7 8 13 14 15 11 11 2 3 7 18 19
28 26 24 22 21 19 18 16 15 13 13 14 12 12 13 17 16 10 12 17 14 20 17 20 18 18 15 15 14 15 11 5 8 11 9 10 10 16 16 17 18 4 5 5 10 9 14
26 25 23 21 20 20 19 17 16 17 14 14 14 13 16 17 15 17 20 19 19 21 13 14 17 17 16 17 17 14 12 9 8 12 15 14 15 17 15 16 19 4 5 9 11 8 16
25 23 22 20 19 19 18 18 18 17 17 16 17 15 16 17 12 11 18 25 32 23 22 13 15 13 18 16 16 15 12 11 12 15 12 16 16 19 16 9 10 7 6 8 14 14 14